[[{"header":{"parameterUnit":"m.s-1","parameterCategory":1,"la1":30.6,"la2":28.766,"lo1":-90.7593,"lo2":-88.6598,"dy":0.0162,"dx":0.0183,"nx":116,"ny":114,"refTime":"2023-10-13T12:00:00:Z","depth":0,"parameterNumber":2,"parameterNumberName":"U-component_of_WINDS"},"data":[0.0,0.0,0.0,0.0,0.0,0.0,0.0,0.0,0.0,0.0,0.0,0.0,0.0,0.0,0.0,0.0,0.0,0.0,0.0,0.0,0.0,0.0,0.0,0.0,0.0,0.0,0.0,0.0,0.0,0.0,0.0,0.0,0.0,0.0,0.0,0.0,0.0,0.0,0.0,0.0,0.0,0.0,0.0,0.0,0.0,0.0,0.0,0.0,0.0,0.0,0.0,0.0,0.0,0.0,0.0,0.0,0.0,0.0,0.0,0.0,0.0,0.0,0.0,0.0,0.0,0.0,0.0,0.0,0.0,0.0,0.0,0.0,0.0,0.0,0.0,0.0,0.0,0.0,0.0,0.0,0.0,0.0,0.0,0.0,0.0,0.0,0.0,0.0,0.0,0.0,0.0,0.0,0.0,0.0,0.0,0.0,0.0,0.0,0.0,0.0,0.0,0.0,0.0,0.0,0.0,0.0,0.0,0.0,0.0,0.0,0.0,0.0,0.0,0.0,0.0,0.0,0.0,0.0,0.0,0.0,0.0,0.0,0.0,0.0,0.0,0.0,0.0,0.0,0.0,0.0,0.0,0.0,0.0,0.0,0.0,0.0,0.0,0.0,0.0,0.0,0.0,0.0,0.0,0.0,0.0,0.0,0.0,0.0,0.0,0.0,0.0,0.0,0.0,0.0,0.0,0.0,0.0,0.0,0.0,0.0,0.0,0.0,0.0,0.0,0.0,0.0,0.0,0.0,0.0,0.0,0.0,0.0,0.0,0.0,0.0,0.0,0.0,0.0,0.0,0.0,0.0,0.0,0.0,0.0,0.0,0.0,0.0,0.0,0.0,0.0,0.0,0.0,0.0,0.0,0.0,0.0,0.0,0.0,0.0,0.0,0.0,0.0,0.0,0.0,0.0,0.0,0.0,0.0,0.0,0.0,0.0,0.0,0.0,0.0,0.0,0.0,0.0,0.0,0.0,0.0,0.0,0.0,0.0,0.0,0.0,0.0,0.0,0.0,0.0,0.0,0.0,0.0,0.0,0.0,0.0,0.0,0.0,0.0,0.0,0.0,0.0,0.0,0.0,0.0,0.0,0.0,0.0,0.0,0.0,0.0,0.0,0.0,0.0,0.0,0.0,0.0,0.0,0.0,0.0,0.0,0.0,0.0,0.0,0.0,0.0,0.0,0.0,0.0,0.0,0.0,0.0,0.0,0.0,0.0,0.0,0.0,0.0,0.0,0.0,0.0,0.0,0.0,0.0,0.0,0.0,0.0,0.0,0.0,0.0,0.0,0.0,0.0,0.0,0.0,0.0,0.0,0.0,0.0,0.0,0.0,0.0,0.0,0.0,0.0,0.0,0.0,0.0,0.0,0.0,0.0,0.0,0.0,0.0,0.0,0.0,0.0,0.0,0.0,0.0,0.0,0.0,0.0,0.0,0.0,0.0,0.0,0.0,0.0,0.0,0.0,0.0,0.0,0.0,0.0,0.0,0.0,0.0,0.0,0.0,0.0,0.0,0.0,0.0,0.0,0.0,0.0,0.0,0.0,0.0,0.0,0.0,0.0,0.0,0.0,0.0,0.0,0.0,0.0,0.0,0.0,0.0,0.0,0.0,0.0,0.0,0.0,0.0,0.0,0.0,0.0,0.0,0.0,0.0,0.0,0.0,0.0,0.0,0.0,0.0,0.0,0.0,0.0,0.0,0.0,0.0,0.0,0.0,0.0,0.0,0.0,0.0,0.0,0.0,0.0,0.0,0.0,0.0,0.0,0.0,0.0,0.0,0.0,0.0,0.0,0.0,0.0,0.0,0.0,0.0,0.0,0.0,0.0,0.0,0.0,0.0,0.0,0.0,0.0,0.0,0.0,0.0,0.0,0.0,0.0,0.0,0.0,0.0,0.0,0.0,0.0,0.0,0.0,0.0,0.0,0.0,0.0,0.0,0.0,0.0,0.0,0.0,0.0,0.0,0.0,0.0,0.0,0.0,0.0,0.0,0.0,0.0,0.0,0.0,0.0,0.0,0.0,0.0,0.0,0.0,0.0,0.0,0.0,0.0,0.0,0.0,0.0,0.0,0.0,0.0,0.0,0.0,0.0,0.0,0.0,0.0,0.0,0.0,0.0,0.0,0.0,0.0,0.0,0.0,0.0,0.0,0.0,0.0,0.0,0.0,0.0,0.0,0.0,0.0,0.0,0.0,0.0,0.0,0.0,0.0,0.0,0.0,0.0,0.0,0.0,0.0,0.0,0.0,0.0,0.0,0.0,0.0,0.0,0.0,0.0,0.0,0.0,0.0,0.0,0.0,0.0,0.0,0.0,0.0,0.0,0.0,0.0,0.0,0.0,0.0,0.0,0.0,0.0,0.0,0.0,0.0,0.0,0.0,0.0,0.0,0.0,0.0,0.0,0.0,0.0,0.0,0.0,0.0,0.0,0.0,0.0,0.0,0.0,0.0,0.0,0.0,0.0,0.0,0.0,0.0,0.0,0.0,0.0,0.0,0.0,0.0,0.0,0.0,0.0,0.0,0.0,0.0,0.0,0.0,0.0,0.0,0.0,0.0,0.0,0.0,0.0,0.0,0.0,0.0,0.0,0.0,0.0,0.0,0.0,0.0,0.0,0.0,0.0,0.0,0.0,0.0,0.0,0.0,0.0,0.0,0.0,0.0,0.0,0.0,0.0,0.0,0.0,0.0,0.0,0.0,0.0,0.0,0.0,0.0,0.0,0.0,0.0,0.0,0.0,0.0,0.0,0.0,0.0,0.0,0.0,0.0,0.0,0.0,0.0,0.0,0.0,0.0,0.0,0.0,0.0,0.0,0.0,0.0,0.0,0.0,0.0,0.0,0.0,0.0,0.0,0.0,0.0,0.0,0.0,0.0,0.0,0.0,0.0,0.0,0.0,0.0,0.0,0.0,0.0,0.0,0.0,0.0,0.0,0.0,0.0,0.0,0.0,0.0,0.0,0.0,0.0,0.0,0.0,0.0,0.0,0.0,0.0,0.0,0.0,0.0,0.0,0.0,0.0,0.0,0.0,0.0,0.0,0.0,0.0,0.0,0.0,0.0,0.0,0.0,0.0,0.0,0.0,0.0,0.0,0.0,0.0,0.0,0.0,0.0,0.0,0.0,0.0,0.0,0.0,0.0,0.0,0.0,0.0,0.0,0.0,0.0,0.0,0.0,0.0,0.0,0.0,0.0,0.0,0.0,0.0,0.0,0.0,0.0,0.0,0.0,0.0,0.0,0.0,0.0,0.0,0.0,0.0,0.0,0.0,0.0,0.0,0.0,0.0,0.0,0.0,0.0,0.0,0.0,0.0,0.0,0.0,0.0,0.0,0.0,0.0,0.0,0.0,0.0,0.0,0.0,0.0,0.0,0.0,0.0,0.0,0.0,0.0,0.0,0.0,0.0,0.0,0.0,0.0,0.0,0.0,0.0,0.0,0.0,0.0,0.0,0.0,0.0,0.0,0.0,0.0,0.0,0.0,0.0,0.0,0.0,0.0,0.0,0.0,0.0,0.0,0.0,0.0,0.0,0.0,0.0,0.0,0.0,0.0,0.0,0.0,0.0,0.0,0.0,0.0,0.0,0.0,0.0,0.0,0.0,0.0,0.0,0.0,0.0,0.0,0.0,0.0,0.0,0.0,0.0,0.0,0.0,0.0,0.0,0.0,0.0,0.0,0.0,0.0,0.0,0.0,0.0,0.0,0.0,0.0,0.0,0.0,0.0,0.0,0.0,0.0,0.0,0.0,0.0,0.0,0.0,0.0,0.0,0.0,0.0,0.0,0.0,0.0,0.0,0.0,0.0,0.0,0.0,0.0,0.0,0.0,0.0,0.0,0.0,0.0,0.0,0.0,0.0,0.0,0.0,0.0,0.0,0.0,0.0,0.0,0.0,0.0,0.0,0.0,0.0,0.0,0.0,0.0,0.0,0.0,0.0,0.0,0.0,0.0,0.0,0.0,0.0,0.0,0.0,0.0,0.0,0.0,0.0,0.0,0.0,0.0,0.0,0.0,0.0,0.0,0.0,0.0,0.0,0.0,0.0,0.0,0.0,0.0,0.0,0.0,0.0,0.0,0.0,0.0,0.0,0.0,0.0,0.0,0.0,0.0,0.0,0.0,0.0,0.0,0.0,0.0,0.0,0.0,0.0,0.0,0.0,0.0,0.0,0.0,0.0,0.0,0.0,0.0,0.0,0.0,0.0,0.0,0.0,0.0,0.0,0.0,0.0,0.0,0.0,0.0,0.0,0.0,0.0,0.0,0.0,0.0,0.0,0.0,0.0,0.0,0.0,0.0,0.0,0.0,0.0,0.0,0.0,0.0,0.0,0.0,0.0,0.0,0.0,0.0,0.0,0.0,0.0,0.0,0.0,0.0,0.0,0.0,0.0,0.0,0.0,0.0,0.0,0.0,0.0,0.0,0.0,0.0,0.0,0.0,0.0,0.0,0.0,0.0,0.0,0.0,0.0,0.0,0.0,0.0,0.0,0.0,0.0,0.0,0.0,0.0,0.0,0.0,0.0,0.0,0.0,0.0,0.0,0.0,0.0,0.0,0.0,0.0,0.0,0.0,0.0,0.0,0.0,0.0,0.0,0.0,0.0,0.0,0.0,0.0,0.0,0.0,0.0,0.0,0.0,0.0,0.0,0.0,0.0,0.0,0.0,0.0,0.0,0.0,0.0,0.0,0.0,0.0,0.0,0.0,0.0,0.0,0.0,0.0,0.0,0.0,0.0,0.0,0.0,0.0,0.0,0.0,0.0,0.0,0.0,0.0,0.0,0.0,0.0,0.0,0.0,0.0,0.0,0.0,0.0,0.0,0.0,0.0,0.0,0.0,0.0,0.0,0.0,0.0,0.0,0.0,0.0,0.0,0.0,0.0,0.0,0.0,0.0,0.0,0.0,0.0,0.0,0.0,0.0,0.0,0.0,0.0,0.0,0.0,0.0,0.0,0.0,0.0,0.0,0.0,0.0,0.0,0.0,0.0,0.0,0.0,0.0,0.0,0.0,0.0,0.0,0.0,0.0,0.0,0.0,0.0,0.0,0.0,0.0,0.0,0.0,0.0,0.0,0.0,0.0,0.0,0.0,0.0,0.0,0.0,0.0,0.0,0.0,0.0,0.0,0.0,0.0,0.0,0.0,0.0,0.0,0.0,0.0,0.0,0.0,0.0,0.0,0.0,0.0,0.0,0.0,0.0,0.0,0.0,0.0,0.0,0.0,0.0,0.0,0.0,0.0,0.0,0.0,0.0,0.0,0.0,0.0,0.0,0.0,0.0,0.0,0.0,0.0,0.0,0.0,0.0,0.0,0.0,0.0,0.0,0.0,0.0,0.0,0.0,0.0,0.0,0.0,0.0,0.0,0.0,0.0,0.0,0.0,0.0,0.0,0.0,0.0,0.0,0.0,0.0,0.0,0.0,0.0,0.0,0.0,0.0,0.0,0.0,0.0,0.0,0.0,0.0,0.0,0.0,0.0,0.0,0.0,0.0,0.0,0.0,0.0,0.0,0.0,0.0,0.0,0.0,0.0,0.0,0.0,0.0,0.0,0.0,0.0,0.0,0.0,0.0,0.0,0.0,0.0,0.0,0.0,0.0,0.0,0.0,0.0,0.0,0.0,0.0,0.0,0.0,0.0,0.0,0.0,0.0,0.0,0.0,0.0,0.0,0.0,0.0,0.0,0.0,0.0,0.0,0.0,0.0,0.0,0.0,0.0,0.0,0.0,0.0,0.0,0.0,0.0,0.0,0.0,0.0,0.0,0.0,0.0,0.0,0.0,0.0,0.0,0.0,0.0,0.0,0.0,0.0,0.0,0.0,0.0,0.0,0.0,0.0,0.0,0.0,0.0,0.0,0.0,0.0,0.0,0.0,0.0,0.0,0.0,0.0,0.0,0.0,0.0,0.0,0.0,0.0,0.0,0.0,0.0,0.0,0.0,0.0,0.0,0.0,0.0,0.0,0.0,0.0,0.0,0.0,0.0,0.0,0.0,0.0,0.0,0.0,0.0,0.0,0.0,0.0,0.0,0.0,0.0,0.0,0.0,0.0,0.0,0.0,0.0,0.0,0.0,0.0,0.0,0.0,0.0,0.0,0.0,0.0,0.0,0.0,0.5996,0.0,0.0,0.0,0.0,0.0,0.0,0.0,0.0,0.0,0.0,0.0,0.0,0.0,0.0,0.0,0.0,0.0,0.0,0.0,0.0,0.0,0.0,0.0,0.0,0.0,0.0,0.0,0.0,0.0,0.0,0.0,0.0,0.0,0.0,0.0,0.0,0.0,0.0,2.3526,2.3775,2.3778,2.3452,2.3452,2.3201,2.2749,0.0,0.0,0.0,0.0,0.0,0.0,0.0,0.0,0.0,0.0,0.0,0.0,0.0,0.0,0.0,0.0,0.0,0.0,0.0,0.0,0.0,0.0,0.0,0.0,0.0,0.0,0.0,0.0,0.0,0.0,0.0,0.0,0.0,0.0,0.0,0.0,0.0,0.0,0.0,0.0,0.0,0.0,0.0,0.0,0.0,0.0,0.0,0.0,0.0,0.0,0.0,0.0,0.0,0.0,0.0,0.0,0.0,0.0,0.0,0.0,0.0,0.0,0.0,0.0,0.0,0.0,0.0,0.0,0.0,0.0,0.0,0.6259,0.0,0.0,0.0,0.0,0.0,0.0,0.0,0.0,0.0,0.0,0.0,0.0,0.0,0.0,0.0,0.0,0.0,0.0,0.0,0.0,0.0,0.0,0.0,2.7739,2.785,2.797,2.732,2.6901,0.0,0.0,0.0,0.0,0.0,0.0,0.0,2.3526,2.3703,2.4531,2.4808,2.5335,2.6038,2.6239,2.5661,2.4456,2.4908,0.0,0.0,0.0,0.0,0.0,0.0,0.0,0.0,0.0,0.0,0.0,0.0,0.0,0.0,0.0,0.0,0.0,0.0,0.0,0.0,0.0,0.0,0.0,0.0,0.0,0.0,0.0,0.0,0.0,0.0,0.0,0.0,0.0,0.0,0.0,0.0,0.0,0.0,0.0,0.0,0.0,0.0,0.0,0.0,0.0,0.0,0.0,0.0,0.0,0.0,0.0,0.0,0.0,0.0,0.0,0.0,0.0,0.0,0.0,0.0,0.0,0.0,0.0,0.6911,0.7116,0.7543,0.7718,0.7675,0.7447,0.6642,0.6655,0.7016,0.0,0.0,0.0,0.0,0.0,0.0,0.0,0.0,0.0,0.0,0.0,0.0,0.0,0.0,0.0,0.0,0.0,0.0,0.0,0.0,0.0,0.0,2.8457,2.8697,2.9265,2.8727,2.8068,2.752,0.0,0.0,0.0,0.0,0.0,2.3245,2.3689,2.3703,2.329,2.4782,2.6289,2.7795,2.8775,2.9377,2.9528,2.7243,2.6816,2.7598,0.0,0.0,0.0,0.0,0.0,0.0,0.0,0.0,0.0,0.0,0.0,0.0,0.0,0.0,0.0,0.0,0.0,0.0,0.0,0.0,0.0,0.0,0.0,0.0,0.0,0.0,0.0,0.0,0.0,0.0,0.0,0.0,0.0,0.0,0.0,0.0,0.0,0.0,0.0,0.0,0.0,0.7167,0.6232,0.0,0.0,0.0,0.0,0.0,0.0,0.0,0.0,0.0,0.0,0.0,0.0,0.0,0.696,0.6986,0.7542,0.7727,0.7481,0.7588,0.7667,0.7549,0.7695,0.7896,0.8133,0.7821,0.0,0.7042,0.6134,0.0,0.0,0.0,0.0,0.0,0.0,0.0,0.0,0.0,0.0,0.0,0.0,0.0,0.0,0.0,0.0,0.0,0.0,0.0,0.0,0.0,2.8936,2.9415,3.0043,3.121,3.115,2.9325,2.8541,0.0,0.0,0.0,2.3552,2.3627,2.3879,2.4632,2.5937,2.7896,2.9553,3.0909,3.1712,3.239,3.2867,3.1662,3.0507,2.9428,2.7656,0.0,0.0,0.0,0.0,0.0,0.0,0.0,0.0,0.0,0.0,0.0,0.0,0.0,0.0,0.0,0.0,0.0,0.0,0.0,0.0,0.0,0.0,0.0,0.0,0.0,0.0,0.0,0.0,0.0,0.0,0.0,0.0,0.0,0.0,0.0,0.0,0.0,0.0,0.0,0.7343,0.7085,0.6846,0.6992,0.6829,0.0,0.0,0.0,0.0,0.0,0.0,0.0,0.0,0.0,0.6917,0.7578,0.7942,0.8029,0.8158,0.8268,0.8215,0.8261,0.833,0.8357,0.8499,0.8642,0.8771,0.8784,0.8591,0.821,0.7224,0.6763,0.6641,0.0,0.0,0.0,0.0,0.6456,0.6849,0.0,0.0,0.0,0.0,0.0,0.0,0.0,0.0,0.0,0.0,0.0,0.0,2.9205,3.0073,3.1031,3.2168,3.3784,3.3754,3.142,3.0319,2.8753,2.6436,2.4528,2.3778,2.4205,2.4632,2.6113,2.875,3.0959,3.2692,3.3947,3.4625,3.5253,3.578,3.5629,3.4123,3.1587,3.0306,2.8398,2.6067,0.0,0.0,0.0,0.0,0.0,0.0,0.0,0.0,0.0,0.0,0.0,0.0,0.0,0.0,0.0,0.0,0.0,0.0,0.0,0.0,0.0,0.0,0.0,0.0,0.0,0.0,0.0,0.0,0.0,0.0,0.0,0.0,0.0,0.0,0.0,0.0,0.0,0.7321,0.7052,0.7278,0.7283,0.7317,0.0,0.0,0.0,0.0,0.0,0.0,0.6734,0.7605,0.806,0.8025,0.8344,0.866,0.8871,0.8632,0.8628,0.8879,0.8879,0.896,0.9117,0.9218,0.9293,0.9334,0.9442,0.9408,0.9198,0.8221,0.7495,0.6987,0.6946,0.6749,0.6572,0.7082,0.7334,0.7439,0.0,0.0,0.0,0.0,0.0,0.0,0.0,0.0,0.0,0.0,0.0,2.8547,3.1091,3.2527,3.4322,3.6836,3.6088,3.4861,3.3425,3.0201,2.7681,2.6293,2.5247,2.4757,2.4782,2.6314,2.8222,3.0482,3.2692,3.4625,3.6257,3.7312,3.8115,3.8642,3.809,3.6609,3.4399,3.2742,3.0787,2.8722,2.709,0.0,0.0,0.0,0.0,0.0,0.0,0.0,0.0,0.0,0.0,0.0,0.0,0.0,0.0,0.0,0.0,0.0,0.0,0.0,0.0,0.0,0.0,0.0,0.0,0.0,0.0,0.0,0.0,0.0,0.0,0.0,0.0,0.0,0.0,0.0,0.0,0.0,0.0,0.6788,0.7156,0.0,0.0,0.0,0.0,0.7902,0.8752,0.913,0.8766,0.8981,0.8826,0.8481,0.8659,0.8893,0.9181,0.9209,0.9191,0.9347,0.9347,0.9429,0.9578,0.9585,0.9659,0.9788,0.9795,0.972,0.9523,0.8757,0.8418,0.8323,0.7773,0.7624,0.7685,0.7506,0.7677,0.7889,0.0,0.0,0.0,0.0,0.0,0.0,0.0,0.0,2.7049,2.7509,2.8267,2.9778,3.2497,3.4711,3.6926,3.914,4.0068,3.9619,3.7464,3.4013,3.1086,2.8948,2.5537,2.4406,2.5837,2.8222,3.0507,3.2717,3.4926,3.6684,3.8015,3.8743,3.8658,3.7952,3.7758,3.6518,3.4466,3.3815,3.213,2.9687,2.6948,2.419,0.0,0.0,0.0,0.0,0.0,0.0,0.0,0.0,0.0,0.0,0.0,0.0,0.0,0.0,0.0,0.0,0.0,0.0,0.0,0.0,0.0,0.0,0.0,0.0,0.0,0.0,0.0,0.0,0.0,0.0,0.0,0.0,0.0,0.0,0.0,0.0,0.0,0.7652,0.819,0.0,0.7786,0.8255,0.8527,0.8352,0.8644,0.8773,0.865,0.901,0.9068,0.8906,0.9245,0.9429,0.9449,0.9734,0.9808,0.9666,0.9768,0.9788,0.9747,0.9849,0.9869,0.9829,0.9924,0.9883,0.9727,0.9456,0.9171,0.8886,0.8581,0.8492,0.8526,0.8418,0.8479,0.8581,0.0,0.0,0.0,0.0,0.0,0.0,0.0,0.0,2.6376,2.7021,2.8312,3.0438,3.3697,3.6507,3.9224,4.1863,4.2851,4.1923,3.8661,3.535,3.2022,2.8753,2.6164,2.5762,2.7821,3.0583,3.2993,3.5002,3.686,3.8241,3.917,3.9154,3.8615,3.7738,3.7364,3.6461,3.5111,3.4555,3.2719,2.992,2.7608,2.4997,2.2349,0.0,0.0,0.0,0.0,0.0,0.0,0.0,0.0,0.0,0.0,0.0,0.0,0.0,0.0,0.0,0.0,0.0,0.0,0.0,0.0,0.0,0.0,0.0,0.0,0.0,0.0,0.0,0.0,0.0,0.0,0.0,0.0,0.0,0.0,0.0,0.785,0.8302,0.8779,0.8885,0.8609,0.8879,0.8962,0.8758,0.8786,0.8832,0.8927,0.9171,0.9374,0.953,0.972,0.9829,0.9836,1.008,1.01,0.9897,1.0053,1.0019,0.9829,1.0032,0.9992,0.9768,1.0019,0.9985,0.9754,0.9856,0.9693,0.9367,0.9273,0.9239,0.9239,0.9239,0.9239,0.9205,0.0,0.0,0.0,0.0,0.0,0.0,0.0,2.5466,2.5583,2.6075,2.7653,3.0443,3.4704,3.7796,4.1163,4.4959,4.3975,4.1368,3.6828,3.3704,3.0026,2.5408,2.7085,2.895,3.0683,3.337,3.5579,3.7236,3.8341,3.917,3.9619,3.8562,3.802,3.7934,3.6997,3.6538,3.6445,3.4955,3.2588,2.9821,2.9167,2.6894,2.3663,0.0,0.0,0.0,0.0,0.0,0.0,0.0,0.0,0.0,0.0,0.0,0.0,0.0,0.0,0.0,0.0,0.0,0.0,0.0,0.0,0.0,0.0,0.0,0.0,0.0,0.0,0.0,0.0,0.0,0.0,0.0,0.0,0.0,0.8396,0.8556,0.873,0.8769,0.8834,0.8899,0.875,0.9008,0.9178,0.9171,0.932,0.9537,0.9822,0.9693,0.9815,1.0249,0.9985,0.9971,1.0263,1.0134,1.0066,1.0059,1.0215,1.0127,0.9842,1.0148,1.0046,0.9652,1.0093,1.0032,0.9646,0.993,0.9958,0.9822,0.9822,0.9822,0.9822,0.9822,0.9815,0.9768,0.0,0.0,0.0,0.0,0.0,0.0,2.4295,2.4063,2.4205,2.486,2.7913,3.1162,3.4287,3.8084,4.1355,4.3737,4.2471,4.0292,3.7414,3.3339,2.9587,2.6271,2.7759,3.0055,3.2943,3.4926,3.6759,3.8417,3.8718,3.8807,3.8586,3.8275,3.7192,3.5418,3.5446,3.4847,3.3801,3.3777,3.3172,3.2177,2.9896,2.7381,2.5059,0.0,0.0,0.0,0.0,0.0,0.0,0.0,0.0,0.0,0.0,0.0,0.0,0.0,0.0,0.0,0.0,0.0,0.0,0.0,0.0,0.0,0.0,0.0,0.0,0.0,0.0,0.0,0.0,0.0,0.0,0.0,0.0,0.8835,0.8614,0.8695,0.8817,0.9124,0.9319,0.9408,0.9367,0.9632,0.9754,0.9646,0.9883,1.0066,1.0148,0.9903,0.9822,0.9944,0.9971,0.9978,0.9951,1.0337,1.0432,1.0215,1.0365,1.0337,1.0161,1.0351,1.031,1.0107,1.0337,1.0243,0.9937,1.0019,0.9958,0.9822,0.9822,0.9822,0.9822,0.9822,0.9686,0.9442,0.0,0.0,0.0,0.0,0.0,0.0,2.3986,2.3605,2.3566,2.4239,2.7773,3.1277,3.3973,3.7908,4.1022,4.2647,4.1356,3.8866,3.5022,3.0918,2.8499,2.8245,3.0005,3.2466,3.5554,3.7036,3.8492,3.9898,3.9223,3.8752,3.8437,3.7519,3.6268,3.493,3.4882,3.4558,3.3906,3.4141,3.4355,3.4336,3.2402,3.0351,2.8262,2.6641,2.543,2.4453,2.3535,2.2041,2.0354,1.9071,0.0,0.0,0.0,0.0,0.0,0.0,0.0,0.0,0.0,0.0,0.0,0.0,0.0,0.0,0.0,0.0,0.0,0.0,0.0,0.0,0.0,0.0,0.0,0.0,0.9268,0.9214,0.9205,0.9075,0.9247,0.9483,0.9761,0.989,0.989,1.01,1.0175,1.0025,1.0236,1.0371,1.0371,1.0141,1.0012,1.0012,1.01,1.0107,1.0012,1.0419,1.0548,1.0392,1.0534,1.05,1.0317,1.0527,1.048,0.0,1.0493,1.0399,1.0073,1.0188,1.0107,0.0,0.0,0.0,0.0,0.0,0.9673,0.9429,0.0,0.0,0.0,0.0,0.0,0.0,2.383,2.345,2.3321,2.389,2.7318,3.0726,3.3384,3.7078,3.9881,4.1178,3.9815,3.6603,3.1021,2.7653,2.7413,3.0909,3.3068,3.5479,3.8241,3.9346,4.0245,4.1006,3.9647,3.8783,3.8517,3.6556,3.5583,3.5418,3.5042,3.5039,3.5469,3.5508,3.5801,3.6191,3.584,3.4394,3.2187,2.9785,2.8809,2.8476,2.6445,2.4403,2.239,2.0832,0.0,0.0,0.0,0.0,0.0,0.0,0.0,0.0,0.0,0.0,0.0,0.0,0.0,0.0,0.0,0.0,0.0,0.0,0.0,0.0,0.0,0.0,0.0,0.0,0.9805,0.9514,0.9834,0.9768,0.9747,0.9863,1.0127,1.0297,1.0283,1.0426,1.046,1.0317,1.0439,1.0521,1.0521,0.0,0.0,0.0,0.0,1.0283,1.0283,1.0439,1.0534,1.0444,1.0154,1.009,1.0006,1.0003,1.0182,1.0355,1.0326,1.0247,1.0154,1.0392,1.0317,1.0032,0.9883,0.9822,0.9815,0.9781,0.97,0.9585,0.0,0.0,0.0,0.0,0.0,0.0,2.1396,2.164,2.2394,2.3803,2.6967,2.963,3.1077,3.3893,3.6319,3.7954,3.4632,3.1369,2.8805,2.7189,2.8621,3.3696,3.5203,3.7211,3.9973,4.0676,4.0434,3.9354,3.9427,3.8343,3.6282,3.6142,3.5722,3.4843,3.5152,3.5488,3.5918,3.6269,3.6855,3.7559,3.7461,3.6133,3.4082,3.2891,3.2012,3.1269,3.0156,2.8022,2.5378,2.4123,2.147,1.8632,1.7372,1.5951,0.0,0.0,0.0,0.0,0.0,0.0,0.0,0.0,0.0,0.0,0.0,0.0,0.0,0.0,0.0,0.0,0.0,0.0,0.0,0.9998,0.9839,0.9751,0.9958,1.0188,1.029,1.0202,1.0344,1.0405,1.029,1.0521,1.0616,1.046,1.0588,1.0677,1.0677,1.0426,1.0283,1.0283,1.0283,1.029,1.0176,1.0437,1.0585,1.0618,0.0,0.0,0.7705,0.6823,0.8015,1.0478,0.8673,0.8738,1.0419,1.0473,1.0317,1.0032,0.9883,0.9822,0.9795,0.9551,0.953,0.9551,0.0,0.0,0.0,0.0,0.0,0.0,2.1423,2.1719,2.2297,2.3427,2.5963,2.8222,2.9628,3.1512,3.3093,3.4198,3.0758,2.8649,2.8925,2.8925,3.116,3.6157,3.7462,3.8786,4.0404,4.0721,4.0296,3.9147,3.8567,3.7623,3.629,3.6024,3.5711,3.5371,3.584,3.6387,3.6992,3.7441,3.7988,3.8594,3.8809,3.8262,3.7187,3.6094,3.5156,3.4167,3.2384,2.9867,2.7184,2.5021,2.2345,1.9663,1.8589,1.7497,1.6192,0.0,0.0,0.0,0.0,0.0,0.0,0.0,0.0,0.0,0.0,0.0,0.0,0.0,0.0,0.9579,0.0,0.0,0.9618,1.0587,1.0281,0.9958,1.0351,1.0527,1.0561,1.0405,1.0527,1.0595,1.0527,1.0663,1.0731,1.0656,1.0717,1.0765,1.0765,1.0622,1.0473,1.0452,1.0466,1.0337,1.0055,0.8738,0.8056,0.8071,0.8081,0.8349,0.8879,0.8349,0.8066,0.8041,0.8706,0.9612,1.0616,1.0527,1.0365,1.0148,0.9998,0.989,0.9802,0.9652,0.9652,0.9673,0.0,0.0,0.0,0.0,0.0,0.0,0.0,2.2071,2.2422,2.3201,2.4958,2.6691,2.8122,2.9101,2.9551,2.9449,2.7898,2.7623,2.9272,3.1054,3.3859,3.7866,3.9134,3.9843,4.0106,4.013,3.9744,3.9059,3.7891,3.7228,3.6882,3.6157,3.5937,3.6289,3.6641,3.7266,3.8066,3.7885,3.8534,3.9473,3.9314,3.962,3.9883,3.829,3.7468,3.6596,3.3642,3.081,2.8046,2.5196,2.2352,2.0107,1.9399,1.8771,1.7849,1.5538,1.5284,0.0,0.0,0.0,0.0,0.0,0.0,0.0,0.0,0.8792,0.8937,0.9596,0.9768,1.0109,1.1035,1.045,1.0204,1.121,1.0623,1.0188,1.0697,1.0079,0.9624,0.9496,1.0267,1.0492,0.9673,0.9692,0.971,0.971,0.971,0.971,0.971,0.971,0.9612,0.9651,0.9726,0.9864,1.0148,0.7705,0.577,0.4423,0.8638,1.029,0.9734,1.0424,0.9169,0.6569,0.9395,1.0744,1.0738,1.0561,1.0426,1.0304,1.012,0.9971,0.9863,0.9829,0.9822,0.9802,0.0,0.0,0.0,0.0,0.0,0.0,0.0,0.0,2.2146,2.3703,2.4556,2.5259,2.5887,2.6088,2.512,2.2587,2.6218,2.845,2.8062,3.2003,3.5491,3.8024,3.922,3.952,3.9092,3.9115,3.853,3.7339,3.79,3.7545,3.615,3.6838,3.7109,3.7168,3.7207,3.7695,3.8331,3.6181,3.7222,4.0179,3.7963,3.8517,4.0238,3.7815,3.7558,3.7942,3.4232,3.0901,2.7989,2.551,2.2649,2.0214,2.012,1.9693,1.8811,1.67,1.5778,1.4863,1.2074,1.0349,0.9528,0.9927,0.9859,0.9904,0.0,0.0,1.0281,1.0506,1.0159,0.9891,1.0383,1.0218,1.0222,1.0719,1.0677,1.0585,1.0658,0.7932,0.603,0.6019,0.8739,0.943,0.6305,0.6038,0.6038,0.6038,0.6038,0.6038,0.6038,0.6038,0.6027,0.6011,0.6027,0.7512,1.0618,1.0257,0.687,0.0671,0.7416,0.9046,0.6042,0.9303,1.0505,1.018,1.0585,1.0724,1.0711,1.0555,1.048,1.0439,1.0161,1.0039,1.0005,0.9869,0.9822,0.9802,0.0,0.0,0.0,0.0,0.0,0.0,0.0,0.0,0.0,2.2849,2.2924,2.3326,2.4531,2.4381,2.322,2.0936,2.3547,2.5805,2.6999,3.0191,3.3632,3.715,3.8183,3.8477,3.7902,3.8057,3.7824,3.6898,3.726,3.7171,3.6777,3.7129,3.7422,3.7676,3.793,3.7632,3.698,3.6503,3.6397,3.6674,3.5939,3.6079,3.6742,3.4949,3.4197,3.3426,2.9902,2.7458,0.0,2.2432,2.0447,1.9506,1.9679,1.9078,1.8023,1.6473,1.5605,1.4757,1.2735,1.0783,0.9323,0.9857,0.9811,0.9688,1.0116,1.0198,1.0126,1.0465,1.0349,1.0293,1.0645,1.0772,1.0111,0.0,0.7273,0.7887,1.038,0.9367,0.7769,0.5661,0.7903,0.9252,0.8371,0.4678,0.2274,0.2252,0.2271,0.2283,0.2283,0.6187,0.8494,0.8494,0.6447,0.7111,1.0645,1.0685,0.8494,0.4147,0.8628,0.9856,0.859,0.9958,1.0758,1.0717,1.0717,1.0717,1.0717,1.0649,1.0575,1.048,1.0358,1.0202,1.0032,0.9876,0.9822,0.9815,0.0,0.0,0.0,0.0,0.0,0.0,0.0,0.0,0.0,0.0,2.1142,2.1212,2.2238,2.1931,2.1019,1.9319,2.1049,2.3167,2.5494,2.8544,3.1895,3.5597,3.6824,3.7154,3.665,3.7102,3.7132,3.6836,3.6953,3.7226,3.7656,3.7773,3.774,3.7563,3.7868,3.7015,3.5397,3.5366,3.4885,3.4111,3.3678,3.3595,3.3686,3.1939,3.014,2.8295,2.5747,2.4147,2.2711,1.9278,1.8143,1.8116,1.8424,1.7969,1.7114,1.5939,1.4695,1.3486,1.2452,1.0586,0.9036,0.9641,0.9662,0.9496,0.9707,1.0012,1.0358,1.0598,1.0723,1.0493,0.9748,1.0474,1.0391,0.7543,0.4876,0.4267,0.7274,0.9496,0.9557,0.6455,0.7673,0.8925,0.9862,0.5501,0.1993,0.0132,-0.0,-0.0,-0.0,0.6745,1.0705,1.0705,0.8215,0.8061,1.0632,1.0678,0.985,0.8174,0.9844,1.0658,1.0751,1.0744,1.0738,1.0717,1.0717,1.0717,1.0717,1.0717,1.0656,1.0548,1.0507,1.0337,1.0093,0.9937,0.9856,0.9822,0.0,0.0,0.0,0.0,0.0,0.0,0.0,0.0,0.0,0.0,0.0,0.0,0.0,1.8073,1.7508,1.6159,1.9059,2.1711,2.3395,2.7962,3.1384,3.3085,3.496,3.5725,3.5465,3.5781,3.6426,3.7285,3.7676,3.8105,3.8555,3.8965,3.8291,3.6669,3.6669,3.5643,3.3898,3.1518,3.2087,3.4423,3.1657,3.1622,3.2508,2.8976,2.6111,2.4096,2.35,2.2178,2.0287,1.7329,1.6166,1.5979,1.6273,1.654,1.65,1.5337,1.2771,1.0336,1.0333,0.8941,0.776,0.8941,0.9361,0.9788,1.0514,1.1023,1.1396,1.1286,1.1626,1.0612,0.6673,0.9052,1.1551,1.142,0.5074,0.0135,0.0274,0.6261,0.9986,0.8133,0.8027,0.8313,0.0,0.9268,0.6814,0.0537,-0.0,-0.0,-0.0,0.6745,1.0705,1.0705,1.0545,1.0538,1.0672,1.0672,1.0672,1.0531,1.0638,1.0758,1.0751,1.0731,1.0717,1.0717,1.0717,1.0717,1.0717,1.0717,1.0717,1.0697,1.0548,1.0399,1.0256,1.01,0.9951,0.9822,0.0,0.0,0.0,0.0,0.0,0.0,0.0,0.0,0.0,0.0,0.0,0.0,0.0,0.0,0.0,0.0,1.7406,1.8617,2.0114,2.368,2.6598,2.8589,3.1953,3.3948,3.4062,3.5078,3.6016,3.6875,3.5972,3.5791,3.6181,3.5235,3.455,3.4145,3.4299,3.3257,3.1533,3.0786,2.9981,2.9138,2.7945,2.7423,2.7025,2.4266,2.1892,1.9764,0.0,1.6914,1.6281,1.4552,1.4001,1.4148,1.4442,1.4188,1.3506,1.1929,1.0628,0.963,0.9293,0.8883,0.8723,0.9422,1.0202,1.0887,1.124,1.1456,1.1683,1.1687,1.0773,0.9496,0.8375,0.7471,0.6198,0.4229,0.3551,0.2511,0.0274,0.3973,0.7169,0.79,0.8541,0.0,0.0,0.0,0.0,0.3211,0.565,0.708,0.7148,0.9436,1.0652,1.0652,1.0758,1.0758,1.0638,0.9128,0.9128,1.0638,1.0744,1.0731,1.0731,1.0724,1.0717,1.0717,1.0717,1.0717,1.0717,1.0717,1.0717,1.0717,1.0663,1.0493,1.0276,1.0222,1.0039,0.9822,0.0,0.0,0.0,0.0,0.0,0.0,0.0,0.0,0.0,0.0,0.0,0.0,0.0,0.0,0.0,0.0,0.0,1.6437,1.7832,2.0215,2.2519,2.4687,2.7715,2.9687,3.043,3.1719,3.2642,3.3244,3.2721,3.2636,3.2879,3.1972,3.1384,3.098,3.1109,3.0084,2.8302,2.8187,2.7032,2.5237,2.4516,2.3567,2.2338,1.9973,1.7849,0.0,1.3975,1.3213,1.2999,1.2345,1.2398,1.2732,1.2705,1.2438,1.1873,1.0467,1.0069,1.0008,0.951,0.9389,0.9605,1.0161,1.0846,1.143,1.1586,1.1789,1.155,1.0037,1.0036,0.9863,0.8586,0.6408,0.4512,0.3325,0.3202,0.326,0.347,0.3235,0.4514,0.8143,0.9123,0.8877,0.0,0.0,0.0,0.587,0.8481,1.0227,1.0719,1.0595,1.0511,1.0751,1.0731,1.0731,1.0751,0.9111,0.9105,1.0744,1.0724,1.0717,1.0717,1.0717,1.0663,1.0568,1.0677,1.0663,1.0568,1.0677,1.0717,1.0717,1.0663,1.0493,1.0276,1.0215,1.0039,0.9822,0.0,0.0,0.0,0.0,0.0,0.0,0.0,0.0,0.0,0.0,0.0,0.0,0.0,0.0,0.0,0.0,0.0,0.0,1.6523,1.7784,1.9512,2.1562,2.2598,2.3691,2.4902,2.6191,2.6817,2.6682,2.821,2.8782,2.8725,2.9192,2.8494,2.6934,2.7236,2.6257,2.4275,2.4008,2.3554,2.2913,2.1483,2.0067,1.8557,1.6206,1.4242,1.2741,1.2051,1.1263,1.0645,1.0889,1.1383,1.1713,1.1208,1.1365,1.1608,1.092,1.0906,1.0923,1.057,1.0227,1.0297,1.1009,1.1307,1.1457,1.1592,1.1777,1.063,0.659,0.9246,1.0988,0.697,0.0,0.6158,0.8458,0.4079,0.2672,0.8869,0.4238,0.2445,0.0,0.0,0.0,0.0,0.0,0.0,0.8167,0.0,0.9526,1.0692,1.0276,1.033,1.0744,1.0731,1.0731,1.0751,1.0731,1.0724,1.0717,1.0717,1.0717,1.0717,1.0717,1.0568,1.0317,1.0602,1.0561,1.0324,1.0602,1.0717,1.0704,1.0555,1.0405,1.0263,1.0107,0.9951,0.9822,0.0,0.0,0.0,0.0,0.0,0.0,0.0,0.0,0.0,0.0,0.0,0.0,0.0,0.0,0.0,0.0,0.0,0.0,1.471,1.6914,1.8281,1.8516,2.1191,2.2832,2.3164,2.4121,2.4544,2.4263,2.3528,2.2845,2.2269,2.1294,2.0659,2.0405,2.0238,2.0075,1.9693,1.9626,1.9386,1.8998,1.8397,1.7809,1.7034,1.4897,1.3534,1.2688,1.1583,1.0795,1.0314,1.0822,1.0754,1.0525,1.1082,1.0647,0.9866,0.9425,0.9803,1.0288,0.9795,1.0376,1.1267,1.1457,1.1701,1.1843,1.166,1.1322,0.9979,0.6673,0.7116,0.7737,0.6295,0.6378,0.0,0.6973,0.6771,0.0,0.8869,0.6006,0.0,0.2605,0.0,0.8842,0.6509,0.8729,0.0,0.0,0.9883,1.0243,1.0719,1.0609,1.0649,1.0724,1.0724,1.0731,1.0751,1.0751,1.0738,1.0717,1.0717,1.0717,1.0717,1.0717,1.0677,1.0616,1.0683,1.0677,1.0616,1.069,1.0717,1.0704,1.0555,1.0405,1.0263,1.0107,0.9951,0.9822,0.0,0.0,0.0,0.0,0.0,0.0,0.0,0.0,0.0,0.0,0.0,0.0,0.0,0.0,0.0,0.0,0.0,0.0,0.0,1.5308,1.5889,1.5533,1.6959,1.7853,1.8132,1.9054,1.9564,1.9552,1.8988,1.8494,1.813,1.6953,1.6593,1.6874,1.67,1.678,1.7048,1.6914,1.662,0.0,0.0,1.4963,1.4402,1.2732,1.1891,1.1503,1.0848,1.0315,1.0064,1.0948,1.0872,1.0504,1.0958,1.0745,1.0278,1.0006,1.0603,1.1119,1.0517,1.1077,1.1796,1.1728,1.1789,1.1701,1.1077,1.0445,0.9418,0.7315,0.63,0.5807,0.5616,0.6128,0.6516,0.0,0.0,0.0,0.8634,0.7624,0.5005,0.0,0.3295,0.0,0.3634,0.6506,0.8986,0.0,1.0472,1.0385,1.0541,1.0656,1.0751,1.0819,1.0819,1.0792,1.0738,1.0738,1.0731,1.0717,1.0717,1.0717,1.0717,1.0717,1.0649,1.0534,0.0,1.0643,1.0534,1.067,1.0717,1.0697,1.048,1.0351,1.0256,1.0032,0.9897,0.9822,0.0,0.0,0.0,0.0,0.0,0.0,0.0,0.0,0.0,0.0,0.0,0.0,0.0,0.0,0.0,0.0,0.0,0.0,0.0,0.0,1.3363,1.2914,1.2112,1.1866,1.2341,1.3268,1.3882,1.417,1.4828,1.508,1.4914,1.4473,1.4376,1.4576,1.4576,1.4696,1.4883,1.4669,1.4322,1.3841,1.2772,1.215,1.157,0.0,1.0,0.9866,0.9806,0.9664,0.9774,1.0717,1.0909,1.0804,1.0937,1.1272,1.15,1.1468,1.1872,1.2285,1.1754,1.1864,1.2074,1.1877,1.1694,1.1287,1.0256,0.9466,0.8798,0.7994,0.6331,0.5012,0.5152,0.5475,0.6009,0.6979,0.0,0.4407,0.8421,0.8922,0.7035,0.1788,0.1144,0.0898,0.0134,0.3706,0.7445,1.0826,1.0643,1.0412,1.0371,1.0588,1.0792,1.0941,1.0928,1.0867,1.0751,1.0731,1.0717,1.0717,1.0717,1.0717,1.0717,1.0717,1.0582,1.0351,1.0609,0.0,1.0358,1.0616,1.0717,1.069,1.0392,1.0283,1.0243,0.9937,0.9822,0.9822,0.0,0.0,0.0,0.0,0.0,0.0,0.0,0.0,0.0,0.0,1.1065,1.0586,0.0,0.0,0.0,0.0,0.0,0.0,0.0,0.0,0.0,1.1811,1.1839,1.1768,1.1534,1.169,1.1683,1.1371,1.154,1.1326,1.0766,1.0631,1.0488,1.0314,1.0314,1.0207,1.0033,1.0234,1.0528,1.0835,1.0394,1.0448,1.0779,1.002,0.0,0.0,0.8196,0.847,0.9083,0.9,0.9183,0.9805,1.106,1.1048,1.0578,1.0739,1.1281,1.1768,1.1592,1.2013,1.2332,1.1932,1.1531,1.1002,1.0073,0.895,0.7932,0.7121,0.6132,0.5461,0.5352,0.5694,0.6172,0.6989,0.5907,0.5873,0.8765,0.9014,0.8574,0.0,0.7297,0.5472,0.0537,0.5829,0.0,0.0,0.0,1.0962,1.0839,1.0758,1.0792,1.0941,1.0826,1.0806,1.0907,1.0785,1.0717,1.0717,1.0717,1.0717,1.0717,1.0717,1.069,1.0643,1.0697,0.0,1.0649,1.0697,1.0717,1.069,1.0392,1.0283,1.0243,0.9937,0.9822,0.9822,0.0,0.0,0.0,0.0,0.0,0.0,0.0,1.145,1.1466,1.1861,1.1738,1.1465,1.1038,1.0723,0.0,0.0,0.0,0.0,0.0,0.0,0.0,0.0,1.0824,1.0623,1.052,1.0765,1.1075,1.1343,0.0,1.0653,1.0521,0.9765,0.9459,0.9459,0.9256,0.9245,0.9272,0.9406,0.9633,0.9814,0.9317,0.9301,0.9516,0.925,0.0,0.0,0.7774,0.7634,0.7821,0.7983,0.8089,0.8652,1.0377,1.0827,1.0656,1.0799,1.126,1.1714,1.164,1.1999,1.2298,1.1925,1.1375,1.0575,0.9205,0.8208,0.7183,0.582,0.525,0.4958,0.4809,0.5081,0.5563,0.6251,0.6563,0.7101,0.8233,0.8936,0.9226,0.8955,0.8863,0.7811,0.487,0.6268,0.829,0.0,0.0,1.0887,1.105,1.0921,1.0873,1.0948,1.0799,1.0758,1.0826,1.0758,1.0717,1.0717,1.0717,1.0717,1.0717,1.0717,1.0717,1.0717,1.0717,0.0,1.0609,1.0683,1.067,1.0582,1.0365,1.0283,1.0243,0.9937,0.9869,0.993,0.0,0.0,0.0,0.0,0.0,0.0,0.0,1.1864,1.19,1.2676,1.2832,1.2578,1.1797,1.1094,1.0898,0.0,0.0,0.0,0.0,0.0,0.0,0.0,0.0,0.9559,0.9664,0.0,0.0,1.1455,1.0793,0.0,0.0,0.0,0.0,0.0,0.9339,0.9299,0.9406,0.9406,0.9376,0.0,0.0,0.8348,0.0,0.0,0.0,0.0,0.0,0.6657,0.6544,0.7009,0.7127,0.7387,0.9117,1.0093,1.0629,1.0731,1.1179,1.1647,1.166,1.1925,1.2108,1.1769,1.1104,1.008,0.8377,0.7428,0.6451,0.4843,0.4491,0.4355,0.43,0.4484,0.4937,0.572,0.6805,0.7379,0.7018,0.7883,0.8717,0.9056,0.8475,0.0,0.9157,0.7131,0.0,0.0,0.0,0.0,1.1097,1.0982,1.0914,1.0948,1.0799,1.0738,1.0772,1.0738,1.0717,1.0717,1.0717,1.0717,1.0717,1.0717,1.0717,1.0717,1.0717,0.0,0.0,1.0656,1.0609,1.0432,1.0324,1.0283,1.0249,0.9971,0.9944,1.0032,0.0,0.0,0.0,0.0,0.0,0.0,0.0,1.1861,1.2332,1.4297,1.3574,1.2695,1.2227,1.2044,1.1758,0.0,0.0,0.0,0.0,0.0,0.0,0.0,0.0,0.0,0.0,0.0,0.0,0.9904,0.986,0.0,0.0,0.0,0.0,0.0,0.0,0.8965,0.8497,0.8497,0.0,0.0,0.0,0.0,0.0,0.0,0.0,0.0,0.0,0.5123,0.5637,0.5884,0.605,0.6329,0.7326,0.8506,0.9605,1.0012,1.0561,1.1145,1.1667,1.1843,1.1769,1.1335,1.0561,0.9537,0.8147,0.6953,0.5854,0.487,0.4348,0.4138,0.4395,0.4519,0.4877,0.6084,0.6179,0.5829,0.4866,0.46,0.5779,0.9312,0.0,0.0,1.0225,1.0202,0.0,0.0,0.0,0.0,1.0975,1.0826,1.0806,1.0941,1.0799,1.0785,1.0928,1.0792,1.0717,1.0717,1.0717,1.0717,1.0717,1.0717,1.0717,1.0717,1.0717,0.0,0.0,1.0656,1.0555,1.0297,1.0283,1.0283,1.0256,1.0093,1.0039,1.0046,0.0,0.0,0.0,0.0,0.0,0.0,1.2077,1.1855,1.2292,1.4141,1.3945,1.3477,1.3047,1.2988,1.2441,1.1035,0.0,0.0,0.0,0.0,0.0,0.0,0.0,0.0,0.0,0.0,0.9243,0.9419,0.9419,0.0,0.0,0.0,0.0,0.0,0.0,0.8591,0.8363,0.7832,0.0,0.0,0.0,0.0,0.0,0.0,0.0,0.0,0.0,0.0,0.4901,0.4991,0.5346,0.5719,0.5672,0.6465,0.7649,0.8577,0.9517,1.0337,1.067,1.1151,1.1477,1.1124,1.029,0.9178,0.7733,0.662,0.5562,0.4389,0.4009,0.3921,0.4036,0.3988,0.4239,0.5169,0.4669,0.4507,0.542,0.3297,0.3791,0.9625,0.9606,0.0,0.0,0.0,0.0,0.0,0.0,0.0,1.0948,1.0806,1.0751,1.0812,1.0751,1.0751,1.0812,1.0751,1.0717,1.0717,1.0717,1.0717,1.0717,1.0717,1.0717,1.0717,1.0717,0.0,0.0,1.0487,1.0351,1.0025,1.0209,1.0283,1.0276,1.0209,1.0243,1.029,0.0,0.0,0.0,0.0,0.0,1.1065,1.2031,1.1953,1.2285,1.375,1.3848,1.3555,1.2988,1.2598,1.1882,1.0788,0.9754,0.0,0.0,0.0,0.0,0.0,0.0,0.0,0.0,0.0,0.9057,0.9057,0.9057,0.9057,0.0,0.0,0.8804,0.8804,0.0,0.0,0.0,0.0,0.0,0.0,0.0,0.0,0.0,0.0,0.0,0.0,0.0,0.0,0.0,0.0,0.0,0.5361,0.4807,0.5335,0.6326,0.7139,0.8357,0.9422,0.9707,1.0439,1.1056,1.0758,0.9863,0.8696,0.7319,0.6247,0.5209,0.4036,0.3758,0.3731,0.3731,0.3649,0.3812,0.4343,0.3972,0.4193,0.5928,0.3361,0.3125,0.8152,0.0,0.0,0.0,0.0,0.0,0.0,0.0,0.0,0.0,1.0806,1.0717,1.0717,1.0717,1.0717,1.0717,1.0717,1.0717,1.0717,1.0717,1.0697,1.0656,1.0697,1.0697,1.0656,1.0704,0.0,0.0,1.0392,1.0256,0.9917,1.0175,1.0304,1.0344,1.0344,1.0378,1.0399,0.0,0.0,0.0,0.0,0.0,0.0,1.2167,1.218,1.2539,1.3398,1.3145,1.2559,1.1724,1.043,0.9772,1.0076,1.0513,0.0,0.0,0.0,0.0,0.0,0.0,0.0,0.0,0.0,0.8804,0.8804,0.8804,0.8804,0.8804,0.8804,0.8804,0.8752,0.0,0.0,0.0,0.0,0.0,0.0,0.0,0.0,0.3886,0.0,0.0,0.0,0.0,0.0,0.0,0.0,0.0,0.0,0.0,0.5393,0.6018,0.6043,0.7115,0.8418,0.9001,0.9815,1.0432,1.0134,0.9164,0.8004,0.6946,0.5786,0.4714,0.3948,0.3683,0.3581,0.3581,0.3581,0.3685,0.3893,0.4435,0.5094,0.5738,0.4816,0.4109,0.0,0.0,0.0,0.0,0.0,0.0,0.0,0.0,0.0,0.0,1.0806,1.0717,1.0717,1.0717,1.0717,1.0717,1.0717,1.0717,1.0717,1.0717,1.0643,1.05,1.0649,1.0636,0.0,0.0,0.0,0.0,1.0432,1.0317,1.0059,1.0222,1.0365,1.0487,1.0487,1.0399,1.0283,0.0,0.0,0.0,0.0,0.0,0.0,0.0,1.1074,1.1309,1.248,1.1992,1.166,1.1992,1.0757,0.9767,0.9342,0.8779,0.0,0.0,0.0,0.0,0.0,0.0,0.0,0.0,0.0,0.8711,0.851,0.851,0.8404,0.8203,0.8203,0.8203,0.8154,0.7303,0.6884,0.0,0.0,0.0,0.0,0.0,0.404,0.4166,0.0,0.0,0.0,0.0,0.0,0.0,0.0,0.0,0.0,0.0,0.0,0.0,0.5739,0.636,0.7267,0.7361,0.7753,0.8153,0.7963,0.74,0.684,0.6323,0.5409,0.4532,0.4276,0.3869,0.3581,0.3581,0.3581,0.3765,0.4343,0.475,0.5266,0.6054,0.6198,0.0,0.7852,0.9219,0.0,0.0,0.0,0.0,0.0,0.0,0.0,0.0,1.0846,1.0826,1.0724,1.0717,1.0717,1.0717,1.0717,1.0717,1.0717,1.0717,1.0636,1.0493,1.0649,1.0636,0.0,0.0,0.0,0.0,1.0331,1.0229,1.0073,1.0324,1.0453,1.0493,1.0493,1.0466,1.0399,0.0,0.0,0.0,0.0,0.0,0.0,0.0,1.0586,1.0762,1.1406,1.1016,1.0879,1.1426,1.0105,0.9044,0.8666,0.7754,0.0,0.0,0.0,0.0,0.0,0.0,0.0,0.0,0.8751,0.8778,0.8697,0.8697,0.8604,0.838,0.838,0.831,0.8034,0.6978,0.6415,0.0,0.0,0.0,0.0,0.384,0.3965,0.4052,0.0,0.0,0.0,0.0,0.0,0.0,0.0,0.0,0.0,0.0,0.0,0.0,0.0,0.5853,0.6344,0.641,0.682,0.7197,0.6874,0.6492,0.6193,0.6006,0.5401,0.4839,0.4772,0.4378,0.4031,0.395,0.3806,0.39,0.4362,0.483,0.5319,0.598,0.666,0.0,0.9126,0.0,0.0,0.0,0.0,0.0,0.0,0.0,0.0,0.0,1.0812,1.0819,1.0724,1.0717,1.0717,1.0717,1.0717,1.0717,1.0717,1.0717,1.0636,1.0493,1.0649,1.0636,0.0,0.0,0.0,0.0,1.0304,1.0256,1.0236,1.0419,1.0493,1.0493,1.0493,1.0419,1.0297,0.0,0.0,0.0,0.0,0.0,0.0,0.0,1.0605,1.0723,1.0332,1.0234,1.0195,1.0157,0.8667,0.7755,0.8031,0.0,0.0,0.0,0.0,0.0,0.0,0.0,0.0,0.8337,0.8644,0.8925,0.9097,0.911,0.9097,0.9057,0.9084,0.8844,0.826,0.6957,0.6093,0.0,0.0,0.0,0.0,0.4176,0.4132,0.0,0.0,0.0,0.0,0.0,0.0,0.0,0.0,0.0,0.0,0.0,0.0,0.0,0.0,0.0,0.0,0.0,0.6746,0.7217,0.6592,0.622,0.6022,0.5866,0.5623,0.0,0.5345,0.5087,0.4807,0.4529,0.4234,0.4063,0.4141,0.4707,0.5338,0.58,0.6675,0.0,0.0,0.0,0.0,0.0,0.0,0.0,0.0,0.0,0.0,0.0,1.0717,1.0717,1.0717,1.0717,1.0717,1.0717,1.0717,1.0711,1.069,1.0711,1.0629,1.0466,1.0643,1.0636,0.0,0.0,0.0,0.0,1.0351,1.0378,1.0507,1.0493,1.0493,1.0487,1.0466,1.0283,1.0046,0.0,0.0,0.0,0.0,0.0,0.0,0.0,0.0,0.0,0.0,0.9707,0.9191,0.8872,0.7808,0.6918,0.0,0.0,0.0,0.0,0.0,0.0,0.0,0.0,0.0,0.8029,0.8537,0.8617,0.8194,0.847,0.8337,0.7896,0.8123,0.8043,0.7669,0.6678,0.5564,0.0,0.0,0.0,0.0,0.4343,0.4874,0.0,0.0,0.0,0.0,0.5674,0.5782,0.0,0.0,0.0,0.0,0.0,0.0,0.0,0.0,0.6013,0.6002,0.561,0.0,0.5485,0.534,0.525,0.5283,0.0,0.5538,0.5425,0.5659,0.5277,0.5014,0.5414,0.4892,0.4691,0.5699,0.5698,0.584,0.641,0.0,0.0,0.0,0.0,0.0,0.0,0.0,0.0,0.0,0.0,0.0,0.0,1.0717,1.0717,1.0717,1.0717,1.0717,1.0717,1.0717,1.0609,1.0385,1.0616,1.0521,1.0168,1.0548,1.0636,0.0,0.0,0.0,1.0656,1.0507,1.0527,1.0656,1.0534,1.0493,1.0466,1.0236,1.0107,1.0032,0.0,0.0,0.0,0.0,0.0,0.0,0.0,0.0,0.0,0.0,0.0,0.0,0.0,0.0,0.0,0.0,0.0,0.0,0.0,0.0,0.0,0.0,0.0,0.7177,0.7709,0.8029,0.8243,0.8337,0.8363,0.827,0.8083,0.8257,0.8016,0.7442,0.6422,0.5439,0.0,0.0,0.0,0.4822,0.5135,0.0,0.0,0.0,0.0,0.0,0.5879,0.6124,0.0,0.6605,0.6544,0.6424,0.0,0.0,0.0,0.0,0.5887,0.591,0.5552,0.5475,0.5387,0.4939,0.5148,0.5524,0.5608,0.576,0.5919,0.5955,0.5808,0.5729,0.5948,0.5579,0.5495,0.6111,0.6655,0.7228,0.0,0.0,0.0,0.0,0.0,0.0,0.0,0.0,0.0,0.0,0.0,0.0,1.0616,1.0616,1.0582,1.0521,1.0521,1.0582,1.0717,1.0649,1.05,1.0283,1.0439,1.0351,1.0059,1.0371,1.0473,0.0,0.0,0.0,1.0493,1.0209,1.0256,1.0514,1.0426,1.0351,1.027,1.0107,1.0005,0.993,0.0,0.0,0.0,0.0,0.0,0.0,0.0,0.0,0.0,0.0,0.0,0.0,0.0,0.0,0.0,0.0,0.0,0.0,0.0,0.0,0.0,0.0,0.0,0.6559,0.7365,0.7459,0.7842,0.8604,0.8497,0.8524,0.8671,0.8764,0.8283,0.7308,0.6234,0.5592,0.0,0.0,0.5791,0.548,0.6007,0.0,0.0,0.0,0.0,0.0,0.0,0.0,0.0,0.6317,0.6102,0.6115,0.6075,0.0,0.0,0.0,0.0,0.0,0.5758,0.6078,0.6156,0.5121,0.5591,0.6209,0.5729,0.6156,0.6553,0.6281,0.6379,0.6507,0.6388,0.626,0.0,0.6285,0.7417,0.0,0.0,0.0,0.0,0.0,0.0,0.0,0.0,0.0,0.0,0.0,0.0,1.0622,1.0466,1.046,1.0405,1.0283,1.0283,1.0399,1.0649,1.0527,1.0378,1.0209,1.0256,1.0188,1.0019,1.0202,1.0283,1.0256,0.0,0.0,1.0249,0.9869,0.9937,1.0276,1.0256,1.0168,1.0046,1.0025,0.993,0.9822,0.0,0.0,0.0,0.0,0.0,0.0,0.0,0.0,0.0,0.0,0.0,0.0,0.0,0.0,0.0,0.0,0.0,0.0,0.0,0.0,0.0,0.5785,0.6062,0.6371,0.672,0.7258,0.758,0.7715,0.839,0.851,0.8034,0.8577,0.8056,0.6734,0.6312,0.5815,0.5275,0.5155,0.547,0.605,0.6179,0.0,0.0,0.0,0.0,0.0,0.0,0.0,0.0,0.5969,0.5782,0.5745,0.5524,0.0,0.0,0.0,0.0,0.0,0.5994,0.6693,0.7007,0.5837,0.6226,0.6723,0.6225,0.653,0.6774,0.6319,0.6245,0.6504,0.719,0.653,0.6287,0.0,0.0,0.0,0.0,0.0,0.0,0.0,0.0,0.0,0.0,0.0,0.0,0.0,0.0,0.0,1.0324,1.031,1.0304,1.0283,1.0283,1.0304,1.0344,1.0324,1.0168,0.9897,1.0154,1.0134,0.9863,1.0154,1.0283,1.0276,0.0,1.0215,1.0276,1.0209,1.0222,1.027,1.0134,1.0073,1.0032,0.9903,0.9842,0.9822,0.0,0.0,0.0,0.0,0.0,0.0,0.0,0.0,0.0,0.0,0.0,0.0,0.0,0.0,0.0,0.0,0.0,0.0,0.0,0.0,0.0,0.5718,0.5838,0.6132,0.6573,0.6854,0.7228,0.7722,0.8123,0.8283,0.8163,0.7949,0.7482,0.6814,0.6401,0.6142,0.6014,0.6048,0.627,0.6647,0.0,0.0,0.0,0.0,0.0,0.0,0.0,0.0,0.0,0.0,0.5852,0.5691,0.5558,0.0,0.0,0.0,0.0,0.0,0.5645,0.6357,0.6804,0.5952,0.6752,0.7471,0.6269,0.6668,0.7022,0.6151,0.6839,0.7611,0.0,0.0,0.7861,0.9027,0.0,0.0,0.0,0.0,0.0,0.0,0.0,0.0,0.0,0.0,0.0,0.0,0.0,0.0,1.0161,1.0154,1.012,1.0032,1.0032,1.0032,1.0032,1.0032,0.9958,0.9822,0.9964,0.9917,0.9713,0.993,1.0032,1.0025,0.0,0.9883,1.0019,0.9863,0.989,1.0025,0.9951,0.9924,0.9917,0.9849,0.9822,0.9822,0.0,0.0,0.0,0.0,0.0,0.0,0.0,0.0,0.0,0.0,0.0,0.0,0.0,0.0,0.0,0.0,0.0,0.0,0.0,0.0,0.5678,0.5611,0.5678,0.6025,0.668,0.6693,0.7094,0.7888,0.8021,0.8216,0.84,0.7589,0.7081,0.68,0.6398,0.6277,0.64,0.6627,0.6787,0.6921,0.0,0.0,0.0,0.0,0.0,0.0,0.0,0.0,0.0,0.0,0.0,0.0,0.0,0.0,0.0,0.5309,0.5309,0.5336,0.5484,0.6025,0.6492,0.6076,0.7087,0.7841,0.6362,0.6935,0.7424,0.6332,0.7471,0.8421,0.0,0.8423,0.0,0.992,0.0,0.0,0.0,0.0,0.0,0.0,0.0,0.0,0.0,0.0,0.0,0.0,0.0,0.0,1.0005,0.9998,0.9944,0.9822,0.9822,0.9822,0.9822,0.9788,0.9788,0.9822,0.9822,0.9768,0.9659,0.9774,0.9822,0.9808,0.9544,0.9585,0.9802,0.9544,0.9564,0.9774,0.9774,0.9774,0.9774,0.9808,0.9822,0.9815,0.0,0.0,0.0,0.0,0.0,0.0,0.0,0.0,0.0,0.0,0.0,0.0,0.0,0.0,0.0,0.0,0.0,0.0,0.0,0.0,0.5598,0.5349,0.5571,0.6119,0.6974,0.6987,0.7251,0.7888,0.8484,0.8617,0.8363,0.8029,0.7281,0.625,0.6209,0.6048,0.5772,0.5798,0.6119,0.6627,0.6627,0.0,0.0,0.0,0.0,0.0,0.0,0.0,0.0,0.0,0.0,0.0,0.0,0.0,0.5309,0.5309,0.5309,0.543,0.5981,0.6371,0.6609,0.6554,0.7036,0.746,0.6948,0.7583,0.8093,0.7186,0.7654,0.8061,0.0,0.8521,0.9517,0.0,0.0,0.0,0.0,0.0,0.0,0.0,0.0,0.0,0.0,0.0,0.0,0.0,0.0,0.0,0.9842,0.9836,0.9829,0.9822,0.9822,0.9822,0.9822,0.9693,0.9693,0.9822,0.9822,0.9815,0.9808,0.9815,0.9822,0.9815,0.9659,0.968,0.9808,0.9652,0.9605,0.9625,0.9625,0.9625,0.9639,0.9774,0.9822,0.9802,0.0,0.0,0.0,0.0,0.0,0.0,0.0,0.0,0.0,0.0,0.0,0.0,0.0,0.0,0.0,0.0,0.0,0.0,0.0,0.5544,0.5478,0.5544,0.5651,0.6039,0.6734,0.6934,0.7277,0.7888,0.8337,0.8283,0.7849,0.757,0.6892,0.5914,0.6145,0.6055,0.5718,0.5905,0.6156,0.6357,0.6357,0.6357,0.0,0.0,0.0,0.0,0.0,0.0,0.0,0.0,0.5309,0.5309,0.5309,0.5309,0.5309,0.5309,0.5309,0.5363,0.5578,0.6226,0.6723,0.6228,0.72,0.8057,0.7009,0.7664,0.8234,0.7281,0.8738,1.01,0.0,0.0,0.9309,0.0,0.0,0.0,0.0,0.0,0.0,0.0,0.0,0.0,0.0,0.0,0.0,0.0,0.0,0.0,0.9557,0.9551,0.9551,0.9551,0.9551,0.9551,0.9551,0.9496,0.9496,0.9551,0.9551,0.9551,0.9551,0.9646,0.9686,0.9693,0.9727,0.972,0.9686,0.9632,0.9551,0.9469,0.9469,1.004,1.074,1.0794,1.0817,1.0809,0.0,0.0,0.0,0.0,0.0,0.0,0.0,0.0,0.0,0.0,0.0,0.0,0.0,0.0,0.0,0.0,0.0,0.0,0.5718,0.5531,0.5464,0.5571,0.5665,0.5905,0.6306,0.66,0.7134,0.7888,0.823,0.8016,0.7365,0.7139,0.6584,0.5873,0.6075,0.6013,0.5718,0.5999,0.6074,0.6048,0.6048,0.6048,0.0,0.0,0.0,0.0,0.0,0.0,0.0,0.0,0.5309,0.5309,0.5309,0.5309,0.5309,0.5309,0.5309,0.5336,0.5397,0.5999,0.6492,0.6087,0.7275,0.822,0.7161,0.7978,0.8773,0.8078,0.9131,1.0455,1.0984,0.0,0.0,0.0,0.0,0.0,0.0,0.0,0.0,0.0,0.0,0.0,0.0,0.0,0.0,0.0,0.0,0.0,0.0,0.9381,0.9381,0.9381,0.9381,0.9381,0.9381,0.9334,0.9306,0.9306,0.9266,0.9293,0.9388,0.949,0.9537,0.9537,0.9591,0.9585,0.9537,0.9483,0.9401,0.9306,0.9306,1.0211,1.146,1.1519,1.1765,1.21,0.0,0.0,0.0,0.0,0.0,0.0,0.0,0.0,0.0,0.0,0.0,0.0,0.0,0.0,0.0,0.0,0.0,0.0,0.5731,0.5705,0.5585,0.5322,0.5558,0.5705,0.5705,0.6035,0.6734,0.7875,0.8216,0.7896,0.7001,0.672,0.6465,0.6206,0.6007,0.5827,0.5691,0.5848,0.5827,0.5705,0.5705,0.5705,0.5772,0.0,0.0,0.0,0.0,0.0,0.0,0.0,0.5309,0.5309,0.5309,0.5309,0.5309,0.5322,0.5322,0.5344,0.5638,0.5718,0.581,0.6303,0.7158,0.7824,0.7434,0.8672,0.9797,0.9602,0.8726,0.8336,0.941,0.9411,0.0,0.0,0.0,0.0,0.0,0.0,0.0,0.0,0.0,0.0,0.0,0.0,0.0,0.0,0.0,0.0,0.0,0.9374,0.9374,0.9374,0.9374,0.9374,0.9374,0.9225,0.915,0.9144,0.9001,0.9089,0.9374,0.9374,0.9381,0.9367,0.9218,0.9239,0.9367,0.9211,0.915,0.9264,0.915,1.004,1.1388,1.146,1.2443,1.3429,0.0,0.0,0.0,0.0,0.0,0.0,0.0,0.0,0.0,0.0,0.0,0.0,0.0,0.0,0.0,0.0,0.0,0.0,0.5731,0.5518,0.5371,0.5309,0.5357,0.5411,0.5411,0.5941,0.6465,0.6987,0.7281,0.7081,0.6451,0.6831,0.6607,0.5914,0.6948,0.6782,0.5731,0.6197,0.6033,0.5411,0.5411,0.5531,0.5731,0.0,0.0,0.0,0.0,0.0,0.0,0.0,0.0,0.0,0.5309,0.5424,0.5625,0.5873,0.5745,0.5651,0.5981,0.6319,0.6594,0.6567,0.0,0.8833,0.9497,0.9473,0.9424,0.9888,0.9681,0.9654,1.06,0.0,0.0,0.0,0.0,0.0,0.0,0.0,0.0,0.0,0.0,0.0,0.0,0.0,0.0,0.0,0.0,0.0,0.0,0.875,0.8798,0.8906,0.8913,0.8913,0.8913,0.8866,0.8784,0.8682,0.8642,0.8777,0.9076,0.9178,0.9218,0.9225,0.9286,0.9279,0.9211,0.9062,0.9588,1.0248,0.9396,1.0532,1.2711,1.2779,1.3018,1.3426,0.0,0.0,0.0,0.0,0.0,0.0,0.0,0.0,0.0,0.0,1.0273,0.0,0.0,0.0,0.0,0.0,0.0,0.0,0.0,0.5678,0.5451,0.5451,0.5344,0.5309,0.5309,0.5779,0.6048,0.6065,0.66,0.6546,0.6021,0.6565,0.6472,0.5954,0.7062,0.6937,0.5941,0.6316,0.6041,0.5309,0.5309,0.5384,0.5558,0.0,0.0,0.0,0.0,0.0,0.0,0.0,0.0,0.0,0.5309,0.5558,0.5878,0.586,0.5887,0.5972,0.6386,0.6588,0.6742,0.7049,0.8226,0.9463,1.0275,0.0,0.0,0.0,0.9732,0.9743,1.0252,0.9452,0.0,0.0,0.0,0.0,0.0,0.0,0.0,0.0,0.0,0.0,0.0,0.0,0.0,0.0,0.0,0.0,0.0,0.8479,0.8526,0.8615,0.8621,0.8621,0.8621,0.8621,0.8574,0.8479,0.8479,0.8581,0.8764,0.8913,0.8981,0.8981,0.9076,0.9062,0.9078,0.9356,0.9976,1.0623,0.9785,1.1309,1.3741,1.3213,1.3741,1.4676,0.0,0.0,0.0,0.0,0.0,0.0,0.0,0.0,0.0,0.0,1.0273,1.0273,0.0,0.0,0.0,0.0,0.0,0.0,0.0,0.0,0.5678,0.5678,0.5424,0.5309,0.5309,0.5544,0.5544,0.5309,0.6106,0.6239,0.5718,0.6102,0.63,0.6347,0.678,0.6714,0.6279,0.6334,0.5951,0.5309,0.5309,0.5322,0.5344,0.5585,0.0,0.0,0.0,0.0,0.0,0.0,0.0,0.0,0.5309,0.5699,0.6048,0.5537,0.5793,0.6333,0.6809,0.6681,0.666,0.7768,0.8985,0.0,1.0028,1.0698,1.0931,0.9624,0.0,0.9037,0.8954,0.0,0.0,0.0,0.0,0.0,0.0,0.0,0.0,0.0,0.0,0.0,0.0,0.0,0.0,0.0,0.0,0.0,0.0,0.8438,0.8445,0.8465,0.8465,0.8465,0.8465,0.8465,0.8459,0.8438,0.8438,0.8438,0.8445,0.8615,0.8689,0.8689,0.8797,0.889,0.8976,1.0088,1.0638,1.0724,1.0534,1.2084,1.4445,1.3007,1.4129,1.6286,0.0,0.0,0.0,0.0,0.0,0.0,0.0,0.0,0.0,0.0,0.0,0.0,0.0,0.0,0.0,0.0,0.0,0.0,0.0,0.0,0.5371,0.5371,0.5349,0.5309,0.5309,0.5344,0.5376,0.5309,0.5691,0.5838,0.5731,0.648,0.6947,0.7179,0.8121,0.7874,0.684,0.6944,0.635,0.5309,0.5309,0.5411,0.5598,0.5438,0.5478,0.0,0.0,0.0,0.0,0.0,0.0,0.0,0.5309,0.5518,0.5825,0.5967,0.6263,0.6507,0.6544,0.7206,0.8034,0.8371,0.969,1.0468,0.9028,0.9538,1.0006,0.9096,0.9551,0.9899,0.9286,0.0,0.0,0.0,0.0,0.0,0.0,0.0,0.0,0.0,0.0,0.0,0.0,0.0,0.0,0.0,0.0,0.0,0.814,0.8133,0.8187,0.8316,0.8316,0.8316,0.8316,0.8316,0.8255,0.0,0.8133,0.8133,0.8147,0.8411,0.8533,0.8632,0.9572,1.0008,0.9989,1.1429,1.2598,1.3257,1.1205,1.2084,1.4242,1.1981,1.2802,1.4939,0.0,0.0,0.0,0.0,0.0,0.0,0.0,0.0,0.0,0.0,0.0,0.0,0.0,0.0,0.0,0.0,0.0,0.0,0.0,0.0,0.5424,0.5322,0.5309,0.5309,0.5309,0.5309,0.5309,0.5309,0.5438,0.5705,0.6079,0.672,0.7292,0.781,0.83,0.7941,0.7006,0.684,0.6193,0.5309,0.5309,0.5371,0.5491,0.5344,0.5371,0.5491,0.5331,0.0,0.0,0.0,0.0,0.0,0.0,0.0,0.5905,0.5806,0.6075,0.6428,0.6465,0.6921,0.7554,0.8462,0.0,0.9548,0.8909,0.8959,0.9043,0.8659,0.9076,0.9478,0.0,0.0,0.0,0.0,0.0,0.0,0.0,0.0,0.0,0.0,0.0,0.0,0.0,0.0,0.0,0.0,0.0,0.8126,0.8045,0.8038,0.8079,0.816,0.816,0.816,0.816,0.816,0.8119,0.8038,0.8038,0.8336,0.8931,0.918,0.9338,0.9511,1.0758,1.1263,1.1262,1.2573,1.3501,1.3986,1.2631,1.3281,1.4887,1.2982,1.348,1.517,0.0,0.0,0.0,0.0,0.0,0.0,0.0,0.0,0.0,0.0,0.0,0.0,0.0,0.0,0.0,0.0,0.0,0.0,0.0,0.0,0.0,0.5417,0.534,0.5309,0.5309,0.5309,0.5309,0.5309,0.5309,0.5814,0.6818,0.7128,0.7722,0.8514,0.8398,0.7894,0.7111,0.663,0.6032,0.5404,0.5404,0.5372,0.5309,0.5309,0.5309,0.5309,0.5309,0.5309,0.5309,0.5309,0.0,0.0,0.0,0.0,0.5941,0.5457,0.5726,0.6226,0.6363,0.6539,0.7001,0.8271,0.8504,0.0,0.9268,0.8864,0.847,0.8674,0.8857,0.0,0.0,0.0,0.0,0.0,0.0,0.0,0.0,0.0,0.0,0.0,0.0,0.0,0.0,0.0,0.0,0.0,0.0,0.8038,0.8038,0.8038,0.8038,0.8038,0.8038,0.8038,0.8038,0.8038,0.8038,0.8038,0.8237,0.8924,1.0002,1.0545,1.0804,1.075,1.1993,1.2511,1.2589,1.3773,1.4268,1.4172,1.3968,1.4663,1.5629,1.4076,1.4459,1.5737,0.0,0.0,0.0,0.0,0.0,0.0,0.0,0.0,0.0,0.0,1.0273,0.0,0.0,0.0,0.0,0.0,0.0,0.0,0.0,0.0,0.0,0.5842,0.5498,0.5309,0.5309,0.5309,0.5309,0.5309,0.5309,0.6229,0.8045,0.8346,0.8971,0.9861,0.9694,0.8917,0.7676,0.7187,0.6537,0.5828,0.5828,0.5609,0.5309,0.5309,0.5309,0.5309,0.5309,0.5309,0.5309,0.5309,0.5309,0.0,0.0,0.0,0.5416,0.5336,0.5726,0.6115,0.5772,0.7114,0.8554,0.0,0.9337,1.0366,0.0,0.0,0.8893,0.0,0.0,0.0,0.0,0.0,0.0,0.0,0.0,0.0,0.0,0.0,0.0,0.0,0.0,0.0,0.0,0.0,0.0,0.0,0.8038,0.8038,0.8038,0.8038,0.8038,0.8038,0.8038,0.8038,0.8038,0.8038,0.8038,0.8038,0.9213,0.9805,1.01,1.236,1.278,1.1737,1.3072,1.363,1.3727,1.5057,1.5534,1.5439,1.4364,1.4663,1.5534,1.3113,1.3692,1.5629,0.0,0.0,0.0,0.0,0.0,0.0,0.0,0.0,0.0,0.0,0.0,0.0,0.0,0.0,0.0,0.0,0.0,0.0,0.0,0.0,0.0,0.5921,0.5529,0.5309,0.5309,0.5438,0.5438,0.5309,0.5438,0.6739,0.9035,0.9128,0.9668,1.0507,1.1241,1.0289,0.8164,0.8419,0.7668,0.6229,0.6229,0.599,0.5669,0.5906,0.583,0.5701,0.6148,0.6305,0.6258,0.5792,0.5787,0.5902,0.5458,0.0,0.0,0.0,0.5497,0.5757,0.6023,0.67,0.7558,0.0,0.8961,0.9232,0.9349,0.9431,0.94,0.8752,0.0,0.0,0.0,0.0,0.0,0.0,0.0,0.0,0.0,0.0,0.0,0.0,0.0,0.0,0.0,0.0,0.0,0.0,0.7794,0.7794,0.7794,0.7794,0.7794,0.7794,0.7868,0.7875,0.7794,0.7875,0.83,0.9073,1.0219,1.1337,1.2231,1.3392,1.3584,1.3102,1.4364,1.4949,1.5045,1.5534,1.5832,1.5724,1.514,1.5343,1.5642,1.4472,1.4854,1.5737,0.0,0.0,0.0,0.0,0.0,0.0,0.0,0.0,0.0,0.0,0.0,0.0,0.0,0.0,0.0,0.0,0.0,0.0,0.0,0.0,0.0,0.6213,0.5828,0.5547,0.5467,0.5655,0.559,0.5309,0.5491,0.6775,0.9089,0.9524,1.022,1.1146,1.211,1.1306,0.9226,0.9675,0.8858,0.7312,0.7197,0.6768,0.6246,0.6526,0.6464,0.6293,0.7033,0.7298,0.7148,0.6432,0.6393,0.6496,0.5674,0.5384,0.0,0.0,0.0,0.5435,0.6069,0.0,0.668,0.7952,0.8301,0.8427,0.0,0.0,0.9846,0.0,0.0,0.0,0.0,0.0,0.0,0.0,0.0,0.0,0.0,0.0,0.0,0.0,0.0,0.0,0.0,0.0,0.0,0.0,0.7597,0.7597,0.7597,0.7597,0.7597,0.7597,0.7699,0.7706,0.7604,0.7984,0.8791,1.0112,1.1328,1.2549,1.3684,1.4063,1.4194,1.4361,1.5399,1.5832,1.5832,1.5832,1.5832,1.5832,1.5832,1.5832,1.5832,1.5832,1.5832,1.5832,0.0,0.0,0.0,0.0,0.0,0.0,0.0,0.0,0.0,0.0,0.0,0.0,1.0273,0.957,0.9203,0.9595,0.0,0.0,0.0,0.0,0.0,0.7077,0.6669,0.0,0.589,0.5874,0.5686,0.5309,0.5322,0.6102,0.7657,0.9343,1.0793,1.1842,1.1576,1.1488,1.1367,1.0605,0.9982,0.9481,0.9039,0.8123,0.7048,0.7065,0.7065,0.7098,0.7602,0.7789,0.7667,0.7138,0.696,0.6807,0.5944,0.5691,0.5638,0.0,0.0,0.0,0.5185,0.6275,0.0,0.6225,0.7555,0.9225,0.0,0.0,0.0,0.0,0.0,0.0,0.0,0.0,0.0,0.0,0.0,0.0,0.0,0.0,0.0,0.0,0.0,0.0,0.0,0.0,0.0,0.0,0.7597,0.7597,0.7597,0.7597,0.7597,0.7597,0.7604,0.7604,0.7597,0.8715,0.9815,1.1007,1.2301,1.295,1.3053,1.4359,1.506,1.5338,1.5617,1.5832,1.5832,1.5832,1.5832,1.5832,1.5832,1.5832,1.5832,1.5832,1.5832,1.5832,0.0,0.0,0.0,0.0,0.0,0.0,0.0,0.0,0.0,0.0,0.0,0.0,0.0,1.0,0.9766,0.9612,0.9004,0.0,0.0,0.0,0.0,0.7118,0.673,0.6305,0.5921,0.6339,0.6244,0.5672,0.6131,0.6888,0.8042,0.8666,0.9768,1.1285,1.3345,1.3277,1.1665,1.2763,1.1649,0.9352,1.0289,0.9588,0.8016,0.8836,0.8999,0.0,0.0,0.0,0.9598,0.8334,0.7895,0.7687,0.6575,0.6036,0.5752,0.5399,0.5411,0.5604,0.5748,0.0,0.0,0.7002,0.7348,0.7628,0.8094,0.9308,0.0,0.0,0.0,0.0,0.0,0.0,0.0,0.0,0.0,0.0,0.0,0.0,0.0,0.0,0.0,0.0,0.0,0.0,0.0,0.0,0.0,0.7709,0.7292,0.8147,0.8631,0.8462,0.9089,0.9508,0.9622,1.0741,1.1529,1.2227,1.3407,1.404,1.4308,1.4771,1.5017,1.5124,1.5231,1.5484,1.5818,1.5631,1.5658,1.5832,1.5832,1.5832,1.5832,1.5832,1.5832,1.5832,0.0,0.0,0.0,0.0,0.0,0.0,0.0,0.0,0.0,1.0194,0.0,0.0,0.0,0.0,0.9473,0.8989,0.8477,0.8027,0.7725,0.7432,0.7314,0.7314,0.7029,0.67,0.6305,0.675,0.6688,0.6091,0.669,0.7357,0.8063,0.8526,0.9454,1.0913,1.3482,1.3755,1.2324,1.3906,1.3086,1.0779,1.1528,1.0841,0.952,1.0568,0.0,0.0,0.0,0.0,0.0,0.0,0.8819,0.8202,0.7191,0.6488,0.5961,0.5621,0.5576,0.5731,0.5873,0.5785,0.0,0.6814,0.6747,0.6585,0.6954,0.0,0.0,0.0,0.0,0.0,0.0,0.0,0.0,0.0,0.0,0.0,0.0,0.0,0.0,0.0,0.0,0.0,0.0,0.0,0.0,0.0,0.0,0.0,0.7578,0.8914,0.9625,0.9388,0.9838,1.0504,1.1152,1.1861,1.2504,1.3213,1.4017,1.4482,1.4669,1.4669,1.4723,1.4803,1.471,1.5003,1.5524,1.5337,1.5418,1.5685,1.5685,1.5738,1.5832,1.5832,1.5832,1.5832,0.0,0.0,0.0,0.0,0.0,0.0,0.0,0.0,1.0175,0.967,0.0,0.0,0.0,0.0,0.0,0.7783,0.7725,0.7705,0.7705,0.7705,0.7705,0.7705,0.0,0.0,0.7118,0.7118,0.694,0.6518,0.6947,0.7315,0.7646,0.8887,0.9945,1.0757,1.1683,1.258,1.3437,1.3873,1.4048,1.3893,0.0,1.1929,1.1428,0.0,0.0,0.0,1.3138,1.2463,0.0,1.0714,0.0,0.0,0.0,0.0,0.0,0.0,0.0,0.5665,0.0,0.0,0.0,0.5357,0.5752,0.0,0.6169,0.0,0.9283,0.0,0.0,0.0,0.0,0.0,0.0,0.0,0.0,0.0,0.0,0.0,0.0,0.0,0.0,0.0,0.0,0.0,0.0,0.0,0.979,0.999,0.8547,0.9809,1.0494,1.0272,0.9978,1.0458,1.1934,1.1934,1.2659,1.4055,1.4055,1.4055,1.4055,1.4055,1.4215,1.4469,1.4188,1.4389,1.4923,1.495,1.5124,1.5391,1.5391,1.5565,1.5818,1.5832,1.5818,1.5818,0.0,0.0,0.0,0.0,0.0,0.0,1.0964,1.1145,1.1141,0.0,0.0,0.0,0.9631,0.916,0.8789,0.8672,0.8379,0.8066,0.7725,0.7705,0.7705,0.7705,0.7705,0.751,0.7118,0.7734,0.7673,0.694,0.7987,0.838,0.8197,0.8838,0.9096,0.9104,1.0586,1.1185,1.1309,1.3281,1.3173,1.1992,1.4141,1.342,0.0,0.0,0.0,0.0,0.0,1.2088,1.1274,0.0,1.0319,0.913,0.0,0.0,0.6754,0.0,0.0,0.6687,0.5595,0.0,0.0,0.0,0.0,0.0,0.5605,0.6613,0.7636,0.0,0.0,0.0,0.0,0.0,0.0,0.0,0.0,0.0,0.0,0.0,0.0,0.0,0.0,0.0,0.0,0.0,0.0,0.0,1.0688,1.0907,1.0076,1.1016,1.1688,1.2048,1.2159,1.2431,1.2827,1.2827,1.3039,1.3454,1.3454,1.3454,1.3454,1.3454,1.3494,1.3574,1.3494,1.3667,1.4041,1.4469,1.4816,1.511,1.5311,1.5444,1.5538,1.5752,1.5698,1.5551,0.0,0.0,0.0,0.0,0.0,1.2464,1.1125,1.1123,1.0999,0.0,0.0,0.0,0.9398,0.8984,0.875,0.875,0.8516,0.834,0.823,0.8105,0.8008,0.8008,0.7802,0.7675,0.7635,0.8149,0.8226,0.7879,0.8791,0.9141,0.8906,0.9336,0.9316,0.8945,0.9941,1.0234,1.0137,1.1992,0.0,0.0,1.4141,0.0,0.0,1.4751,1.4311,0.0,0.0,0.0,1.2243,1.1788,1.0798,0.0,0.0,0.0,0.0,0.0,0.0,0.7152,0.5985,0.6062,0.6317,0.5806,0.0,0.0,0.5504,0.6373,0.7241,0.0,0.0,0.0,0.0,0.0,0.0,0.0,0.0,0.0,0.0,0.0,0.0,0.0,0.0,0.0,0.0,1.0343,1.03,0.9917,1.095,1.1618,1.1672,1.1918,1.2245,1.2759,1.2799,1.2893,1.3013,1.3013,1.308,1.3213,1.3213,1.3213,1.3213,1.3213,1.3213,1.3213,1.3213,1.3307,1.3494,1.3961,1.4402,1.4803,1.4963,1.511,1.5244,1.5404,1.5431,1.5404,0.0,0.0,1.3502,1.2189,1.2218,1.213,1.1208,1.0679,1.0424,0.0,1.0552,1.0095,0.916,0.8789,0.8567,0.843,0.8489,0.8633,0.8926,0.8698,0.8513,0.8474,0.8068,0.8009,0.8395,0.8391,0.8555,0.8945,0.9359,0.9592,0.9612,1.0078,1.0059,0.9592,0.9651,0.0,0.9651,0.0,0.0,1.4414,1.3477,1.411,0.0,0.0,1.5491,1.4718,1.5968,1.4999,1.3044,1.2326,1.1148,0.0,0.0,0.0,0.0,0.0,0.7598,0.7469,0.6481,0.629,0.6317,0.6223,0.6012,0.0,0.5691,0.652,0.7446,0.7682,0.0,0.0,0.0,0.0,0.0,0.0,0.0,0.0,0.0,0.0,0.0,0.0,0.0,0.0,1.0911,1.0896,1.0651,0.9865,1.109,1.2221,1.3081,1.2639,1.2452,1.2768,1.2438,1.2412,1.2728,1.2728,1.2772,1.3013,1.3013,1.3026,1.3066,1.3066,1.308,1.3106,1.3106,1.3133,1.3173,1.344,1.3895,1.4429,1.4496,1.4683,1.4923,1.495,1.511,1.5271,0.0,1.3556,1.3213,1.2986,1.233,1.1795,1.1606,1.1193,1.12,1.2074,1.1797,1.0997,0.9646,0.9746,0.9528,0.8509,0.9004,0.9141,0.8535,0.9123,0.9264,0.8829,0.8817,0.868,0.8321,0.8388,0.845,0.8528,0.9258,0.9592,0.9612,1.0078,1.0059,0.9612,1.0,0.9961,0.9631,0.0,0.0,1.2832,1.3965,0.0,1.4141,1.5936,1.541,1.3862,1.4603,1.4032,1.2739,1.1869,1.1261,1.0726,0.0,0.0,0.0,0.7625,0.0,0.0,0.0,0.0,0.0,0.0,0.0,0.0,0.5571,0.5941,0.6465,0.0,0.0,0.0,0.0,0.0,0.0,0.0,0.0,0.0,0.0,0.0,0.0,0.0,0.0,0.0,1.1344,1.1722,1.1948,1.1776,1.2505,1.2936,1.2852,1.2795,1.2572,1.2398,1.2331,1.2211,1.211,1.211,1.1957,1.177,1.177,1.1904,1.2131,1.2131,1.2265,1.2478,1.2478,1.2612,1.2839,1.2893,1.328,1.3785,1.4335,1.4563,1.4629,1.487,1.4843,1.4723,1.3132,1.295,1.2738,1.2842,1.2424,1.1975,1.1741,1.1542,1.1579,1.2113,1.1726,1.127,1.0814,1.0545,1.0312,1.0148,1.0173,1.0173,1.0114,1.019,1.0165,0.9994,0.9871,0.9667,0.9351,0.9615,0.9726,0.9701,1.0092,1.0463,1.0683,1.0444,1.019,1.0011,1.0192,1.019,1.0011,0.0,1.1063,1.2353,1.3401,0.0,1.4629,1.6152,1.6055,1.508,1.4692,1.3439,1.1843,1.1652,1.1373,0.0,0.0,1.053,1.0319,0.0,0.8701,0.8898,0.0,0.0,0.0,0.7002,0.0,0.0,0.0,0.5981,0.6236,0.6384,0.0,0.0,0.0,0.0,0.0,0.0,0.0,0.0,0.0,0.0,0.0,0.0,0.0,0.0,1.0736,1.0779,1.0987,1.1125,1.1853,1.2318,1.2378,1.2171,1.2091,1.2091,1.1944,1.1797,1.165,1.165,1.157,1.1423,1.1423,1.1503,1.165,1.1797,1.1944,1.2091,1.2238,1.2385,1.2532,1.2755,1.3013,1.3467,1.3908,1.4082,1.4122,1.4416,1.4522,1.4609,1.2655,1.2509,1.2413,1.2627,1.2542,1.2347,1.2059,1.1977,1.1916,1.1869,1.1664,1.1708,1.2173,1.1297,1.1148,1.2301,1.1698,1.1452,1.19,1.1605,1.1355,1.1136,1.0893,1.0697,1.0513,1.0821,1.0996,1.102,1.102,1.1307,1.1763,1.0888,1.0456,1.053,1.0346,1.0406,1.0619,0.0,0.0,1.2453,0.0,1.3965,1.5176,1.6309,1.6621,1.6292,1.523,1.3349,1.1393,1.1898,1.1619,1.1059,1.137,1.0978,0.0,0.0,0.0,0.0,0.0,0.0,0.0,0.0,0.0,0.6841,0.0,0.0,0.0,0.6413,0.0,0.0,0.0,0.0,0.0,0.0,0.0,0.0,0.0,0.0,0.0,0.0,0.0,0.0,0.9688,0.9539,0.9646,1.0051,1.0853,1.1476,1.177,1.1557,1.153,1.1784,1.1557,1.1396,1.1343,1.1343,1.1316,1.1263,1.1263,1.1289,1.1356,1.165,1.181,1.1877,1.2171,1.2305,1.2318,1.2559,1.2966,1.3301,1.3427,1.3627,1.3748,1.4171,1.4514,1.4819,1.3619,1.3098,1.2571,1.3105,1.2828,1.2626,1.3055,1.2733,1.2413,1.2413,1.2781,1.3141,1.3357,1.2139,1.2118,1.414,1.3423,0.0,1.2354,0.0,1.2987,1.1345,1.152,1.1438,1.0939,1.0686,1.0719,1.1078,1.1078,1.1337,1.1785,1.1207,1.0922,1.0897,1.0485,1.0724,1.1496,0.0,1.2285,0.0,1.4116,1.4238,0.0,1.5957,1.625,1.5545,1.5314,1.4032,1.2543,0.0,1.2271,1.1305,0.0,1.0908,1.0372,0.9263,0.0,0.0,0.0,0.0,0.0,0.0,0.8203,0.0,0.0,0.0,0.6707,0.5959,0.0,0.0,0.0,0.0,0.0,0.0,0.0,0.0,0.0,0.0,0.0,0.0,0.0,0.0,0.0,0.8987,0.9695,1.0758,1.0969,1.1169,1.1463,1.145,1.1436,1.1476,1.145,1.1303,1.1049,1.1049,1.0915,1.0725,1.0725,1.0795,1.1049,1.1343,1.1623,1.1877,1.2171,1.2305,1.2305,1.2345,1.2875,1.3623,1.3338,1.3574,1.4169,1.4895,1.5323,1.5673,1.2956,1.2479,1.2214,1.3103,1.3348,1.3373,1.3263,1.3043,1.292,1.292,1.3092,1.3888,0.0,0.0,0.0,0.0,0.0,1.6318,0.0,0.0,1.4828,1.4747,1.3373,1.2497,1.2226,1.2143,1.2029,1.1931,1.1931,1.2154,1.2579,1.1505,1.102,1.1017,1.0538,0.0,1.1694,0.0,1.276,0.0,0.0,0.0,0.0,1.582,1.5869,1.5065,1.4749,1.3839,1.2806,0.0,1.2234,0.0,0.0,0.0,0.0,1.0279,0.0,0.0,0.0,0.0,0.0,0.0,0.0,0.0,0.7475,0.0,0.6466,0.0,0.0,0.0,0.0,0.0,0.0,0.0,0.5498,0.0,0.0,0.0,0.0,0.0,0.0,0.0,0.0,0.0,0.0,0.0,0.9886,1.01,1.0394,1.0742,1.0995,1.1169,1.1009,1.0862,1.0742,1.0915,1.0848,1.0631,1.0728,1.0782,1.0755,1.1049,1.1329,1.1623,1.1917,1.2144,1.2378,1.2879,1.3492,1.4037,1.4275,1.4774,1.5367,1.5889,1.63,1.6764,1.2826,1.2273,1.2102,1.3048,1.3559,1.3684,1.3273,1.3974,1.445,0.0,0.0,0.0,1.7982,1.7127,0.0,0.0,1.9775,1.9305,0.0,0.0,1.6525,0.0,0.0,0.0,0.0,1.3734,1.3358,1.2871,1.2937,1.2972,1.299,1.1799,1.1162,1.1072,1.0535,1.0825,1.1696,0.0,1.3263,1.4408,1.468,1.4961,1.5195,1.5703,1.5578,1.4963,1.458,1.3956,1.3263,1.2806,1.2562,0.0,1.2234,0.0,1.0755,0.0,0.0,0.0,0.9731,0.0,0.0,0.0,0.0,0.0,0.0,0.0,0.0,0.0,0.0,0.0,0.0,0.0,0.0,0.5609,0.0,0.5982,0.0,0.0,0.0,0.0,0.0,0.0,0.0,0.0,0.0,0.8657,0.8884,0.9165,0.9539,1.0127,1.0541,1.0742,1.0621,1.0618,1.0618,1.0848,1.0848,1.0631,1.0862,1.0835,1.0631,1.0862,1.1102,1.1329,1.1703,1.2128,1.2622,1.3418,1.4164,1.4877,1.5413,1.6114,1.6879,1.6954,1.7265,1.7763,1.3861,1.3026,1.2522,1.3098,1.3223,1.3223,1.3198,0.0,0.0,0.0,0.0,0.0,0.0,0.0,0.0,0.0,0.0,2.054,2.099,0.0,1.7991,0.0,0.0,1.4612,0.0,1.517,1.4401,1.3855,1.4008,1.3519,1.2508,1.2004,1.1505,1.0998,1.0505,1.0783,1.1665,1.291,1.3965,1.4919,1.6133,1.6387,1.6037,0.0,1.543,1.5371,1.5391,0.0,0.0,1.5041,1.3711,0.0,0.0,0.0,0.0,0.0,0.0,0.0,0.0,0.0,0.0,0.9438,0.0,0.0,0.0,0.0,0.7031,0.0,0.0,0.0,0.0,0.0,0.6438,0.6438,0.6148,0.0,0.0,0.0,0.0,0.0,0.0,0.0,0.0,0.6907,0.7428,0.8323,0.839,0.8657,0.9163,0.9806,1.014,1.014,1.0421,1.0618,1.0618,1.0848,1.0848,1.0631,1.0862,1.0835,1.0631,1.0862,1.0995,1.1035,1.1623,1.2431,1.3304,1.3618,1.4816,1.6507,1.6576,1.739,1.8479,1.8027,1.8037,1.8511,1.4628,1.396,1.3594,1.377,0.0,0.0,0.0,1.5595,0.0,0.0,0.0,0.0,0.0,2.3026,2.2902,0.0,0.0,2.4591,2.3634,2.2254,0.0,0.0,0.0,1.7497,0.0,0.0,0.0,1.431,1.4184,1.3867,1.3387,1.2306,1.1689,1.1505,1.0659,1.0802,0.0,0.0,0.0,0.0,0.0,1.5859,1.5293,0.0,1.5918,1.541,1.541,1.5235,0.0,1.4634,1.4183,1.3657,1.3614,1.3007,1.2258,1.201,1.1526,0.0,0.0,0.0,1.1829,1.0858,0.0,0.0,0.0,0.0,0.0,0.0,0.0,0.0,0.0,0.0,0.6999,0.7328,0.6981,0.6897,0.0,0.0,0.0,0.0,0.0,0.0,0.0,0.0,0.0,0.6908,0.7123,0.7281,0.7482,0.8791,0.9482,0.9482,1.0207,1.0618,1.0618,1.0848,1.0848,1.0631,1.0862,1.0835,1.0631,1.0661,1.1118,1.1819,1.2035,1.2841,1.4146,1.488,1.5705,1.6627,1.7285,1.7812,1.8212,1.8337,1.8784,1.9507,1.5273,1.4742,1.456,0.0,0.0,0.0,0.0,0.0,0.0,0.0,2.0425,0.0,2.5485,0.0,2.5602,0.0,2.6319,2.6499,2.5711,2.3568,0.0,2.4387,2.124,0.0,0.0,0.0,0.0,0.0,1.4913,1.4347,1.4254,1.26,1.1689,1.1468,1.0659,1.0508,1.0977,1.2598,1.3848,0.0,0.0,1.5723,0.0,0.0,1.5879,1.5625,0.0,1.541,1.5352,1.4961,1.4674,1.4495,1.4141,1.389,1.3587,1.3154,1.283,1.2603,1.229,1.2743,0.0,1.2321,1.2289,0.0,1.1182,0.0,0.0,0.0,0.0,0.0,0.0,0.0,0.8227,0.8227,0.7854,0.7652,0.0,0.7266,0.0,0.0,0.0,0.0,0.0,0.6025,0.5945,0.6182,0.6371,0.648,0.0,0.8176,0.9085,0.9085,1.0047,1.0618,1.0618,1.0848,1.0848,1.0631,1.0862,1.0835,1.0618,1.0618,1.1157,1.2093,1.2134,1.3152,1.4712,1.5588,1.626,1.6943,1.7726,1.8008,1.8066,1.8477,1.9082,1.9727,1.5924,1.5506,0.0,0.0,1.5892,0.0,0.0,0.0,2.2215,0.0,2.4517,2.5276,2.6401,2.6188,2.625,2.7037,2.6481,2.6383,2.7157,2.3367,0.0,0.0,2.1553,2.0395,2.2933,0.0,0.0,0.0,0.0,1.5067,1.5007,1.2889,1.1586,1.104,1.0564,0.0,0.9768,1.1992,1.3145,1.3672,1.5351,1.6017,1.5978,1.5098,1.5332,1.6096,1.5586,1.543,1.5508,1.5898,1.5264,1.4399,1.5115,1.4833,1.4263,1.4461,1.4492,1.456,1.4629,1.4396,1.4047,1.3566,1.3484,0.0,0.0,0.0,1.2149,0.0,0.0,0.0,0.0,0.0,0.0,0.9243,0.8748,0.8428,0.8406,0.0,0.7136,0.0,0.0,0.0,0.0,0.6016,0.6179,0.6215,0.6179,0.6327,0.0,0.797,0.8724,0.8804,0.9932,1.0551,1.0618,1.0873,1.0873,1.0631,1.0835,1.0822,1.0618,1.0618,1.1108,1.1856,1.2157,1.3314,1.4987,1.5685,1.6514,1.7422,1.7852,1.8008,1.8066,1.8477,1.8906,1.9258,1.7562,1.6729,1.6075,0.0,1.7428,1.8598,0.0,0.0,0.0,0.0,2.5563,2.7105,2.83,2.9674,2.9343,2.644,2.6966,0.0,0.0,0.0,0.0,2.7394,2.5971,2.4478,2.3036,2.277,0.0,1.8824,0.0,1.6727,1.5488,1.3714,1.2628,1.2031,1.1544,1.0902,1.0254,1.2422,1.3594,1.3984,1.4506,1.4859,1.5078,0.0,1.5527,1.6465,1.5684,1.5625,1.5859,1.5644,1.539,1.5214,1.5731,1.578,1.5489,1.4952,1.478,1.4652,1.3947,1.4405,1.5015,1.438,1.4826,1.52,0.0,0.0,0.0,0.0,0.0,0.0,0.0,0.0,0.0,1.091,1.0002,0.9079,0.0,0.0,0.0,0.7154,0.0,0.6387,0.6293,0.6116,0.6111,0.6386,0.6129,0.6195,0.0,0.0,0.7976,0.8778,0.9295,0.9897,1.0618,1.0606,1.0606,1.0618,1.0698,1.0698,1.0618,1.1233,1.1965,1.2704,1.3397,1.4459,1.585,1.6325,1.6876,1.7422,1.7852,1.8008,1.8066,1.8477,1.8711,1.8848,1.8613,0.0,0.0,1.5891,0.0,0.0,1.9384,0.0,0.0,2.5601,2.7191,0.0,2.8959,3.0719,3.0691,2.7806,2.7498,0.0,2.7207,0.0,0.0,2.8348,2.7218,2.5593,2.3458,2.3548,0.0,1.9071,0.0,1.7279,1.6172,1.4017,1.2773,1.2363,1.1671,1.0945,1.041,1.2383,1.3691,1.4394,1.446,1.4725,0.0,1.4863,1.5605,1.6641,1.5957,1.5859,1.6096,1.5781,1.5703,1.5762,1.6211,1.6484,1.6578,1.6116,1.5858,1.5657,1.5494,1.5688,1.6002,1.604,1.6458,1.6728,1.6027,1.588,1.5781,0.0,1.5078,1.4766,0.0,0.0,0.0,0.0,0.0,0.0,0.0,0.0,0.0,0.0,0.7794,0.7634,0.7101,0.6488,0.6308,0.664,0.6354,0.0,0.0,0.0,0.8034,0.867,0.994,1.0679,1.0843,1.1314,1.1525,1.1402,1.1402,1.1475,1.167,1.2151,1.2749,1.3554,1.4034,1.4818,1.582,1.6465,1.6875,1.7148,1.7773,1.8008,1.8047,1.8281,1.8359,1.8398,1.9411,0.0,0.0,0.0,0.0,0.0,0.0,2.3707,0.0,2.7957,0.0,2.9284,2.8924,3.0435,3.0939,2.9732,0.0,2.7433,2.8697,2.6185,2.5906,2.885,2.7042,2.541,2.4356,2.3753,2.2174,0.0,1.8412,1.7506,1.6888,1.4147,1.2783,1.2563,1.1593,0.0,0.0,1.2181,1.3469,1.4707,1.4763,1.4978,1.5215,1.5019,1.5684,1.668,1.6289,1.6152,1.6133,1.6076,1.6076,1.6133,1.6582,1.6992,1.7305,1.7363,1.707,1.6894,1.7637,1.7344,1.6992,1.7734,1.7969,1.791,1.7559,1.7422,1.7383,1.7383,1.6719,1.6035,0.0,0.0,0.0,0.0,0.0,0.0,0.0,0.0,0.0,0.0,0.0,0.0,0.7822,0.7017,0.6713,0.6998,0.6763,0.0,0.0,0.0,0.8503,0.8689,1.0958,1.1807,1.109,1.2307,1.2728,1.2376,1.2413,1.2603,1.3009,1.313,1.3554,1.4213,1.4332,1.4746,1.5469,1.6309,1.6719,1.6894,1.7695,1.8008,1.8008,1.8008,1.8076,1.8144,2.0872,0.0,0.0,0.0,0.0,2.2591,2.4596,2.7531,2.9323,2.8944,3.0114,3.052,2.9202,3.0495,3.0618,2.8686,2.8068,0.0,0.0,0.0,0.0,2.9553,2.8373,2.7143,2.6131,2.546,2.3758,2.0857,2.0338,1.9076,1.7016,1.5246,1.4136,1.3626,1.2933,0.0,1.3359,1.2321,0.0,1.4238,1.472,1.4653,1.4473,1.5469,1.6211,1.6719,1.6641,1.6621,1.6504,1.5762,1.5762,1.6133,1.6582,1.6777,1.6914,1.7285,1.707,1.6694,1.6914,1.7109,1.7305,1.7461,1.7754,1.7988,1.791,1.7637,1.7383,1.7383,1.6973,1.6582,1.6523,0.0,0.0,0.0,0.0,0.0,0.0,0.0,0.0,0.0,0.0,0.9464,0.7852,0.7273,0.7143,0.7515,0.0,0.0,0.0,0.0,0.8481,0.0,1.0343,0.0,0.0,0.0,1.2347,1.2269,1.2342,1.2603,1.3009,1.3674,1.4094,1.4273,1.4864,1.5294,1.5449,1.5977,1.6602,1.7324,1.7812,1.8008,1.8008,1.8008,1.8462,1.8977,0.0,0.0,0.0,0.0,0.0,0.0,0.0,3.0083,0.0,3.0113,3.0542,3.0615,2.9553,3.039,3.0489,2.9145,2.8503,2.84,2.9014,2.8247,2.8384,2.9729,2.8725,2.7193,2.5234,2.5184,2.3409,1.9891,2.0137,1.9138,1.7058,1.5287,1.4413,1.4327,1.3691,1.3717,0.0,0.0,0.0,1.4492,1.4984,1.5008,1.4883,1.5742,1.6348,1.6675,1.6675,1.6875,1.7012,1.6582,1.6426,1.6523,1.7187,1.7402,1.7441,1.7656,1.7402,1.7109,1.7344,1.7383,1.7441,1.7656,1.7871,1.8008,1.8008,1.7852,1.7715,1.7715,1.7363,1.6855,1.6172,1.5019,0.0,0.0,0.0,0.0,0.0,0.0,1.0781,0.0,0.0,0.0,0.0,0.0,0.0,0.0,0.0,0.0,0.0,0.0,0.8864,0.0,0.0,0.0,1.193,0.0,1.3606,1.3562,1.3625,1.3834,1.4273,1.4628,1.4805,1.4805,1.5235,1.541,1.5469,1.6133,1.6797,1.7422,1.7852,1.8279,1.8643,1.8643,1.9243,1.9814,0.0,2.3973,0.0,0.0,2.605,0.0,2.8516,3.1698,3.3323,3.1246,3.0859,3.0583,3.003,3.0256,3.0234,2.9707,2.8984,2.88,2.9301,2.8831,2.8784,2.9377,2.8574,2.7042,2.4757,2.4782,2.3101,1.956,1.9881,1.9156,1.739,1.5523,1.4676,1.4716,0.0,0.0,0.0,0.0,1.4434,1.4941,1.5273,1.541,1.5449,1.5801,1.6211,1.6602,1.6699,1.6953,1.7266,1.7461,1.7227,1.6992,1.7656,1.7871,1.7891,1.7988,1.7715,1.748,1.7891,1.7773,1.7598,1.793,1.8008,1.8008,1.8008,1.7949,1.791,1.7988,1.7754,1.7148,1.5918,1.5273,0.0,0.0,0.0,0.0,0.0,0.0,0.0,0.0,0.0,0.0,0.9278,0.0,0.0,0.0,0.0,0.0,0.8783,0.0,0.0,0.0,0.0,1.2665,1.2712,0.0,1.4576,1.4754,1.4807,1.5,1.541,1.541,1.541,1.541,1.541,1.541,1.5469,1.6269,1.686,1.7407,1.7922,1.8634,1.9424,1.953,2.0139,2.0782,0.0,0.0,0.0,0.0,0.0,0.0,3.1622,3.1885,3.2018,3.2021,3.1637,3.111,3.0583,3.0131,2.9732,2.9314,2.9476,2.9122,2.7874,2.8941,2.9227,2.8298,2.8172,2.7745,2.6992,2.5561,2.4008,0.0,2.1317,2.0003,1.8447,1.7044,1.5676,1.4433,0.0,0.0,0.0,1.4277,1.4609,1.5352,1.5391,1.541,1.541,1.5449,1.5742,1.6172,1.6582,1.6758,1.6914,1.7695,1.7676,1.7344,1.7422,1.7441,1.7519,1.7891,1.7715,1.748,1.7891,1.7988,1.7949,1.8008,1.8008,1.8008,1.8008,1.7715,1.7559,1.793,1.7988,1.7676,1.6777,1.5918,1.4992,0.0,0.0,0.0,0.0,0.0,1.2228,1.0508,0.0,0.0,0.9726,0.909,0.8833,0.0,0.8539,0.0,0.0,0.0,0.0,1.139,1.1597,1.1856,1.2183,1.3143,1.4012,1.4682,1.4792,1.5,1.541,1.541,1.541,1.541,1.541,1.541,1.5449,1.5937,1.6558,1.7282,1.8197,1.8977,1.9714,2.0284,2.1037,2.1753,0.0,0.0,0.0,0.0,0.0,0.0,0.0,3.2715,3.254,3.1342,3.1336,3.1185,3.0683,3.0131,2.9757,2.9578,2.9681,2.9555,2.8941,2.9429,2.9428,2.8624,2.8273,2.7695,2.6816,2.5485,2.423,0.0,0.0,1.9799,1.8916,1.7664,1.6763,0.0,0.0,1.5563,1.5725,1.515,1.5098,1.541,1.541,1.541,1.5449,1.5703,1.6074,1.6523,1.6973,1.7285,1.7559,1.7891,1.7734,1.7422,1.7676,1.7754,1.7793,1.7949,1.7891,1.7793,1.7969,1.8008,1.7949,1.7695,1.7812,1.7949,1.7695,1.7695,1.7812,1.7969,1.7812,1.7598,1.7519,1.6562,1.5801,1.5642,0.0,0.0,0.0,0.0,0.0,1.192,0.0,1.2009,1.1411,1.0253,0.981,1.0276,0.0,0.0,0.0,0.0,0.0,1.1133,0.0,1.2503,1.3697,1.3792,1.4443,1.5548,1.5274,1.5391,1.5801,1.5527,1.541,1.541,1.541,1.541,1.5449,1.6416,1.6956,1.7336,1.8736,1.9767,2.0572,2.1167,2.1939,2.2641,3.6776,0.0,3.3873,0.0,3.4873,3.4013,3.3101,3.3252,3.2672,3.0496,3.0767,3.0959,3.0432,3.003,2.9731,2.9606,2.9757,2.958,2.9198,2.958,2.9453,2.8725,2.8473,0.0,2.6967,2.5862,2.4781,2.3779,2.1809,0.0,0.0,1.8063,0.0,0.0,1.6926,1.6553,1.6308,1.5841,1.5527,1.541,1.541,1.5488,1.5644,1.5937,1.6348,1.6797,1.7227,1.7578,1.7852,1.7969,1.7812,1.7617,1.791,1.8008,1.8008,1.8008,1.8008,1.8008,1.8008,1.8008,1.7949,1.7637,1.7695,1.7773,1.7598,1.7695,1.7871,1.7988,1.7773,1.7578,1.7617,1.6875,1.6336,1.6382,0.0,0.0,0.0,1.3199,0.0,1.2715,1.2465,1.2395,1.2628,1.1422,1.0841,1.1442,0.0,0.0,0.0,0.0,0.0,0.0,0.0,0.0,1.4413,1.4214,1.4727,1.5859,1.5684,1.5703,1.5859,1.5547,1.5547,1.5781,1.5939,1.5938,1.6036,1.7311,1.783,1.8021,1.9569,2.0647,2.1439,2.2055,2.2641,2.3065,4.0068,4.0307,4.0277,4.0307,3.8898,3.6921,3.4347,3.3348,3.1937,2.951,3.0012,3.0407,2.9854,2.9804,2.9631,2.9229,2.9578,2.9198,2.7747,2.8966,2.9302,0.0,0.0,2.8649,2.8097,2.6992,2.5912,2.4743,0.0,0.0,2.0169,0.0,1.7409,1.7036,1.7272,1.6939,1.6115,1.6115,1.5801,1.541,1.541,1.5664,1.6115,1.6115,1.6348,1.6797,1.7227,1.7383,1.7461,1.7871,1.8008,1.8008,1.8008,1.8008,1.8008,1.8008,1.8008,1.8008,1.8008,1.8008,1.8008,1.8008,1.7695,1.75,1.791,1.7695,1.75,1.793,1.8008,1.7734,1.6894,1.6675,1.6274,1.5137,0.0,0.0,0.0,1.331,0.0,1.2423,1.2291,1.2517,1.3033,1.2283,0.0,0.0,0.0,0.0,0.0,0.0,0.0,1.2946,1.2146,0.0,1.3573,1.3918,1.457,1.543,1.584,1.584,1.541,1.541,1.5879,1.668,1.7181,1.7269,1.7273,1.8674,1.9425,1.9698,2.0747,2.1628,2.2372,2.2865,2.3065,2.3065,3.6447,3.8182,3.9439,3.8512,3.8077,3.7043,3.4775,3.3593,3.2175,2.9859,2.9858,2.998,2.9804,2.9804,2.9705,0.0,2.952,2.9288,0.0,2.9288,2.9036,2.8122,2.7544,2.6816,2.5887,2.5159,2.4431,2.3616,0.0,0.0,0.0,1.843,1.7761,1.8051,1.7636,1.6894,1.6115,1.6115,1.5801,1.543,1.5742,1.5998,1.6194,1.6738,1.7051,1.7227,1.7656,1.7812,1.7832,1.7969,1.8008,1.8008,1.8008,1.8008,1.8008,1.8008,1.8008,1.8008,1.8008,1.8008,1.7949,1.7656,1.7695,1.7773,1.7617,1.7695,1.7852,1.7988,1.7773,1.7578,1.7598,1.6875,1.6336,1.6341,1.5716,0.0,1.449,0.0,1.38,1.3248,1.2934,1.3191,1.4169,1.2943,0.0,0.0,0.0,0.0,0.0,0.0,0.0,0.0,1.337,0.0,1.5302,1.5428,1.5879,1.6758,1.6602,1.6445,1.6309,1.6309,1.6755,1.7554,1.7777,1.7943,1.8209,1.9518,1.9885,1.9754,2.1329,2.2064,2.2372,2.2924,2.3065,2.3065,3.7195,3.8542,3.9439,3.8362,3.7895,3.7085,3.5211,3.3753,3.2155,3.0351,2.9961,2.9804,2.9804,2.9804,0.0,2.9804,2.9578,2.9525,2.9754,2.9349,2.8988,2.8725,2.767,2.6766,2.6063,2.531,0.0,2.3778,2.2675,2.1715,2.0819,1.9404,1.8765,1.8868,1.8121,1.7372,1.6543,1.6272,1.6237,1.6377,1.6537,1.6961,1.7574,1.7772,1.7986,1.8101,1.8045,1.8008,1.8008,1.8008,1.8008,1.8008,1.8008,1.8008,1.8008,1.8008,1.8008,1.8008,1.8008,1.8008,1.7949,1.7695,1.7695,1.7715,1.7441,1.7715,1.8008,1.8008,1.7793,1.7598,1.7539,1.6855,1.6314,1.6396,1.5821,1.5231,1.4793,0.0,1.3986,0.0,0.0,0.0,0.0,1.4234,1.4165,0.0,0.0,0.0,0.0,0.0,0.0,1.3777,1.4172,1.4865,1.586,1.6176,1.6582,1.7129,1.7173,1.7302,1.7443,1.7595,1.8175,1.8992,1.8929,1.8991,1.9229,2.0553,2.0824,2.0458,2.1998,2.2623,2.2673,2.294,2.3065,2.3065,4.0756,4.0576,4.0098,0.0,3.8302,0.0,3.5753,3.402,3.2289,3.0802,3.0194,2.9856,2.9804,2.9804,2.9804,2.9804,0.0,0.0,0.0,2.9277,2.9177,2.9654,2.8599,2.7946,2.7821,2.6841,2.5837,2.4833,2.2844,2.1877,2.1877,2.0974,2.0117,1.9291,1.8891,1.8297,1.7421,1.6631,1.6982,1.8023,1.7658,1.8463,1.9851,1.9019,1.8975,1.9309,1.8395,1.8076,1.8076,1.8008,1.8008,1.8008,1.8008,1.8008,1.8008,1.8008,1.8008,1.8008,1.8008,1.8008,1.8008,1.8008,1.7715,1.7422,1.7422,1.7734,1.8008,1.8008,1.8008,1.7773,1.6973,1.6714,1.6403,1.5644,1.5449,1.5117,1.4312,1.4235,1.3972,0.0,0.0,0.0,1.3983,1.5845,1.648,0.0,0.0,0.0,0.0,0.0,1.3739,1.4504,1.486,1.5285,1.5704,1.6496,1.688,1.7007,1.7781,1.8364,1.8765,1.9183,1.9839,2.0606,2.0487,2.0366,2.0342,2.165,2.1945,2.1594,2.2673,2.304,2.3065,2.3065,2.3065,2.3065,0.0,0.0,3.914,3.7464,3.8153,3.827,3.6178,3.5453,3.4212,3.1414,3.0935,3.062,2.9856,2.9804,2.9804,2.9804,2.95,2.9494,2.9806,2.942,2.8908,2.8499,2.7444,2.6264,2.5008,2.5134,2.5084,2.4833,2.2844,2.1877,2.1877,2.0974,2.0325,1.978,2.0045,1.9412,1.8224,1.8354,1.8386,1.8422,1.8607,1.9171,1.9958,2.0087,2.0158,2.0204,1.9309,1.8977,1.8911,1.8192,1.8008,1.8008,1.8008,1.8008,1.8008,1.8008,1.8008,1.8008,1.8008,1.8008,1.8008,1.8008,1.793,1.7871,1.7871,1.793,1.8008,1.8008,1.8008,1.7949,1.7734,1.7168,1.6597,1.6445,1.5859,1.5288,1.4899,1.4779,1.46,0.0,1.4424,1.4673,1.4887,1.6087,1.6619,0.0,0.0,0.0,1.6664,1.7116,1.7151,1.6706,1.668,1.703,1.7883,1.8382,1.9038,1.9683,1.9874,2.0045,2.0156,2.0236,2.054,2.0932,2.0878,2.074,2.0672,2.1387,2.1594,2.1568,2.2246,2.2774,2.3065,2.3065,2.3065,2.3065,3.6806,3.8153,3.899,3.7614,3.8003,3.8012,3.6457,3.5601,3.4299,3.2128,3.1462,3.082,2.9934,2.9804,2.9804,2.9804,2.9579,2.9553,2.9754,2.9071,2.8635,2.8473,2.7193,2.6163,2.5511,2.5059,2.4556,2.3992,2.2997,2.2457,2.2457,2.1978,2.1401,2.0811,2.0857,2.0373,1.9441,1.9261,1.9522,2.0062,2.0049,2.0591,2.1327,2.126,2.1164,2.1101,2.0204,1.9879,1.9748,1.8911,1.8844,1.9044,1.8279,1.8529,1.911,1.8731,1.8327,1.8008,1.8008,1.8008,1.8008,1.8008,1.8008,1.8008,1.8008,1.8008,1.8008,1.8008,1.8008,1.7949,1.7754,1.7187,1.666,1.6465,1.592,1.5442,1.5122,1.5037,1.4985,1.4784,1.4997,1.5362,1.5825,1.7324,1.802,1.7523,1.8635,0.0,1.8291,1.8863,1.879,1.7912,1.823,1.8707,1.9228,1.9641,2.0139,2.059,2.0974,2.1164,2.1227,2.1604,2.1834,2.197,2.1666,2.1543,2.1443,2.1744,2.187,2.192,2.2472,2.2874,2.3065,2.3065,2.3305,2.3662,3.9978,3.9559,3.8931,3.8332,3.7793,3.7195,3.6567,3.5272,3.3991,3.2975,3.2092,3.1193,3.0139,2.9935,2.9858,2.9779,2.9704,2.9654,2.9654,2.8775,2.8373,2.8674,2.7344,2.6691,2.6917,2.5385,2.413,2.3276,2.3115,2.3065,2.3065,2.3065,2.2763,2.2039,2.1644,2.1219,2.0814,2.0067,2.0591,2.192,2.1524,2.2089,2.3005,2.231,2.2063,2.1939,2.1101,2.0782,2.0655,1.9814,2.0009,2.0333,1.8844,1.9441,2.0462,1.9683,1.8977,1.8395,1.8395,1.8259,1.8144,1.8008,1.8008,1.8008,1.8008,1.8008,1.8008,1.8008,1.8008,1.791,1.7539,1.7135,1.6727,1.6394,1.6063,1.5774,1.5552,0.0,1.5531,1.5447,1.5909,1.6392,1.6878,1.8895,1.9989,1.9419,2.0415,2.0797,2.0161,2.0242,1.9927,1.9114,1.9727,2.012,2.0211,2.0579,2.0846,2.0974,2.1753,2.2063,2.2125,2.2823,2.31,2.2915,2.2523,2.2272,2.2196,2.2196,2.2246,2.2372,2.2942,2.3229,2.3305,2.3424,2.3872,2.4452,3.8691,3.8182,3.7674,3.7584,3.7494,3.7195,3.6567,3.6253,3.5524,3.4031,3.3671,3.2876,3.1193,3.0551,3.0203,2.9831,2.9352,2.9076,2.9076,2.89,2.8423,2.757,2.7293,2.654,2.5234,2.4004,2.3552,2.3853,2.3376,2.3065,2.3065,2.3065,2.3005,2.2944,2.287,2.2536,2.2046,2.1897,2.1981,2.2247,2.2172,2.253,2.3065,2.2944,2.2884,2.2823,2.2002,2.169,2.1565,2.0719,2.0462,2.0526,2.0268,2.0398,2.059,2.0462,2.0268,2.0204,2.0204,1.9683,1.8911,1.8212,1.8008,1.8008,1.8008,1.8008,1.8008,1.8008,1.8008,1.7988,1.793,1.7745,1.7595,1.7513,1.7027,1.6819,1.7375,0.0,1.7211,1.7137,1.8342,1.8846,1.7856,2.0098,2.1578,2.1523,2.2258,2.2689,2.2571,2.2614,2.233,2.17,2.1176,2.104,2.1549,2.1643,2.2063,2.2702,2.2884,2.2884,2.2944,2.3065,2.2874,2.2447,2.2347,2.2046,2.1619,2.1619,2.1895,2.238,2.3062,2.366,2.4163,2.4824,2.5106,2.5245,3.7943,3.7614,3.7315,3.6956,3.6926,3.6686,3.6058,3.5968,3.5489,3.4138,3.3533,3.2735,3.1315,3.0537,2.9883,2.9327,2.9076,2.8674,2.8072,2.8323,2.8122,2.7318,2.6992,2.6214,2.4858,2.4305,2.3879,2.3527,2.3276,2.3065,2.3065,2.3065,2.3065,2.3065,2.3065,2.294,2.2749,2.2749,2.2749,2.2749,2.2749,2.2899,2.3065,2.3065,2.3065,2.3065,2.2702,2.258,2.2433,2.1542,2.1604,2.1791,2.091,2.1227,2.1854,2.1416,2.0974,2.059,2.059,2.0532,2.0137,1.8972,1.8914,1.9083,1.8771,1.8731,1.8731,1.8731,1.9044,1.9243,1.8798,1.8596,1.8599,1.8859,1.8092,0.0,1.8661,1.8471,1.8386,1.8884,1.9508,2.0087,2.0466,2.1619,2.2678,2.3438,2.3567,2.3602,2.3602,2.3301,2.2965,2.2774,2.2307,2.225,2.2555,2.2874,2.3207,2.3602,2.3602,2.3602,2.3602,2.3276,2.294,2.2749,2.2749,2.2598,2.2372,2.2834,2.3134,2.3425,2.4195,2.4664,2.4964,2.53,2.5687,2.6042,3.7285,3.7075,3.6806,3.6357,3.6267,3.6088,3.5579,3.5294,3.4839,3.4109,3.3157,3.2236,3.1315,3.0441,2.9631,2.8976,2.8825,2.8323,2.7344,2.767,2.767,2.7118,2.6565,2.5812,2.4833,2.4707,2.413,2.3065,2.3065,2.3065,2.3065,2.3065,2.3065,2.3065,2.3065,2.3065,2.3065,2.3065,2.3065,2.3065,2.3065,2.3065,2.3065,2.3065,2.3065,2.3065,2.3065,2.3065,2.3005,2.2372,2.258,2.2884,2.1604,2.2063,2.3005,2.2372,2.169,2.1164,2.0974,2.1183,2.1192,1.99,1.9895,2.0154,1.9852,1.9788,1.9788,1.9788,2.0314,2.0531,1.977,1.9563,1.9704,2.0091,0.0,1.8907,1.9927,1.9631,1.9593,2.0297,2.0684,2.1323,2.2591,2.3135,2.3798,2.4893,2.4607,2.4381,2.4381,2.3828,2.3527,2.3527,2.3401,2.3401,2.3466,2.3979,2.418,2.418,2.4054,2.4004,2.3979,2.3401,2.3065,2.3125,2.3305,2.3365,2.3424,2.4221,2.4567,2.4624,2.5356,2.5687,2.5687,2.5823,2.6369,2.7079,3.6567,3.6058,3.5639,3.5579,3.5579,3.5579,3.5519,3.4706,3.4081,3.4013,3.3157,3.2236,3.1315,3.0645,2.9991,2.9001,2.8473,2.7921,2.7318,2.7318,2.7092,2.6609,2.5963,2.5385,2.4833,2.433,2.3753,2.3065,2.3065,2.3065,2.3065,2.3065,2.3065,2.3065,2.3065,2.3065,2.3065,2.3065,2.3065,2.3065,2.3065,2.3065,2.3065,2.3065,2.3065,2.3065,2.3065,2.3065,2.3065,2.3005,2.3065,2.3065,2.2944,2.3005,2.3065,2.3005,2.2944,2.2763,2.2002,2.1839,2.1675,2.0719,2.0549,2.0683,2.1173,2.1263,2.1263,2.1263,2.1263,2.1194,2.0616,2.0703,2.0902,2.0925,0.0,0.0,2.1287,2.1337,2.123,2.095,2.2567,2.3441,2.2791,2.4337,2.5419,2.5536,2.5511,2.5485,2.5485,2.4983,2.4682,2.4682,2.4205,2.418,2.4682,2.4732,2.4757,2.4757,2.4255,2.4004,2.3979,2.3401,2.3065,2.3125,2.3897,2.4221,2.4279,2.5021,2.5356,2.5412,2.6122,2.639,2.6496,2.7203,2.7876,2.8465,3.5968,3.5669,3.5519,3.5519,3.5519,3.5294,3.4677,3.4245,3.3808,3.3227,3.2307,3.1476,3.0791,2.9995,2.9094,2.7971,2.772,2.7369,2.6816,2.6766,2.6691,2.6533,2.5912,2.5511,2.531,2.4431,2.3904,2.3678,2.3301,2.3065,2.3065,2.3065,2.3065,2.3065,2.3065,2.3065,2.3065,2.3065,2.3065,2.3065,2.3065,2.3065,2.3065,2.3065,2.3065,2.3065,2.3065,2.3065,2.3065,2.3065,2.3065,2.3065,2.3065,2.3065,2.314,2.3577,2.3427,2.308,2.3183,2.3219,2.2872,2.1698,2.1672,2.1859,2.1742,2.1719,2.1719,2.1719,2.2424,2.2807,2.2057,2.2462,2.2936,2.328,0.0,2.2397,2.2975,2.305,2.3005,2.2874,2.3841,2.4503,2.4476,2.5137,2.5737,2.6113,2.5787,2.546,2.5134,2.4607,2.4481,2.4808,2.4933,2.4933,2.4833,2.5653,2.5884,2.5521,2.5845,2.5795,2.5362,2.4776,2.4567,2.454,2.4851,2.4964,2.5077,2.5797,2.6068,2.6204,2.7331,2.7823,2.7883,2.8614,2.8996,2.9265,3.5579,3.5519,3.5519,3.5519,3.5519,3.5133,3.4177,3.4013,3.3533,3.2307,3.1609,3.0961,3.0251,2.9401,2.8549,2.762,2.7394,2.7042,2.6559,2.6289,2.6264,2.6508,2.5912,2.5586,2.5586,2.4556,2.4004,2.4004,2.3427,2.3065,2.3065,2.3065,2.3065,2.3065,2.3065,2.3065,2.3065,2.3065,2.3065,2.3065,2.3065,2.3065,2.3065,2.3065,2.3065,2.3065,2.3065,2.3065,2.3065,2.3065,2.3065,2.3065,2.3065,2.3251,2.3452,2.3653,2.3577,2.3452,2.3678,2.3728,2.3504,2.253,2.2539,2.2756,2.2625,2.2698,2.2844,2.2844,2.3726,2.424,2.3466,2.385,2.4381,2.4757,2.418,2.3803,2.4205,2.4104,2.4004,2.4004,2.433,2.4782,2.531,2.5511,2.5837,2.6483,2.6088,2.5711,2.536,2.5217,2.5294,2.5702,2.6297,2.6492,2.6129,2.6816,2.7046,2.6872,2.7324,2.7152,2.6514,2.5964,2.5577,2.5412,2.5632,2.5742,2.5797,2.678,2.7015,2.698,2.839,2.8786,2.8667,2.9325,2.9714,2.9924,3.5519,3.5519,3.5519,3.5519,3.5519,3.5133,3.4177,3.4013,3.3296,3.1462,3.1167,3.082,2.9908,2.9252,2.8699,2.8147,2.7595,2.7042,2.6559,2.5912,2.5862,2.6508,2.5912,2.5586,2.5586,2.4556,2.4004,2.4004,2.3427,2.3065,2.3065,2.3065,2.3065,2.3065,2.3065,2.3065,2.3065,2.3065,2.3065,2.3065,2.3065,2.3065,2.3065,2.3065,2.3065,2.3065,2.3065,2.3065,2.3065,2.3065,2.3065,2.3065,2.3065,2.3527,2.3879,2.3301,2.3552,2.3879,2.3301,2.3065,2.3065,2.3065,2.3065,2.3276,2.3853,2.4406,2.4808,2.4808,2.5234,2.5435,2.4933,2.4833,2.4833,2.4833,2.4833,2.4833,2.4833,2.4356,2.4029,2.4004,2.4029,2.423,2.4782,2.531,2.5837,2.6483,2.6533,2.6508,2.6508,2.7297,2.7736,2.7736,2.8556,2.9002,2.9002,2.8168,2.8168,2.8975,2.8429,2.7848,2.7179,2.663,2.6021,2.5467,2.6176,2.6525,2.6635,2.8047,2.8218,2.776,2.9056,2.9175,2.8697,2.9355,2.9983,3.0522,3.5519,3.5519,3.5519,3.5519,3.5519,3.5133,3.4177,3.4013,3.3155,3.093,3.0613,2.996,2.8268,2.7871,2.783,2.7841,2.7207,2.671,2.6533,2.6289,2.6088,2.5862,2.5335,2.5059,2.5059,2.4356,2.4004,2.4004,2.3427,2.3065,2.3065,2.3065,2.3065,2.3065,2.3065,2.3065,2.3065,2.3065,2.3065,2.3065,2.3065,2.3065,2.3065,2.3065,2.3065,2.3065,2.3065,2.3065,2.3065,2.3065,2.3065,2.3065,2.3065,2.319,2.3452,2.3678,2.3577,2.3452,2.3678,2.3452,2.3065,2.3065,2.3065,2.3175,2.3351,2.3527,2.3753,2.4155,2.4682,2.5109,2.5335,2.5711,2.5963,2.5963,2.5963,2.5837,2.5435,2.5561,2.5586,2.5159,2.5485,2.5787,2.5963,2.6113,2.6332,2.6508,2.6668,2.6765,2.6765,2.7551,2.8056,2.8056,2.8656,2.9317,2.9875,2.9628,2.9205,2.8535,2.9,2.8817,2.8174,2.7501,2.7671,2.8316,2.8089,2.8231,2.8729,2.9152,2.9175,2.9056,2.9894,3.0103,3.0013,3.0702,3.1061,3.121,3.5519,3.5519,3.5519,3.5519,3.5519,3.5133,3.4177,3.4312,3.3675,3.1189,3.111,3.0538,2.8646,2.8267,2.8195,2.8381,2.7799,2.7471,2.7471,2.7262,2.687,2.6295,2.5639,2.5192,2.4833,2.4054,2.3879,2.433,2.3527,2.319,2.3477,2.3477,2.3351,2.309,2.3376,2.3351,2.3065,2.3065,2.3065,2.3065,2.3065,2.3065,2.3065,2.3065,2.3065,2.3065,2.3065,2.3065,2.3065,2.3065,2.3065,2.3065,2.3065,2.3301,2.3502,2.3627,2.3577,2.3552,2.3904,2.3577,2.3201,2.3427,2.3301,2.3065,2.3065,2.324,2.3653,2.4205,2.4757,2.5285,2.5837,2.6214,2.6533,2.6533,2.6533,2.6339,2.5988,2.6038,2.5988,2.5636,2.5711,2.6022,2.6627,2.6384,2.6392,2.696,2.7485,2.7722,2.7722,2.8574,2.9003,2.9003,2.9614,3.0269,3.0777,3.0777,3.0397,2.955,3.0119,3.0013,2.9355,2.8936,2.9056,2.9564,2.9175,2.9205,2.9594,2.9834,2.9804,2.9684,3.0552,3.0731,3.0582,3.127,3.1482,3.1482,3.5519,3.5519,3.5519,3.5519,3.5519,3.5198,3.4245,3.4905,3.4633,3.2068,3.2194,3.1952,3.044,2.976,2.9389,2.9581,2.9274,2.9066,2.9002,2.854,2.7958,2.7317,2.6627,2.5887,2.5065,2.3876,2.3739,2.4721,2.375,2.3523,2.3929,2.3966,2.3689,2.309,2.3678,2.3627,2.3065,2.3185,2.3185,2.3125,2.3185,2.3125,2.3065,2.3065,2.3125,2.3185,2.3185,2.3245,2.3305,2.3305,2.3305,2.3305,2.3305,2.3659,2.3988,2.3457,2.3685,2.4151,2.4151,2.3735,2.3482,2.3963,2.3761,2.3432,2.3271,2.3649,2.4204,2.4746,2.525,2.5711,2.6339,2.6533,2.6533,2.6533,2.6533,2.6533,2.6533,2.6013,2.5728,2.5794,2.5391,2.5588,2.6956,2.6362,2.6488,2.7829,2.8702,2.924,2.9295,3.0107,3.0563,3.0563,3.122,3.1571,3.1571,3.1511,3.1452,3.1392,3.1392,3.112,3.0492,3.0432,3.0193,2.9744,2.9684,2.9684,2.9804,3.0372,3.0253,2.9894,3.1061,3.115,3.0672,3.1243,3.1482,3.1482,3.5519,3.5519,3.5519,3.5519,3.5519,3.5424,3.5198,3.5359,3.483,3.3111,3.2511,3.1895,3.0951,2.9761,2.9582,3.0736,3.0301,2.9752,2.9066,2.8864,2.8595,2.7986,2.7837,2.7434,2.6761,2.5368,2.4588,2.438,2.4731,2.4332,2.3326,2.3961,2.385,2.309,2.3276,2.319,2.3125,2.378,2.3662,2.3125,2.378,2.3662,2.3065,2.3065,2.3484,2.4073,2.4073,2.4394,2.4881,2.4881,2.4881,2.4881,2.4881,2.4989,2.507,2.4935,2.4989,2.5097,2.5097,2.5371,2.5619,2.5179,2.5724,2.5991,2.4432,2.4151,2.4543,2.5475,2.5307,2.5285,2.6289,2.6533,2.6533,2.6533,2.6533,2.6533,2.6533,2.6408,2.6536,2.7155,2.7117,2.7485,2.8493,2.8366,2.861,2.947,3.027,3.0911,3.1518,3.2332,3.2792,3.2792,3.2437,3.2287,3.2287,3.1721,3.127,3.0731,3.0731,3.0642,3.0492,3.0013,3.0283,3.1091,3.0522,3.0612,3.112,3.127,3.124,3.115,3.1362,3.1392,3.133,3.1422,3.1482,3.1482,3.5519,3.5519,3.5519,3.5519,3.5519,3.5519,3.5519,3.5519,3.5121,3.3927,3.342,3.2786,3.2103,3.1095,3.0706,3.1275,3.1072,3.0718,3.0208,3.0208,2.9921,2.9318,2.8936,2.8509,2.7936,2.7115,2.6339,2.5689,2.5794,2.5429,2.4557,2.5025,2.4834,2.4221,2.4426,2.44,2.4221,2.4681,2.4567,2.4221,2.4681,2.4567,2.4221,2.4221,2.4452,2.4851,2.4851,2.5077,2.5412,2.5412,2.5412,2.5412,2.5412,2.5412,2.5412,2.5412,2.5412,2.5522,2.6102,2.6325,2.6465,2.6685,2.7281,2.7312,2.5265,2.5256,2.5909,2.6385,2.6454,2.668,2.7512,2.767,2.767,2.767,2.767,2.767,2.767,2.767,2.7868,2.8233,2.8298,2.8492,2.8939,3.0035,3.0659,3.0567,3.1666,3.2452,3.2805,3.3238,3.3484,3.3484,3.3155,3.2826,3.2527,3.2168,3.1659,3.1001,3.1001,3.1001,3.1001,3.0672,3.0881,3.1452,3.115,3.121,3.1482,3.1482,3.1482,3.1482,3.1482,3.1482,3.1482,3.1482,3.1482,3.1482,3.5519,3.5519,3.5519,3.5519,3.5519,3.5519,3.5519,3.5519,3.531,3.4711,3.4303,3.3926,3.355,3.2825,3.209,3.1513,3.1482,3.1482,3.1482,3.1482,3.127,3.0702,3.0074,2.9574,2.9116,2.8899,2.8225,2.7079,2.689,2.6525,2.61,2.6214,2.5938,2.5412,2.5852,2.5825,2.5412,2.5522,2.5522,2.5412,2.5577,2.5522,2.5412,2.5412,2.5467,2.5577,2.5577,2.5659,2.5797,2.5797,2.5797,2.5797,2.5797,2.5797,2.5797,2.5797,2.5797,2.6021,2.7143,2.7228,2.7172,2.8183,2.8683,2.8452,2.6552,2.6805,2.7474,2.7555,2.788,2.8346,2.8892,2.9002,2.9002,2.9002,2.9002,2.903,2.914,2.9058,2.9149,2.947,2.9687,2.9722,2.961,3.1448,3.2436,3.182,3.2936,3.3724,3.3844,3.3844,3.3844,3.3844,3.3724,3.3395,3.2856,3.2736,3.2407,3.1869,3.1869,3.175,3.1689,3.1511,3.1541,3.1631,3.1511,3.1482,3.1482,3.1482,3.1482,3.1482,3.1482,3.1482,3.1482,3.1482,3.1482,3.1482,3.5519,3.5519,3.5519,3.5519,3.5519,3.5519,3.5519,3.5519,3.5459,3.537,3.4857,3.4579,3.5115,3.4044,3.2825,3.1601,3.1482,3.1482,3.1482,3.1482,3.1422,3.139,3.1275,3.1185,3.1093,3.0499,2.9013,2.6594,2.773,2.735,2.5522,2.6127,2.6099,2.5412,2.5494,2.5467,2.5467,2.6068,2.596,2.5467,2.6068,2.596,2.5412,2.5412,2.5797,2.6336,2.6336,2.6759,2.7306,2.7306,2.7306,2.7306,2.7306,2.7306,2.7306,2.7306,2.7306,2.7454,2.8225,2.8788,2.9203,2.9381,3.0238,3.0741,2.9377,2.8645,2.8398,2.8913,2.8609,2.8346,2.8892,2.9002,2.9002,2.9002,2.9002,2.9168,2.9758,2.9398,2.9708,3.1575,3.2416,3.2672,3.2109,3.2855,3.3543,3.4017,3.423,3.4592,3.519,3.522,3.522,3.522,3.4651,3.4292,3.4203,3.3634,3.3335,3.3215,3.3215,3.2946,3.2377,3.1721,3.1839,3.2347,3.1779,3.1482,3.1482,3.1482,3.1482,3.1482,3.1482,3.1482,3.1482,3.1482,3.1482,3.1482,3.5519,3.5519,3.5519,3.5519,3.5519,3.5519,3.5519,3.5519,3.5519,3.5519,3.4891,3.4592,3.4891,3.3754,3.2557,3.1571,3.1482,3.1302,3.1001,3.133,3.1302,3.0971,3.133,3.1302,3.0971,3.0672,2.955,2.7659,2.83,2.7906,2.6654,2.6967,2.6916,2.6654,2.6654,2.6654,2.6654,2.6997,2.6916,2.6654,2.6967,2.6916,2.6654,2.6654,2.6811,2.71,2.71,2.7306,2.761,2.761,2.761,2.761,2.761,2.761,2.7649,2.8038,2.7859,2.7889,2.9295,2.9624,2.9744,3.0492,3.1091,3.1332,3.0791,3.0416,3.0129,2.9984,3.0017,3.0131,3.0332,3.0678,3.0971,3.0971,3.129,3.1608,3.1898,3.1695,3.1849,3.2809,3.33,3.3395,3.3095,3.3664,3.4173,3.4442,3.4831,3.519,3.5489,3.5519,3.5519,3.5519,3.522,3.4861,3.4472,3.4203,3.3873,3.3484,3.3484,3.3335,3.3036,3.2377,3.2437,3.3036,3.2377,3.2078,3.2078,3.2078,3.1869,3.1482,3.1482,3.1739,3.2221,3.3005,3.3045,3.2648]},{"header":{"parameterUnit":"m.s-1","parameterCategory":1,"la1":30.6,"la2":28.766,"lo1":-90.7593,"lo2":-88.6598,"dy":0.0162,"dx":0.0183,"nx":116,"ny":114,"refTime":"2023-10-13T12:00:00:Z","depth":0,"parameterNumber":3,"parameterNumberName":"V-component_of_WINDS"},"data":[0.0,0.0,0.0,0.0,0.0,0.0,0.0,0.0,0.0,0.0,0.0,0.0,0.0,0.0,0.0,0.0,0.0,0.0,0.0,0.0,0.0,0.0,0.0,0.0,0.0,0.0,0.0,0.0,0.0,0.0,0.0,0.0,0.0,0.0,0.0,0.0,0.0,0.0,0.0,0.0,0.0,0.0,0.0,0.0,0.0,0.0,0.0,0.0,0.0,0.0,0.0,0.0,0.0,0.0,0.0,0.0,0.0,0.0,0.0,0.0,0.0,0.0,0.0,0.0,0.0,0.0,0.0,0.0,0.0,0.0,0.0,0.0,0.0,0.0,0.0,0.0,0.0,0.0,0.0,0.0,0.0,0.0,0.0,0.0,0.0,0.0,0.0,0.0,0.0,0.0,0.0,0.0,0.0,0.0,0.0,0.0,0.0,0.0,0.0,0.0,0.0,0.0,0.0,0.0,0.0,0.0,0.0,0.0,0.0,0.0,0.0,0.0,0.0,0.0,0.0,0.0,0.0,0.0,0.0,0.0,0.0,0.0,0.0,0.0,0.0,0.0,0.0,0.0,0.0,0.0,0.0,0.0,0.0,0.0,0.0,0.0,0.0,0.0,0.0,0.0,0.0,0.0,0.0,0.0,0.0,0.0,0.0,0.0,0.0,0.0,0.0,0.0,0.0,0.0,0.0,0.0,0.0,0.0,0.0,0.0,0.0,0.0,0.0,0.0,0.0,0.0,0.0,0.0,0.0,0.0,0.0,0.0,0.0,0.0,0.0,0.0,0.0,0.0,0.0,0.0,0.0,0.0,0.0,0.0,0.0,0.0,0.0,0.0,0.0,0.0,0.0,0.0,0.0,0.0,0.0,0.0,0.0,0.0,0.0,0.0,0.0,0.0,0.0,0.0,0.0,0.0,0.0,0.0,0.0,0.0,0.0,0.0,0.0,0.0,0.0,0.0,0.0,0.0,0.0,0.0,0.0,0.0,0.0,0.0,0.0,0.0,0.0,0.0,0.0,0.0,0.0,0.0,0.0,0.0,0.0,0.0,0.0,0.0,0.0,0.0,0.0,0.0,0.0,0.0,0.0,0.0,0.0,0.0,0.0,0.0,0.0,0.0,0.0,0.0,0.0,0.0,0.0,0.0,0.0,0.0,0.0,0.0,0.0,0.0,0.0,0.0,0.0,0.0,0.0,0.0,0.0,0.0,0.0,0.0,0.0,0.0,0.0,0.0,0.0,0.0,0.0,0.0,0.0,0.0,0.0,0.0,0.0,0.0,0.0,0.0,0.0,0.0,0.0,0.0,0.0,0.0,0.0,0.0,0.0,0.0,0.0,0.0,0.0,0.0,0.0,0.0,0.0,0.0,0.0,0.0,0.0,0.0,0.0,0.0,0.0,0.0,0.0,0.0,0.0,0.0,0.0,0.0,0.0,0.0,0.0,0.0,0.0,0.0,0.0,0.0,0.0,0.0,0.0,0.0,0.0,0.0,0.0,0.0,0.0,0.0,0.0,0.0,0.0,0.0,0.0,0.0,0.0,0.0,0.0,0.0,0.0,0.0,0.0,0.0,0.0,0.0,0.0,0.0,0.0,0.0,0.0,0.0,0.0,0.0,0.0,0.0,0.0,0.0,0.0,0.0,0.0,0.0,0.0,0.0,0.0,0.0,0.0,0.0,0.0,0.0,0.0,0.0,0.0,0.0,0.0,0.0,0.0,0.0,0.0,0.0,0.0,0.0,0.0,0.0,0.0,0.0,0.0,0.0,0.0,0.0,0.0,0.0,0.0,0.0,0.0,0.0,0.0,0.0,0.0,0.0,0.0,0.0,0.0,0.0,0.0,0.0,0.0,0.0,0.0,0.0,0.0,0.0,0.0,0.0,0.0,0.0,0.0,0.0,0.0,0.0,0.0,0.0,0.0,0.0,0.0,0.0,0.0,0.0,0.0,0.0,0.0,0.0,0.0,0.0,0.0,0.0,0.0,0.0,0.0,0.0,0.0,0.0,0.0,0.0,0.0,0.0,0.0,0.0,0.0,0.0,0.0,0.0,0.0,0.0,0.0,0.0,0.0,0.0,0.0,0.0,0.0,0.0,0.0,0.0,0.0,0.0,0.0,0.0,0.0,0.0,0.0,0.0,0.0,0.0,0.0,0.0,0.0,0.0,0.0,0.0,0.0,0.0,0.0,0.0,0.0,0.0,0.0,0.0,0.0,0.0,0.0,0.0,0.0,0.0,0.0,0.0,0.0,0.0,0.0,0.0,0.0,0.0,0.0,0.0,0.0,0.0,0.0,0.0,0.0,0.0,0.0,0.0,0.0,0.0,0.0,0.0,0.0,0.0,0.0,0.0,0.0,0.0,0.0,0.0,0.0,0.0,0.0,0.0,0.0,0.0,0.0,0.0,0.0,0.0,0.0,0.0,0.0,0.0,0.0,0.0,0.0,0.0,0.0,0.0,0.0,0.0,0.0,0.0,0.0,0.0,0.0,0.0,0.0,0.0,0.0,0.0,0.0,0.0,0.0,0.0,0.0,0.0,0.0,0.0,0.0,0.0,0.0,0.0,0.0,0.0,0.0,0.0,0.0,0.0,0.0,0.0,0.0,0.0,0.0,0.0,0.0,0.0,0.0,0.0,0.0,0.0,0.0,0.0,0.0,0.0,0.0,0.0,0.0,0.0,0.0,0.0,0.0,0.0,0.0,0.0,0.0,0.0,0.0,0.0,0.0,0.0,0.0,0.0,0.0,0.0,0.0,0.0,0.0,0.0,0.0,0.0,0.0,0.0,0.0,0.0,0.0,0.0,0.0,0.0,0.0,0.0,0.0,0.0,0.0,0.0,0.0,0.0,0.0,0.0,0.0,0.0,0.0,0.0,0.0,0.0,0.0,0.0,0.0,0.0,0.0,0.0,0.0,0.0,0.0,0.0,0.0,0.0,0.0,0.0,0.0,0.0,0.0,0.0,0.0,0.0,0.0,0.0,0.0,0.0,0.0,0.0,0.0,0.0,0.0,0.0,0.0,0.0,0.0,0.0,0.0,0.0,0.0,0.0,0.0,0.0,0.0,0.0,0.0,0.0,0.0,0.0,0.0,0.0,0.0,0.0,0.0,0.0,0.0,0.0,0.0,0.0,0.0,0.0,0.0,0.0,0.0,0.0,0.0,0.0,0.0,0.0,0.0,0.0,0.0,0.0,0.0,0.0,0.0,0.0,0.0,0.0,0.0,0.0,0.0,0.0,0.0,0.0,0.0,0.0,0.0,0.0,0.0,0.0,0.0,0.0,0.0,0.0,0.0,0.0,0.0,0.0,0.0,0.0,0.0,0.0,0.0,0.0,0.0,0.0,0.0,0.0,0.0,0.0,0.0,0.0,0.0,0.0,0.0,0.0,0.0,0.0,0.0,0.0,0.0,0.0,0.0,0.0,0.0,0.0,0.0,0.0,0.0,0.0,0.0,0.0,0.0,0.0,0.0,0.0,0.0,0.0,0.0,0.0,0.0,0.0,0.0,0.0,0.0,0.0,0.0,0.0,0.0,0.0,0.0,0.0,0.0,0.0,0.0,0.0,0.0,0.0,0.0,0.0,0.0,0.0,0.0,0.0,0.0,0.0,0.0,0.0,0.0,0.0,0.0,0.0,0.0,0.0,0.0,0.0,0.0,0.0,0.0,0.0,0.0,0.0,0.0,0.0,0.0,0.0,0.0,0.0,0.0,0.0,0.0,0.0,0.0,0.0,0.0,0.0,0.0,0.0,0.0,0.0,0.0,0.0,0.0,0.0,0.0,0.0,0.0,0.0,0.0,0.0,0.0,0.0,0.0,0.0,0.0,0.0,0.0,0.0,0.0,0.0,0.0,0.0,0.0,0.0,0.0,0.0,0.0,0.0,0.0,0.0,0.0,0.0,0.0,0.0,0.0,0.0,0.0,0.0,0.0,0.0,0.0,0.0,0.0,0.0,0.0,0.0,0.0,0.0,0.0,0.0,0.0,0.0,0.0,0.0,0.0,0.0,0.0,0.0,0.0,0.0,0.0,0.0,0.0,0.0,0.0,0.0,0.0,0.0,0.0,0.0,0.0,0.0,0.0,0.0,0.0,0.0,0.0,0.0,0.0,0.0,0.0,0.0,0.0,0.0,0.0,0.0,0.0,0.0,0.0,0.0,0.0,0.0,0.0,0.0,0.0,0.0,0.0,0.0,0.0,0.0,0.0,0.0,0.0,0.0,0.0,0.0,0.0,0.0,0.0,0.0,0.0,0.0,0.0,0.0,0.0,0.0,0.0,0.0,0.0,0.0,0.0,0.0,0.0,0.0,0.0,0.0,0.0,0.0,0.0,0.0,0.0,0.0,0.0,0.0,0.0,0.0,0.0,0.0,0.0,0.0,0.0,0.0,0.0,0.0,0.0,0.0,0.0,0.0,0.0,0.0,0.0,0.0,0.0,0.0,0.0,0.0,0.0,0.0,0.0,0.0,0.0,0.0,0.0,0.0,0.0,0.0,0.0,0.0,0.0,0.0,0.0,0.0,0.0,0.0,0.0,0.0,0.0,0.0,0.0,0.0,0.0,0.0,0.0,0.0,0.0,0.0,0.0,0.0,0.0,0.0,0.0,0.0,0.0,0.0,0.0,0.0,0.0,0.0,0.0,0.0,0.0,0.0,0.0,0.0,0.0,0.0,0.0,0.0,0.0,0.0,0.0,0.0,0.0,0.0,0.0,0.0,0.0,0.0,0.0,0.0,0.0,0.0,0.0,0.0,0.0,0.0,0.0,0.0,0.0,0.0,0.0,0.0,0.0,0.0,0.0,0.0,0.0,0.0,0.0,0.0,0.0,0.0,0.0,0.0,0.0,0.0,0.0,0.0,0.0,0.0,0.0,0.0,0.0,0.0,0.0,0.0,0.0,0.0,0.0,0.0,0.0,0.0,0.0,0.0,0.0,0.0,0.0,0.0,0.0,0.0,0.0,0.0,0.0,0.0,0.0,0.0,0.0,0.0,0.0,0.0,0.0,0.0,0.0,0.0,0.0,0.0,0.0,0.0,0.0,0.0,0.0,0.0,0.0,0.0,0.0,0.0,0.0,0.0,0.0,0.0,0.0,0.0,0.0,0.0,0.0,0.0,0.0,0.0,0.0,0.0,0.0,0.0,0.0,0.0,0.0,0.0,0.0,0.0,0.0,0.0,0.0,0.0,0.0,0.0,0.0,0.0,0.0,0.0,0.0,0.0,0.0,0.0,0.0,0.0,0.0,0.0,0.0,0.0,0.0,0.0,0.0,0.0,0.0,0.0,0.0,0.0,0.0,0.0,0.0,0.0,0.0,0.0,0.0,0.0,0.0,0.0,0.0,0.0,0.0,0.0,0.0,0.0,0.0,0.0,0.0,0.0,0.0,0.0,0.0,0.0,0.0,0.0,0.0,0.0,0.0,0.0,0.0,0.0,0.0,0.0,0.0,0.0,0.0,0.0,0.0,0.0,0.0,0.0,0.0,0.0,0.0,0.0,0.0,0.0,0.0,0.0,0.0,0.0,0.0,0.0,0.0,0.0,0.0,0.0,0.0,0.0,0.0,0.0,0.0,0.0,0.0,0.0,0.0,0.0,0.0,0.0,0.0,0.0,0.0,0.0,0.0,0.0,0.0,0.0,0.0,0.0,0.0,0.0,0.0,0.0,0.0,0.0,0.0,0.0,0.0,0.0,0.0,0.0,0.0,0.0,0.0,0.0,0.0,0.0,0.0,0.0,0.0,0.0,0.0,0.0,0.0,0.0,0.0,0.0,0.0,0.0,0.0,0.0,0.0,0.0,0.0,0.0,0.0,0.0,0.0,0.0,0.0,0.0,0.0,0.0,0.0,0.0,0.0,0.0,0.0,0.0,0.0,0.0,0.0,0.0,0.0,0.0,0.0,0.0,0.0,0.0,0.0,0.0,0.0,0.0,0.0,0.0,0.0,0.0,0.0,0.0,0.0,0.0,0.0,0.0,0.0,0.0,0.0,0.0,0.0,0.0,0.0,0.0,0.0,0.0,0.0,0.0,0.0,0.0,0.0,0.0,0.0,0.0,0.0,0.0,0.0,0.0,0.0,0.0,0.0,0.0,0.0,0.0,0.0,0.0,0.0,0.0,-2.5716,0.0,0.0,0.0,0.0,0.0,0.0,0.0,0.0,0.0,0.0,0.0,0.0,0.0,0.0,0.0,0.0,0.0,0.0,0.0,0.0,0.0,0.0,0.0,0.0,0.0,0.0,0.0,0.0,0.0,0.0,0.0,0.0,0.0,0.0,0.0,0.0,0.0,0.0,-2.7063,-2.8085,-2.8338,-2.7949,-2.7949,-2.7649,-2.7111,0.0,0.0,0.0,0.0,0.0,0.0,0.0,0.0,0.0,0.0,0.0,0.0,0.0,0.0,0.0,0.0,0.0,0.0,0.0,0.0,0.0,0.0,0.0,0.0,0.0,0.0,0.0,0.0,0.0,0.0,0.0,0.0,0.0,0.0,0.0,0.0,0.0,0.0,0.0,0.0,0.0,0.0,0.0,0.0,0.0,0.0,0.0,0.0,0.0,0.0,0.0,0.0,0.0,0.0,0.0,0.0,0.0,0.0,0.0,0.0,0.0,0.0,0.0,0.0,0.0,0.0,0.0,0.0,0.0,0.0,0.0,-2.766,0.0,0.0,0.0,0.0,0.0,0.0,0.0,0.0,0.0,0.0,0.0,0.0,0.0,0.0,0.0,0.0,0.0,0.0,0.0,0.0,0.0,0.0,0.0,-2.3276,-2.3265,-2.3366,-2.2924,-2.2573,0.0,0.0,0.0,0.0,0.0,0.0,0.0,-2.7424,-2.8248,-2.9235,-2.9564,-3.0193,-3.1031,-3.127,-3.0582,-2.9146,-2.9684,0.0,0.0,0.0,0.0,0.0,0.0,0.0,0.0,0.0,0.0,0.0,0.0,0.0,0.0,0.0,0.0,0.0,0.0,0.0,0.0,0.0,0.0,0.0,0.0,0.0,0.0,0.0,0.0,0.0,0.0,0.0,0.0,0.0,0.0,0.0,0.0,0.0,0.0,0.0,0.0,0.0,0.0,0.0,0.0,0.0,0.0,0.0,0.0,0.0,0.0,0.0,0.0,0.0,0.0,0.0,0.0,0.0,0.0,0.0,0.0,0.0,0.0,0.0,-3.4351,-3.4588,-3.4377,-3.5179,-3.5348,-3.5037,-3.5835,-3.3844,-3.0091,0.0,0.0,0.0,0.0,0.0,0.0,0.0,0.0,0.0,0.0,0.0,0.0,0.0,0.0,0.0,0.0,0.0,0.0,0.0,0.0,0.0,0.0,-2.3879,-2.4079,-2.4556,-2.4104,-2.3552,-2.299,0.0,0.0,0.0,0.0,0.0,-2.7458,-2.8106,-2.8248,-2.788,-2.9535,-3.133,-3.3125,-3.4292,-3.5011,-3.519,-3.2467,-3.1958,-3.3036,0.0,0.0,0.0,0.0,0.0,0.0,0.0,0.0,0.0,0.0,0.0,0.0,0.0,0.0,0.0,0.0,0.0,0.0,0.0,0.0,0.0,0.0,0.0,0.0,0.0,0.0,0.0,0.0,0.0,0.0,0.0,0.0,0.0,0.0,0.0,0.0,0.0,0.0,0.0,0.0,0.0,-2.6064,-2.7266,0.0,0.0,0.0,0.0,0.0,0.0,0.0,0.0,0.0,0.0,0.0,0.0,0.0,-3.3463,-3.4336,-3.7491,-3.841,-3.7185,-4.0943,-4.2398,-4.1745,-4.2552,-4.3667,-4.4974,-4.4355,0.0,-3.54,-3.3506,0.0,0.0,0.0,0.0,0.0,0.0,0.0,0.0,0.0,0.0,0.0,0.0,0.0,0.0,0.0,0.0,0.0,0.0,0.0,0.0,0.0,-2.428,-2.4682,-2.5209,-2.6189,-2.6138,-2.4607,-2.6498,0.0,0.0,0.0,-2.8068,-2.8158,-2.8457,-2.9355,-3.0911,-3.3245,-3.522,-3.6836,-3.7793,-3.8601,-3.917,-3.7734,-3.6357,-3.507,-3.3698,0.0,0.0,0.0,0.0,0.0,0.0,0.0,0.0,0.0,0.0,0.0,0.0,0.0,0.0,0.0,0.0,0.0,0.0,0.0,0.0,0.0,0.0,0.0,0.0,0.0,0.0,0.0,0.0,0.0,0.0,0.0,0.0,0.0,0.0,0.0,0.0,0.0,0.0,0.0,-2.6704,-2.9232,-2.8245,-3.0898,-3.1455,0.0,0.0,0.0,0.0,0.0,0.0,0.0,0.0,0.0,-3.5584,-3.7245,-3.8605,-3.9465,-4.2466,-4.4075,-4.4323,-4.626,-4.724,-4.7394,-4.8202,-4.9009,-4.974,-4.9817,-4.8106,-4.4841,-4.0454,-3.7401,-3.5398,0.0,0.0,0.0,0.0,-3.2091,-3.2928,0.0,0.0,0.0,0.0,0.0,0.0,0.0,0.0,0.0,0.0,0.0,0.0,-2.4506,-2.5234,-2.6038,-2.6992,-2.8348,-2.8323,-2.6364,-2.8027,-2.8255,-2.6321,-2.7482,-2.8338,-2.8846,-2.9355,-3.112,-3.4262,-3.6896,-3.896,-4.0457,-4.1265,-4.2013,-4.2641,-4.2462,-4.0666,-3.7644,-3.6118,-3.4757,-3.3666,0.0,0.0,0.0,0.0,0.0,0.0,0.0,0.0,0.0,0.0,0.0,0.0,0.0,0.0,0.0,0.0,0.0,0.0,0.0,0.0,0.0,0.0,0.0,0.0,0.0,0.0,0.0,0.0,0.0,0.0,0.0,0.0,0.0,0.0,0.0,0.0,0.0,-2.9093,-3.1485,-2.9466,-3.3195,-3.4426,0.0,0.0,0.0,0.0,0.0,0.0,-3.6334,-3.8235,-3.9618,-4.0342,-4.243,-4.4039,-4.5112,-4.7146,-4.8933,-5.0356,-5.0356,-5.0818,-5.1702,-5.2279,-5.2702,-5.2933,-5.3549,-5.3356,-5.2164,-4.6624,-4.2508,-3.9623,-3.9392,-3.8277,-3.6801,-3.6865,-3.7294,-3.783,0.0,0.0,0.0,0.0,0.0,0.0,0.0,0.0,0.0,0.0,0.0,-2.3954,-2.6088,-2.7293,-2.88,-3.0909,-3.0281,-2.9252,-2.8047,-2.804,-2.7561,-2.6408,-2.8411,-2.9505,-2.9535,-3.136,-3.3634,-3.6327,-3.896,-4.1265,-4.321,-4.4466,-4.5424,-4.6052,-4.5394,-4.3629,-4.0995,-3.902,-3.7849,-3.7094,-3.5146,0.0,0.0,0.0,0.0,0.0,0.0,0.0,0.0,0.0,0.0,0.0,0.0,0.0,0.0,0.0,0.0,0.0,0.0,0.0,0.0,0.0,0.0,0.0,0.0,0.0,0.0,0.0,0.0,0.0,0.0,0.0,0.0,0.0,0.0,0.0,0.0,0.0,0.0,-3.1264,-3.7248,0.0,0.0,0.0,0.0,-3.7177,-3.7909,-3.9546,-4.2145,-4.3177,-4.4883,-4.7491,-4.8491,-4.9798,-5.1413,-5.1567,-5.2125,-5.301,-5.301,-5.3472,-5.4318,-5.4357,-5.478,-5.5511,-5.5549,-5.5126,-5.401,-4.9663,-4.774,-4.7201,-4.4085,-4.3239,-4.3585,-4.203,-4.2992,-4.4739,0.0,0.0,0.0,0.0,0.0,0.0,0.0,0.0,-2.3721,-2.3185,-2.4464,-2.6,-2.7389,-2.9126,-3.0984,-3.2842,-3.3621,-3.3244,-3.1436,-3.1167,-3.0283,-2.8447,-2.8361,-2.9086,-3.0791,-3.3634,-3.6357,-3.899,-4.1624,-4.3718,-4.5304,-4.6172,-4.7105,-4.7926,-4.7681,-4.7163,-4.6366,-4.3673,-4.1124,-3.8865,-3.8307,-3.6548,0.0,0.0,0.0,0.0,0.0,0.0,0.0,0.0,0.0,0.0,0.0,0.0,0.0,0.0,0.0,0.0,0.0,0.0,0.0,0.0,0.0,0.0,0.0,0.0,0.0,0.0,0.0,0.0,0.0,0.0,0.0,0.0,0.0,0.0,0.0,0.0,0.0,-3.6791,-4.0708,0.0,-3.9593,-4.0575,-4.0997,-4.0156,-4.2967,-4.5132,-4.611,-4.8029,-4.9528,-5.051,-5.2433,-5.3472,-5.3587,-5.5203,-5.5626,-5.4818,-5.5395,-5.5511,-5.528,-5.5857,-5.5972,-5.5742,-5.628,-5.6049,-5.5164,-5.3626,-5.201,-5.0394,-4.8663,-4.8163,-4.8355,-4.774,-4.8086,-4.8663,0.0,0.0,0.0,0.0,0.0,0.0,0.0,0.0,-2.4063,-2.4223,-2.6171,-2.8014,-2.9292,-3.1596,-3.3649,-3.5127,-3.5956,-3.5177,-3.2441,-3.2251,-3.1058,-2.8255,-2.9058,-3.0702,-3.3155,-3.6447,-3.932,-4.1713,-4.3928,-4.5574,-4.6681,-4.7709,-4.8546,-4.9182,-4.9809,-5.0184,-5.0378,-4.8668,-4.5659,-4.1946,-4.1123,-3.9237,-3.647,0.0,0.0,0.0,0.0,0.0,0.0,0.0,0.0,0.0,0.0,0.0,0.0,0.0,0.0,0.0,0.0,0.0,0.0,0.0,0.0,0.0,0.0,0.0,0.0,0.0,0.0,0.0,0.0,0.0,0.0,0.0,0.0,0.0,0.0,0.0,-3.8584,-4.0805,-4.4135,-4.5707,-4.4288,-4.5151,-4.5572,-4.5055,-4.7991,-5.0087,-5.0625,-5.201,-5.3164,-5.4049,-5.5126,-5.5742,-5.578,-5.7165,-5.728,-5.6126,-5.7011,-5.6819,-5.5742,-5.6896,-5.6665,-5.5395,-5.6819,-5.6626,-5.5318,-5.5895,-5.4972,-5.3126,-5.2587,-5.2395,-5.2395,-5.2395,-5.2395,-5.2202,0.0,0.0,0.0,0.0,0.0,0.0,0.0,-2.3437,-2.4171,-2.6075,-2.814,-3.0047,-3.18,-3.4786,-3.7063,-3.8061,-3.7228,-3.4866,-3.104,-3.1156,-2.9635,-2.5855,-3.0749,-3.4502,-3.6567,-3.9768,-4.2402,-4.4377,-4.5693,-4.6681,-4.7426,-4.9136,-4.9999,-5.0113,-5.1868,-5.2669,-5.278,-5.3825,-5.1399,-4.6585,-4.3652,-4.2012,-4.078,0.0,0.0,0.0,0.0,0.0,0.0,0.0,0.0,0.0,0.0,0.0,0.0,0.0,0.0,0.0,0.0,0.0,0.0,0.0,0.0,0.0,0.0,0.0,0.0,0.0,0.0,0.0,0.0,0.0,0.0,0.0,0.0,0.0,-3.002,-3.7433,-4.291,-4.3101,-4.7665,-5.0471,-4.9625,-5.1087,-5.2049,-5.201,-5.2856,-5.4087,-5.5703,-5.4972,-5.5665,-5.8127,-5.6626,-5.6549,-5.8204,-5.7473,-5.7088,-5.7049,-5.7934,-5.7434,-5.5818,-5.755,-5.6973,-5.4741,-5.7242,-5.6896,-5.4703,-5.6319,-5.6472,-5.5703,-5.5703,-5.5703,-5.5703,-5.5703,-5.5665,-5.5395,0.0,0.0,0.0,0.0,0.0,0.0,-2.3257,-2.4274,-2.4955,-2.4969,-2.9031,-3.241,-3.3547,-3.7262,-4.0286,-4.1869,-4.048,-3.8236,-3.5196,-3.3339,-3.1589,-2.9956,-3.2645,-3.5818,-3.926,-4.1624,-4.3808,-4.5783,-4.6142,-4.7286,-4.9166,-4.9656,-5.0956,-5.3006,-5.4064,-5.4962,-5.5703,-5.6493,-5.6035,-5.4354,-4.9756,-4.6253,-4.3403,0.0,0.0,0.0,0.0,0.0,0.0,0.0,0.0,0.0,0.0,0.0,0.0,0.0,0.0,0.0,0.0,0.0,0.0,0.0,0.0,0.0,0.0,0.0,0.0,0.0,0.0,0.0,0.0,0.0,0.0,0.0,0.0,-3.9853,-3.9261,-4.1801,-4.5362,-4.9836,-5.2182,-5.3356,-5.3126,-5.4626,-5.5318,-5.4703,-5.6049,-5.7088,-5.755,-5.6165,-5.5703,-5.6395,-5.6549,-5.6588,-5.6434,-5.8627,-5.9165,-5.7934,-5.8781,-5.8627,-5.7627,-5.8704,-5.8473,-5.7319,-5.8627,-5.8088,-5.6357,-5.6819,-5.6472,-5.5703,-5.5703,-5.5703,-5.5703,-5.5703,-5.4934,-5.3549,0.0,0.0,0.0,0.0,0.0,0.0,-2.4515,-2.5203,-2.5718,-2.6107,-3.071,-3.4283,-3.518,-3.9255,-4.2111,-4.2647,-4.1176,-3.8528,-3.4416,-3.2157,-3.1791,-3.3513,-3.5759,-3.8691,-4.2372,-4.4137,-4.5873,-4.7549,-4.8006,-4.8936,-5.0319,-5.1878,-5.3517,-5.5094,-5.6644,-5.78,-5.8727,-5.9133,-5.9505,-5.9471,-5.6122,-5.257,-4.8951,-4.6143,-4.4045,-4.2354,-4.0764,-4.1237,-4.1965,-3.8461,0.0,0.0,0.0,0.0,0.0,0.0,0.0,0.0,0.0,0.0,0.0,0.0,0.0,0.0,0.0,0.0,0.0,0.0,0.0,0.0,0.0,0.0,0.0,0.0,-4.0957,-4.5801,-4.7913,-4.8375,-4.9892,-5.378,-5.5357,-5.6088,-5.6088,-5.728,-5.7703,-5.6857,-5.805,-5.8819,-5.8819,-5.7511,-5.678,-5.678,-5.728,-5.7319,-5.678,-5.9088,-5.9819,-5.8934,-5.9742,-5.955,-5.8511,-5.9704,-5.9435,0.0,-5.9511,-5.8973,-5.7126,-5.778,-5.7319,0.0,0.0,0.0,0.0,0.0,-5.4857,-5.3472,0.0,0.0,0.0,0.0,0.0,0.0,-2.6006,-2.593,-2.636,-2.8345,-3.2557,-3.5659,-3.6432,-4.0464,-4.2767,-4.1903,-4.034,-3.6924,-3.1292,-2.9654,-3.1396,-3.6836,-3.9409,-4.2282,-4.5574,-4.689,-4.8175,-4.9524,-5.0519,-5.1234,-5.1581,-5.497,-5.6669,-5.6956,-5.9194,-6.0689,-6.1434,-6.1501,-6.2009,-6.2685,-6.2076,-5.9573,-5.575,-5.1589,-4.9898,-4.9323,-4.5805,-4.4712,-4.4663,-4.2949,0.0,0.0,0.0,0.0,0.0,0.0,0.0,0.0,0.0,0.0,0.0,0.0,0.0,0.0,0.0,0.0,0.0,0.0,0.0,0.0,0.0,0.0,0.0,0.0,-4.5638,-4.9524,-5.5066,-5.5395,-5.528,-5.5934,-5.7434,-5.8396,-5.8319,-5.9127,-5.9319,-5.8511,-5.9204,-5.9665,-5.9665,0.0,0.0,0.0,0.0,-5.8319,-5.8319,-5.9204,-5.9742,-5.9996,-6.068,-6.0294,-5.9001,-6.0586,-6.0041,-5.7989,-6.0096,-5.9634,-5.7588,-5.8934,-5.8511,-5.6896,-5.6049,-5.5703,-5.5665,-5.5472,-5.5011,-5.4357,0.0,0.0,0.0,0.0,0.0,0.0,-2.4722,-2.5337,-2.6336,-2.8368,-3.2138,-3.5155,-3.6387,-3.9684,-4.2337,-4.3661,-3.9665,-3.5928,-3.3136,-3.1694,-3.3809,-4.0157,-4.1953,-4.4347,-4.7638,-4.8476,-4.9488,-5.0599,-5.1382,-5.3017,-5.5338,-5.6731,-5.8008,-5.9448,-6.0579,-6.1467,-6.2212,-6.2821,-6.3835,-6.5053,-6.4884,-6.2584,-5.9032,-5.6968,-5.5446,-5.416,-5.2232,-5.2701,-5.3505,-4.8382,-4.8508,-4.9834,-4.4671,-4.1827,0.0,0.0,0.0,0.0,0.0,0.0,0.0,0.0,0.0,0.0,0.0,0.0,0.0,0.0,0.0,0.0,0.0,0.0,0.0,-4.7035,-5.1212,-5.4605,-5.6472,-5.778,-5.8357,-5.7857,-5.8665,-5.9011,-5.8357,-5.9665,-6.0204,-5.9319,-6.005,-6.055,-6.055,-5.9127,-5.8319,-5.8319,-5.8319,-5.8357,-5.8457,-5.9958,-6.0804,-6.0997,0.0,0.0,-6.0566,-6.1065,-6.0881,-6.0188,-6.0751,-6.0268,-5.9088,-5.9396,-5.8511,-5.6896,-5.6049,-5.5703,-5.5549,-5.4164,-5.4049,-5.4164,0.0,0.0,0.0,0.0,0.0,0.0,-2.5418,-2.5884,-2.6572,-2.7919,-3.0941,-3.3634,-3.531,-3.7554,-3.9439,-4.0756,-3.6656,-3.4143,-3.4472,-3.4472,-3.7135,-4.309,-4.4646,-4.7051,-5.0567,-5.0964,-5.2043,-5.3882,-5.4825,-5.6042,-5.7516,-5.8785,-6.0024,-6.1264,-6.2076,-6.3024,-6.4072,-6.485,-6.5797,-6.6846,-6.7218,-6.6271,-6.441,-6.2516,-6.0892,-5.9478,-5.8422,-5.8303,-5.7966,-5.4276,-5.3616,-5.3659,-4.9391,-4.6797,-4.4488,0.0,0.0,0.0,0.0,0.0,0.0,0.0,0.0,0.0,0.0,0.0,0.0,0.0,0.0,-3.952,0.0,0.0,-4.7274,-5.1461,-5.415,-5.6472,-5.8704,-5.9704,-5.9896,-5.9011,-5.9704,-6.0089,-5.9704,-6.0473,-6.0858,-6.0435,-6.0781,-6.105,-6.105,-6.0242,-5.9396,-5.8527,-5.9358,-5.938,-5.8517,-6.0268,-6.1191,-6.1307,-6.1384,-6.1348,-6.1235,-6.1348,-6.1268,-6.1074,-6.0983,-6.0689,-6.0204,-5.9704,-5.8781,-5.755,-5.6703,-5.6088,-5.5588,-5.4741,-5.4741,-5.4857,0.0,0.0,0.0,0.0,0.0,0.0,0.0,-2.6303,-2.6722,-2.7649,-2.9744,-3.1809,-3.3514,-3.4681,-3.5374,-3.5409,-3.3396,-3.3066,-3.5353,-3.7173,-4.0531,-4.5936,-4.7473,-4.9865,-5.3465,-5.3496,-5.4703,-5.7098,-5.8346,-5.9003,-5.9311,-6.1077,-6.2245,-6.2854,-6.3463,-6.4546,-6.5933,-6.6622,-6.7421,-6.8368,-6.9135,-6.932,-6.9079,-6.7335,-6.5556,-6.403,-6.294,-6.146,-5.9805,-5.8645,-5.711,-5.5244,-5.3298,-5.1573,-4.904,-4.269,-4.1992,0.0,0.0,0.0,0.0,0.0,0.0,0.0,0.0,-3.6977,-3.8708,-4.1563,-4.3166,-4.5132,-4.8767,-4.9694,-5.13,-5.5719,-5.6629,-5.778,-6.0666,-6.1048,-6.0766,-5.9956,-6.0542,-6.1058,-6.1074,-6.119,-6.1306,-6.1306,-6.1306,-6.1306,-6.1306,-6.1306,-6.0689,-5.9258,-6.0552,-6.0569,-5.9056,-6.0566,-6.1331,-6.1325,-6.1466,-6.1489,-6.146,-6.1466,-6.135,-6.1211,-6.1039,-6.0935,-6.0896,-5.9896,-5.9127,-5.8434,-5.7396,-5.6549,-5.5934,-5.5742,-5.5703,-5.5588,0.0,0.0,0.0,0.0,0.0,0.0,0.0,0.0,-2.6393,-2.8248,-2.9265,-3.0103,-3.0851,-3.1091,-3.0473,-2.8652,-3.1947,-3.4512,-3.5278,-3.8822,-4.3438,-4.9109,-5.0653,-5.2684,-5.5315,-5.5346,-5.6324,-5.833,-5.9779,-6.0968,-6.1987,-6.3485,-6.4275,-6.4377,-6.4444,-6.529,-6.6727,-6.6986,-6.8199,-6.9945,-7.0285,-7.0206,-7.0046,-7.001,-6.846,-6.605,-6.3377,-6.0976,-5.9011,-5.902,-5.7497,-5.5537,-5.528,-5.4106,-5.1683,-4.5883,-4.3351,-4.1397,-3.6615,-3.466,-3.4651,-3.7376,-3.8121,-3.9359,0.0,0.0,-4.8892,-4.9962,-5.2264,-5.4699,-5.6713,-5.722,-5.7973,-6.0027,-6.055,-6.0804,-6.1228,-6.1286,-6.1227,-6.111,-6.1215,-6.1271,-6.1278,-6.1305,-6.1305,-6.1305,-6.1305,-6.1305,-6.1305,-6.1305,-6.1188,-6.1033,-6.1188,-6.1181,-6.0997,-6.1296,-6.1492,-6.1481,-6.1508,-6.1447,-6.1344,-6.133,-6.1135,-6.0834,-6.0804,-6.0819,-6.0742,-5.9858,-5.9435,-5.9204,-5.7627,-5.6934,-5.6742,-5.5972,-5.5703,-5.5588,0.0,0.0,0.0,0.0,0.0,0.0,0.0,0.0,0.0,-2.723,-2.732,-2.7799,-2.9235,-2.9056,-2.8293,-2.6918,-2.9735,-3.3029,-3.6487,-4.0247,-4.5039,-5.1132,-5.2796,-5.4697,-5.7264,-5.7771,-5.9087,-6.1408,-6.2011,-6.2791,-6.37,-6.4309,-6.4816,-6.5256,-6.5696,-6.6855,-6.8464,-6.9381,-7.067,-7.1976,-7.2477,-7.2364,-7.1722,-7.0482,-6.7845,-6.4554,-6.1993,-5.9561,0.0,-5.5522,-5.4326,-5.3592,-5.4069,-5.2417,-4.9517,-4.5259,-4.2873,-4.1103,-3.8906,-3.8884,-3.9982,-4.1863,-4.4717,-4.7618,-4.9723,-5.1858,-5.398,-5.5785,-5.795,-5.9903,-6.1151,-6.1089,-6.1241,0.0,-6.1446,-6.0937,-6.2028,-6.1754,-6.107,-6.0164,-6.0029,-6.0112,-6.0517,-6.1149,-6.1286,-6.07,-6.1208,-6.152,-6.152,-6.1447,-6.1407,-6.1407,-6.1342,-6.1229,-6.1151,-6.1381,-6.1407,-6.1227,-6.1389,-6.1362,-6.1118,-6.1147,-6.1012,-6.0781,-6.0781,-6.0781,-6.0781,-6.0396,-5.9973,-5.9435,-5.8742,-5.7857,-5.6896,-5.6011,-5.5703,-5.5665,0.0,0.0,0.0,0.0,0.0,0.0,0.0,0.0,0.0,0.0,-2.5196,-2.5392,-2.6977,-2.6723,-2.6306,-2.5989,-2.8061,-3.1596,-3.6749,-4.0766,-4.5763,-5.2036,-5.4083,-5.6401,-5.9226,-5.9956,-6.1494,-6.3802,-6.4005,-6.4478,-6.5222,-6.5425,-6.603,-6.7073,-6.7618,-6.8888,-7.0609,-7.1715,-7.273,-7.357,-7.3899,-7.3292,-7.1829,-6.9281,-6.5379,-6.1025,-5.9215,-5.6544,-5.3504,-5.0884,-4.9848,-4.9774,-5.0618,-4.937,-4.7021,-4.3791,-4.1498,-4.0015,-4.0103,-4.1684,-4.3924,-4.6352,-5.0291,-5.3857,-5.5049,-5.678,-5.8742,-6.0881,-6.2406,-6.3554,-6.4265,-6.3438,-6.2937,-6.3735,-6.1957,-6.1023,-6.2626,-6.1695,-6.0341,-5.8944,-5.8286,-5.7989,-5.8154,-5.9865,-6.0866,-6.0625,-6.1289,-6.1719,-6.1719,-6.1585,-6.1497,-6.1497,-6.1366,-6.1229,-6.1074,-6.1343,-6.1323,-6.1057,-6.1285,-6.1228,-6.0973,-6.0935,-6.0896,-6.0781,-6.0781,-6.0781,-6.0781,-6.0781,-6.0435,-5.9819,-5.9588,-5.8627,-5.7242,-5.6357,-5.5895,-5.5703,0.0,0.0,0.0,0.0,0.0,0.0,0.0,0.0,0.0,0.0,0.0,0.0,0.0,-2.3553,-2.3878,-2.4764,-2.7474,-3.0863,-3.5013,-3.9934,-4.5452,-5.1684,-5.4612,-5.7731,-6.112,-6.1975,-6.3091,-6.458,-6.5256,-6.6,-6.6779,-6.7489,-6.8724,-7.0441,-7.0441,-7.149,-7.311,-7.336,-7.3795,-7.4244,-7.3683,-7.1866,-6.9318,-6.6245,-6.1142,-5.5418,-5.4697,-5.1311,-4.6936,-4.544,-4.4415,-4.3901,-4.4709,-4.5443,-4.5333,-4.2139,-3.9305,-3.7589,-3.9248,-4.0749,-4.3453,-5.0067,-5.3087,-5.5511,-5.9627,-6.2512,-6.4628,-6.5678,-6.5936,-6.6067,-6.6266,-6.4406,-6.3092,-6.3949,-6.2725,-6.1953,-6.2851,-6.085,-5.8886,-5.7869,-5.6227,-5.4803,0.0,-5.6906,-5.9808,-6.1521,-6.168,-6.1719,-6.1719,-6.1585,-6.1497,-6.1497,-6.1366,-6.1328,-6.1304,-6.1304,-6.1304,-6.1289,-6.1112,-6.1012,-6.0973,-6.0858,-6.0781,-6.0781,-6.0781,-6.0781,-6.0781,-6.0781,-6.0781,-6.0666,-5.9819,-5.8973,-5.8165,-5.728,-5.6434,-5.5703,0.0,0.0,0.0,0.0,0.0,0.0,0.0,0.0,0.0,0.0,0.0,0.0,0.0,0.0,0.0,0.0,-2.6423,-2.8804,-3.2984,-3.8081,-4.2983,-4.7579,-5.3442,-5.7345,-5.8998,-6.0757,-6.2381,-6.3869,-6.5231,-6.6264,-6.6986,-6.8412,-6.9678,-7.0789,-7.0714,-7.1728,-7.3395,-7.3416,-7.3284,-7.3035,-7.2328,-7.0519,-6.7738,-6.2401,-5.666,-5.0823,0.0,-4.3214,-4.1867,-3.9182,-3.8469,-3.8872,-3.968,-3.8982,-3.736,-3.4892,-3.5595,-3.7575,-3.9467,-4.4154,-4.9471,-5.3433,-5.7857,-6.1743,-6.3743,-6.5807,-6.7116,-6.6282,-6.4378,-6.2604,-6.1542,-5.9769,-5.8972,-6.0477,-6.0208,-6.0534,-6.2695,-6.0612,-5.8389,-5.7112,-5.6309,0.0,0.0,0.0,0.0,-5.8819,-6.0047,-6.0957,-6.1539,-6.1309,-6.1189,-6.1189,-6.1012,-6.1012,-6.1112,-6.1079,-6.1079,-6.1112,-6.0935,-6.0858,-6.0858,-6.0819,-6.0781,-6.0781,-6.0781,-6.0781,-6.0781,-6.0781,-6.0781,-6.0781,-6.0473,-5.9511,-5.828,-5.7973,-5.6934,-5.5703,0.0,0.0,0.0,0.0,0.0,0.0,0.0,0.0,0.0,0.0,0.0,0.0,0.0,0.0,0.0,0.0,0.0,-2.7356,-3.0886,-3.5013,-3.9005,-4.276,-4.8003,-5.142,-5.2706,-5.4938,-5.7111,-5.906,-6.1218,-6.3028,-6.4528,-6.6286,-6.7688,-6.8774,-6.9059,-7.0022,-7.1391,-7.1101,-7.042,-6.9339,-6.7357,-6.4751,-6.1374,-5.4876,-4.904,0.0,-3.8395,-3.6303,-3.5716,-3.3917,-3.4064,-3.4981,-3.4908,-3.4174,-3.3298,-3.2947,-3.6001,-4.0138,-4.3344,-4.8872,-5.4472,-5.7627,-6.1512,-6.482,-6.5705,-6.6859,-6.7218,-6.5209,-6.248,-5.9738,-5.7448,-5.5176,-5.4305,-5.6386,-5.6393,-5.7407,-6.1112,-5.9248,-5.7362,-5.7039,-5.602,-5.5268,0.0,0.0,0.0,-5.7042,-5.849,-5.9518,-6.0027,-6.0089,-6.0381,-6.0973,-6.0858,-6.0858,-6.0973,-6.0963,-6.0925,-6.0935,-6.0819,-6.0781,-6.0781,-6.0781,-6.0473,-5.9935,-6.055,-6.0473,-5.9935,-6.055,-6.0781,-6.0781,-6.0473,-5.9511,-5.828,-5.7934,-5.6934,-5.5703,0.0,0.0,0.0,0.0,0.0,0.0,0.0,0.0,0.0,0.0,0.0,0.0,0.0,0.0,0.0,0.0,0.0,0.0,-2.8619,-3.0959,-3.3795,-3.7347,-3.914,-4.1035,-4.3132,-4.5365,-4.7885,-5.0714,-5.3618,-5.6488,-5.9222,-6.0861,-6.2524,-6.423,-6.495,-6.5815,-6.6696,-6.5962,-6.4714,-6.2952,-5.9024,-5.5133,-5.0986,-4.4525,-3.9129,-3.477,-3.3109,-3.0944,-2.9049,-2.9916,-3.1274,-3.2401,-3.1005,-3.1654,-3.3474,-3.6283,-4.0349,-4.5062,-5.0268,-5.4518,-5.8396,-6.2435,-6.4128,-6.4974,-6.5743,-6.5949,-6.5273,-6.2701,-6.0074,-5.7196,-5.3848,0.0,-4.9265,-5.1933,-5.1832,-5.3214,-5.8472,-5.703,-5.6001,0.0,0.0,0.0,0.0,0.0,0.0,-5.6325,0.0,-5.7695,-5.7689,-5.828,-5.9342,-6.0935,-6.0858,-6.0858,-6.0973,-6.0858,-6.0819,-6.0781,-6.0781,-6.0781,-6.0781,-6.0781,-5.9935,-5.8511,-6.0127,-5.9896,-5.855,-6.0127,-6.0781,-6.0704,-5.9858,-5.9011,-5.8204,-5.7319,-5.6434,-5.5703,0.0,0.0,0.0,0.0,0.0,0.0,0.0,0.0,0.0,0.0,0.0,0.0,0.0,0.0,0.0,0.0,0.0,0.0,-2.5607,-2.9296,-3.1664,-3.207,-3.6705,-3.9546,-4.0121,-4.1779,-4.3382,-4.4921,-4.6933,-4.8438,-4.9434,-5.1092,-5.2445,-5.3507,-5.3069,-5.3339,-5.4106,-5.3922,-5.3261,-5.2197,-5.0545,-4.893,-4.6801,-4.0928,-3.7184,-3.4623,-3.1825,-2.9659,-2.8338,-2.9732,-3.1455,-3.338,-3.5416,-3.6527,-3.7473,-3.9637,-4.4679,-5.0007,-5.2214,-5.8104,-6.3897,-6.4974,-6.6359,-6.7167,-6.6128,-6.5037,-6.3004,-5.8566,-5.3158,-4.8172,-4.4794,-4.3322,0.0,-4.8841,-5.1431,0.0,-5.8472,-5.8364,0.0,-5.6815,0.0,-5.7448,-5.713,-5.7545,0.0,0.0,-5.7516,-5.8842,-6.0027,-6.0165,-6.0396,-6.0819,-6.0819,-6.0858,-6.0973,-6.0973,-6.0896,-6.0781,-6.0781,-6.0781,-6.0781,-6.0781,-6.055,-6.0204,-6.0589,-6.055,-6.0204,-6.0627,-6.0781,-6.0704,-5.9858,-5.9011,-5.8204,-5.7319,-5.6434,-5.5703,0.0,0.0,0.0,0.0,0.0,0.0,0.0,0.0,0.0,0.0,0.0,0.0,0.0,0.0,0.0,0.0,0.0,0.0,0.0,-2.7334,-2.8664,-2.7879,-3.0438,-3.2042,-3.2378,-3.3337,-3.4934,-3.7162,-3.9588,-4.1538,-4.2972,-4.4455,-4.559,-4.6361,-4.5883,-4.6104,-4.6838,-4.6471,-4.5663,0.0,0.0,-4.1111,-3.957,-3.4981,-3.2669,-3.1604,-2.9806,-2.9333,-3.008,-3.3202,-3.4745,-3.6039,-3.9849,-4.1926,-4.365,-4.7073,-5.1538,-5.5897,-5.8158,-6.282,-6.6898,-6.6513,-6.6859,-6.6359,-6.282,-6.0789,-5.7832,-5.1238,-4.6292,-4.1983,-3.8143,-3.7629,-3.9466,0.0,0.0,0.0,-5.6097,-5.6953,-5.7203,0.0,-5.8031,0.0,-5.942,-5.941,-5.9244,0.0,-5.8642,-5.8896,-5.9781,-6.0435,-6.0973,-6.1358,-6.1358,-6.1204,-6.0896,-6.0896,-6.0858,-6.0781,-6.0781,-6.0781,-6.0781,-6.0781,-6.0396,-5.9742,0.0,-6.0358,-5.9742,-6.0512,-6.0781,-6.0666,-5.9435,-5.8704,-5.8165,-5.6896,-5.6126,-5.5703,0.0,0.0,0.0,0.0,0.0,0.0,0.0,0.0,0.0,0.0,0.0,0.0,0.0,0.0,0.0,0.0,0.0,0.0,0.0,0.0,-2.5808,-2.4941,-2.3772,-2.3415,-2.3962,-2.431,-2.6109,-2.9378,-3.2349,-3.5101,-3.762,-3.8711,-3.9496,-4.0047,-4.0047,-4.0377,-4.0891,-4.0304,-3.935,-3.8028,-3.5092,-3.3156,-3.1788,0.0,-2.7662,-2.7669,-2.769,-2.9307,-3.2222,-3.7685,-3.9336,-3.9972,-4.4697,-4.787,-5.0824,-5.5746,-5.9013,-6.1759,-6.5,-6.7282,-6.8475,-6.7359,-6.632,-6.4012,-5.8165,-5.5091,-5.1203,-4.3133,-3.997,-3.7439,-3.3473,-3.3619,-3.5907,-4.0616,0.0,-4.7962,-5.3165,-5.4786,-5.6281,-5.8527,-5.827,-5.8821,-6.1289,-6.059,-6.0638,-6.219,-6.0358,-5.905,-5.8819,-6.005,-6.1204,-6.205,-6.1973,-6.1627,-6.0973,-6.0858,-6.0781,-6.0781,-6.0781,-6.0781,-6.0781,-6.0781,-6.0012,-5.8704,-6.0165,0.0,-5.8742,-6.0204,-6.0781,-6.0627,-5.8934,-5.8319,-5.8088,-5.6357,-5.5703,-5.5703,0.0,0.0,0.0,0.0,0.0,0.0,0.0,0.0,0.0,0.0,-1.8598,-1.7883,0.0,0.0,0.0,0.0,0.0,0.0,0.0,0.0,0.0,-2.4488,-2.4821,-2.4812,-2.4317,-2.4373,-2.5197,-2.6788,-2.7353,-2.8033,-2.8795,-2.9012,-2.8815,-2.8338,-2.8338,-2.8044,-2.7567,-2.8117,-2.8925,-2.9769,-2.8558,-2.8705,-2.9415,-2.753,0.0,0.0,-2.7231,-2.7923,-2.9942,-3.7489,-4.1856,-4.5159,-5.1481,-5.4915,-5.7075,-5.9388,-6.2386,-6.5077,-6.5743,-6.8129,-6.9937,-6.7667,-6.5397,-6.2397,-5.7126,-5.1414,-4.5565,-3.9877,-3.5688,-3.2632,-3.1145,-3.2711,-3.6394,-4.2911,-4.5635,-4.871,-5.3822,-5.6117,-5.7371,0.0,-5.8374,-5.9554,-6.1482,-6.054,0.0,0.0,0.0,-6.2166,-6.1473,-6.1012,-6.1204,-6.205,-6.1396,-6.1281,-6.1858,-6.1166,-6.0781,-6.0781,-6.0781,-6.0781,-6.0781,-6.0781,-6.0627,-6.0358,-6.0666,0.0,-6.0396,-6.0666,-6.0781,-6.0627,-5.8934,-5.8319,-5.8088,-5.6357,-5.5703,-5.5703,0.0,0.0,0.0,0.0,0.0,0.0,0.0,-1.8593,-1.9177,-2.0441,-2.0331,-1.9858,-1.9022,-1.8572,0.0,0.0,0.0,0.0,0.0,0.0,0.0,0.0,-2.4599,-2.4431,-2.405,-2.3898,-2.4444,-2.5779,0.0,-2.6367,-2.6881,-2.6292,-2.5988,-2.5988,-2.5605,-2.5401,-2.5474,-2.5841,-2.6465,-2.7148,-2.6868,-2.7204,-2.7832,-2.7056,0.0,0.0,-2.7111,-2.8001,-2.9973,-3.564,-4.021,-4.5036,-5.4012,-5.8419,-6.0435,-6.1243,-6.3858,-6.6436,-6.6013,-6.8052,-6.9744,-6.7628,-6.4512,-5.9973,-5.2202,-4.6547,-4.0739,-3.3006,-2.9775,-2.8121,-2.7274,-2.8813,-3.2377,-3.8915,-4.1437,-4.4832,-5.1257,-5.3398,-5.5132,-5.7352,-5.8433,-5.9332,-6.0194,-5.9632,-5.9937,0.0,0.0,-6.1743,-6.2666,-6.1935,-6.1666,-6.2089,-6.1243,-6.1012,-6.1396,-6.1012,-6.0781,-6.0781,-6.0781,-6.0781,-6.0781,-6.0781,-6.0781,-6.0781,-6.0781,0.0,-6.0165,-6.0589,-6.0512,-6.0012,-5.8781,-5.8319,-5.8088,-5.6357,-5.5972,-5.6319,0.0,0.0,0.0,0.0,0.0,0.0,0.0,-1.9941,-2.0508,-2.1955,-2.2226,-2.1786,-2.0433,-1.9215,-1.8877,0.0,0.0,0.0,0.0,0.0,0.0,0.0,0.0,-2.4112,-2.407,0.0,0.0,-2.5729,-2.6056,0.0,0.0,0.0,0.0,0.0,-2.5658,-2.5548,-2.5841,-2.5841,-2.5935,0.0,0.0,-2.6079,0.0,0.0,0.0,0.0,0.0,-2.7728,-2.9518,-3.3333,-3.7095,-4.1893,-5.1702,-5.7242,-6.0281,-6.0858,-6.3397,-6.6051,-6.6128,-6.7628,-6.8667,-6.6744,-6.2974,-5.7165,-4.7509,-4.2124,-3.6584,-2.7467,-2.5149,-2.4697,-2.4389,-2.5428,-2.8362,-3.4648,-3.6718,-4.0307,-4.84,-5.0482,-5.2801,-5.7178,-5.8451,0.0,-5.9495,-5.9142,0.0,0.0,0.0,0.0,-6.2935,-6.2281,-6.1897,-6.2089,-6.1243,-6.0896,-6.1089,-6.0896,-6.0781,-6.0781,-6.0781,-6.0781,-6.0781,-6.0781,-6.0781,-6.0781,-6.0781,0.0,0.0,-6.0435,-6.0165,-5.9165,-5.855,-5.8319,-5.8127,-5.6549,-5.6395,-5.6896,0.0,0.0,0.0,0.0,0.0,0.0,0.0,-2.0441,-2.1252,-2.4763,-2.3511,-2.1989,-2.1177,-2.0967,-2.0365,0.0,0.0,0.0,0.0,0.0,0.0,0.0,0.0,0.0,0.0,0.0,0.0,-2.649,-2.6548,0.0,0.0,0.0,0.0,0.0,0.0,-2.463,-2.3345,-2.3345,0.0,0.0,0.0,0.0,0.0,0.0,0.0,0.0,0.0,-2.5466,-2.6237,-3.1367,-3.3878,-3.5892,-4.1546,-4.824,-5.4472,-5.678,-5.9896,-6.3205,-6.6167,-6.7167,-6.6744,-6.4282,-5.9896,-5.4087,-4.6201,-3.9431,-3.3199,-2.7621,-2.4659,-2.3466,-2.4928,-2.5303,-2.7659,-3.4507,-3.5045,-3.7874,-4.7289,-5.0062,-5.277,-5.7176,0.0,0.0,-6.1103,-6.0157,0.0,0.0,0.0,0.0,-6.2243,-6.1396,-6.1281,-6.205,-6.1243,-6.1166,-6.1973,-6.1204,-6.0781,-6.0781,-6.0781,-6.0781,-6.0781,-6.0781,-6.0781,-6.0781,-6.0781,0.0,0.0,-6.0435,-5.9858,-5.8396,-5.8319,-5.8319,-5.8165,-5.7242,-5.6934,-5.6973,0.0,0.0,0.0,0.0,0.0,0.0,-2.0812,-2.0534,-2.1184,-2.4492,-2.4154,-2.3342,-2.2598,-2.2496,-2.1549,-1.9113,0.0,0.0,0.0,0.0,0.0,0.0,0.0,0.0,0.0,0.0,-2.5568,-2.5878,-2.5878,0.0,0.0,0.0,0.0,0.0,0.0,-2.3602,-2.2978,-2.2587,0.0,0.0,0.0,0.0,0.0,0.0,0.0,0.0,0.0,0.0,-2.551,-2.7599,-2.8845,-2.9768,-3.1366,-3.5311,-4.0773,-4.8029,-5.3972,-5.8627,-6.0512,-6.3243,-6.5089,-6.3089,-5.8357,-5.2049,-4.3855,-3.7546,-3.1545,-2.4889,-2.2735,-2.2235,-2.2889,-2.262,-2.4043,-2.9313,-2.9476,-3.2068,-4.1168,-4.437,-4.8171,-5.4587,-5.7405,0.0,0.0,0.0,0.0,0.0,0.0,0.0,-6.2089,-6.1281,-6.0973,-6.132,-6.0973,-6.0973,-6.132,-6.0973,-6.0781,-6.0781,-6.0781,-6.0781,-6.0781,-6.0781,-6.0781,-6.0781,-6.0781,0.0,0.0,-5.9473,-5.8704,-5.6857,-5.7896,-5.8319,-5.828,-5.7896,-5.8088,-5.8357,0.0,0.0,0.0,0.0,0.0,-1.8325,-2.0839,-2.0703,-2.1278,-2.3816,-2.3985,-2.3477,-2.2496,-2.182,-2.0789,-1.9165,-1.9143,0.0,0.0,0.0,0.0,0.0,0.0,0.0,0.0,0.0,-2.5054,-2.5054,-2.5054,-2.5054,0.0,0.0,-2.419,-2.419,0.0,0.0,0.0,0.0,0.0,0.0,0.0,0.0,0.0,0.0,0.0,0.0,0.0,0.0,0.0,0.0,0.0,-2.5497,-2.4732,-2.6221,-3.0084,-3.9477,-4.7394,-5.3433,-5.5049,-5.9204,-6.2704,-6.1012,-5.5934,-4.9317,-4.1508,-3.543,-2.9544,-2.2889,-2.1312,-2.1158,-2.1158,-2.0696,-2.162,-2.5611,-2.6185,-2.8916,-3.691,-4.0446,-4.4695,-5.1468,0.0,0.0,0.0,0.0,0.0,0.0,0.0,0.0,0.0,-6.1281,-6.0781,-6.0781,-6.0781,-6.0781,-6.0781,-6.0781,-6.0781,-6.0781,-6.0781,-6.0666,-6.0435,-6.0666,-6.0666,-6.0435,-6.0704,0.0,0.0,-5.8934,-5.8165,-5.6242,-5.7703,-5.8434,-5.8665,-5.8665,-5.8858,-5.8973,0.0,0.0,0.0,0.0,0.0,0.0,-2.0759,-2.1204,-2.1718,-2.3207,-2.2767,-2.1752,-2.0204,-1.8065,-1.745,-1.9152,-1.9981,0.0,0.0,0.0,0.0,0.0,0.0,0.0,0.0,0.0,-2.419,-2.419,-2.419,-2.419,-2.419,-2.419,-2.419,-2.4209,0.0,0.0,0.0,0.0,0.0,0.0,0.0,0.0,-2.1487,0.0,0.0,0.0,0.0,0.0,0.0,0.0,0.0,0.0,0.0,-2.313,-2.5069,-3.2211,-4.0354,-4.774,-5.1048,-5.5665,-5.9165,-5.7473,-5.1972,-4.5393,-3.9392,-3.2814,-2.6736,-2.2389,-2.0889,-2.0312,-2.0312,-2.0312,-2.1443,-2.4932,-2.6863,-3.004,-3.6228,-3.9945,-4.3674,0.0,0.0,0.0,0.0,0.0,0.0,0.0,0.0,0.0,0.0,-6.1281,-6.0781,-6.0781,-6.0781,-6.0781,-6.0781,-6.0781,-6.0781,-6.0781,-6.0781,-6.0358,-5.955,-6.0396,-6.0319,0.0,0.0,0.0,0.0,-5.9165,-5.8511,-5.7049,-5.7973,-5.8781,-5.9473,-5.9473,-5.8973,-5.8319,0.0,0.0,0.0,0.0,0.0,0.0,0.0,-1.9181,-1.9587,-2.1617,-2.0771,-2.0196,-2.0771,-1.9406,-1.8564,-1.8738,-1.81,0.0,0.0,0.0,0.0,0.0,0.0,0.0,0.0,0.0,-2.3933,-2.3382,-2.3382,-2.3088,-2.2538,-2.2538,-2.2538,-2.2556,-2.2147,-2.1667,0.0,0.0,0.0,0.0,0.0,-2.0544,-2.0479,0.0,0.0,0.0,0.0,0.0,0.0,0.0,0.0,0.0,0.0,0.0,0.0,-2.4372,-3.0915,-3.7824,-4.0707,-4.397,-4.624,-4.5163,-4.197,-3.7824,-3.2914,-2.8833,-2.5062,-2.1254,-2.0378,-2.0312,-2.0312,-2.0312,-2.1628,-2.5611,-2.7642,-3.0645,-3.6177,-4.0861,0.0,-4.9577,-5.5093,0.0,0.0,0.0,0.0,0.0,0.0,0.0,0.0,-6.1512,-6.1396,-6.0819,-6.0781,-6.0781,-6.0781,-6.0781,-6.0781,-6.0781,-6.0781,-6.0319,-5.9511,-6.0396,-6.0319,0.0,0.0,0.0,0.0,-5.8588,-5.8011,-5.7126,-5.855,-5.9281,-5.9511,-5.9511,-5.9358,-5.8973,0.0,0.0,0.0,0.0,0.0,0.0,0.0,-1.8335,-1.864,-1.9756,-1.908,-1.8843,-1.979,-1.8516,-1.775,-1.8068,-1.7114,0.0,0.0,0.0,0.0,0.0,0.0,0.0,0.0,-2.4043,-2.4116,-2.3896,-2.3896,-2.3639,-2.318,-2.318,-2.2832,-2.2225,-2.1965,-2.1485,0.0,0.0,0.0,0.0,-2.0225,-2.0161,-2.0143,0.0,0.0,0.0,0.0,0.0,0.0,0.0,0.0,0.0,0.0,0.0,0.0,0.0,-2.3259,-2.8322,-3.2976,-3.6795,-3.9307,-3.8493,-3.5902,-3.262,-2.9193,-2.5968,-2.3012,-2.0467,-2.0595,-2.0983,-2.0323,-2.0787,-2.212,-2.4736,-2.739,-3.0556,-3.4802,-3.9798,0.0,-4.9239,0.0,0.0,0.0,0.0,0.0,0.0,0.0,0.0,0.0,-6.132,-6.1358,-6.0819,-6.0781,-6.0781,-6.0781,-6.0781,-6.0781,-6.0781,-6.0781,-6.0319,-5.9511,-6.0396,-6.0319,0.0,0.0,0.0,0.0,-5.8434,-5.8165,-5.805,-5.9088,-5.9511,-5.9511,-5.9511,-5.9088,-5.8396,0.0,0.0,0.0,0.0,0.0,0.0,0.0,-1.8369,-1.8572,-1.7896,-1.7726,-1.7659,-1.7681,-1.5963,-1.547,-1.7029,0.0,0.0,0.0,0.0,0.0,0.0,0.0,0.0,-2.2905,-2.3749,-2.452,-2.5164,-2.5201,-2.5164,-2.5054,-2.5127,-2.43,-2.285,-2.3116,-2.2348,0.0,0.0,0.0,0.0,-2.0078,-2.0087,0.0,0.0,0.0,0.0,0.0,0.0,0.0,0.0,0.0,0.0,0.0,0.0,0.0,0.0,0.0,0.0,0.0,-3.279,-3.6281,-3.5566,-3.2377,-2.8951,-2.7307,-2.3878,0.0,-2.0123,-2.1396,-2.214,-2.0642,-2.178,-2.3043,-2.3188,-2.6697,-3.0275,-3.2891,-3.7853,0.0,0.0,0.0,0.0,0.0,0.0,0.0,0.0,0.0,0.0,0.0,-6.0781,-6.0781,-6.0781,-6.0781,-6.0781,-6.0781,-6.0781,-6.0742,-6.0627,-6.0742,-6.0281,-5.9358,-6.0358,-6.0319,0.0,0.0,0.0,0.0,-5.8704,-5.8858,-5.9588,-5.9511,-5.9511,-5.9473,-5.9358,-5.8319,-5.6973,0.0,0.0,0.0,0.0,0.0,0.0,0.0,0.0,0.0,0.0,-1.6813,-1.6163,-1.634,-1.5574,-1.5006,0.0,0.0,0.0,0.0,0.0,0.0,0.0,0.0,0.0,-2.2061,-2.3456,-2.3676,-2.2666,-2.3272,-2.2905,-2.1694,-2.2318,-2.2097,-2.107,-2.0707,-2.0063,0.0,0.0,0.0,0.0,-2.0003,-1.992,0.0,0.0,0.0,0.0,-1.9951,-2.0001,0.0,0.0,0.0,0.0,0.0,0.0,0.0,0.0,-1.7098,-1.7681,-1.9726,0.0,-2.3068,-2.2901,-2.208,-2.1187,0.0,-2.0313,-2.0425,-2.1494,-2.2194,-2.2855,-2.3686,-2.4317,-2.5311,-2.7103,-3.0011,-3.3122,-3.6353,0.0,0.0,0.0,0.0,0.0,0.0,0.0,0.0,0.0,0.0,0.0,0.0,-6.0781,-6.0781,-6.0781,-6.0781,-6.0781,-6.0781,-6.0781,-6.0165,-5.8896,-6.0204,-5.9665,-5.7665,-5.9819,-6.0319,0.0,0.0,0.0,-6.0435,-5.9588,-5.9704,-6.0435,-5.9742,-5.9511,-5.9358,-5.805,-5.7319,-5.6896,0.0,0.0,0.0,0.0,0.0,0.0,0.0,0.0,0.0,0.0,0.0,0.0,0.0,0.0,0.0,0.0,0.0,0.0,0.0,0.0,0.0,0.0,0.0,-1.9586,-2.118,-2.2061,-2.2648,-2.2905,-2.2978,-2.2721,-2.2208,-2.2685,-2.2024,-2.0446,-1.9476,-1.9124,0.0,0.0,0.0,-1.9893,-1.9855,0.0,0.0,0.0,0.0,0.0,-1.9688,-1.9572,0.0,-1.9456,-1.8609,-1.7532,0.0,0.0,0.0,0.0,-1.6065,-1.6347,-1.6472,-1.7769,-1.9261,-2.0186,-1.973,-1.9263,-2.0051,-1.9601,-1.9513,-2.1292,-2.2061,-2.2767,-2.4081,-2.4409,-2.5309,-2.7853,-3.0333,-3.4006,0.0,0.0,0.0,0.0,0.0,0.0,0.0,0.0,0.0,0.0,0.0,0.0,-6.0204,-6.0204,-6.0012,-5.9665,-5.9665,-6.0012,-6.0781,-6.0396,-5.955,-5.8319,-5.9204,-5.8704,-5.7049,-5.8819,-5.9396,0.0,0.0,0.0,-5.9511,-5.7896,-5.8165,-5.9627,-5.9127,-5.8704,-5.8242,-5.7319,-5.6742,-5.6319,0.0,0.0,0.0,0.0,0.0,0.0,0.0,0.0,0.0,0.0,0.0,0.0,0.0,0.0,0.0,0.0,0.0,0.0,0.0,0.0,0.0,0.0,0.0,-1.7899,-2.0099,-2.0356,-2.1547,-2.3639,-2.3345,-2.3419,-2.3823,-2.408,-2.2758,-2.0079,-1.9045,-1.8877,0.0,0.0,-1.9551,-1.9762,-1.9649,0.0,0.0,0.0,0.0,0.0,0.0,0.0,0.0,-1.9017,-1.7977,-1.6688,-1.6578,0.0,0.0,0.0,0.0,0.0,-1.5821,-1.7779,-2.0135,-2.1749,-2.0865,-1.9996,-2.1758,-2.0135,-1.8896,-2.1035,-2.2065,-2.2882,-2.4049,-2.4647,0.0,-2.7774,-3.0598,0.0,0.0,0.0,0.0,0.0,0.0,0.0,0.0,0.0,0.0,0.0,0.0,-6.0242,-5.9358,-5.9319,-5.9011,-5.8319,-5.8319,-5.8973,-6.0396,-5.9704,-5.8858,-5.7896,-5.8165,-5.778,-5.6819,-5.7857,-5.8319,-5.8165,0.0,0.0,-5.8127,-5.5972,-5.6357,-5.828,-5.8165,-5.7665,-5.6973,-5.6857,-5.6319,-5.5703,0.0,0.0,0.0,0.0,0.0,0.0,0.0,0.0,0.0,0.0,0.0,0.0,0.0,0.0,0.0,0.0,0.0,0.0,0.0,0.0,0.0,-1.5894,-1.6542,-1.7385,-1.8463,-1.9806,-2.0686,-2.1053,-2.3052,-2.3382,-2.2225,-2.3566,-2.2134,-1.85,-1.9142,-1.8727,-1.7667,-1.8433,-1.9075,-1.9636,-1.9596,0.0,0.0,0.0,0.0,0.0,0.0,0.0,0.0,-1.6741,-1.6103,-1.5784,-1.5074,0.0,0.0,0.0,0.0,0.0,-1.6358,-1.8515,-2.0351,-2.0189,-1.9745,-1.9664,-2.0848,-2.0098,-2.01,-2.3582,-2.4369,-2.5149,-2.7311,-2.9761,-3.1249,0.0,0.0,0.0,0.0,0.0,0.0,0.0,0.0,0.0,0.0,0.0,0.0,0.0,0.0,0.0,-5.855,-5.8473,-5.8434,-5.8319,-5.8319,-5.8434,-5.8665,-5.855,-5.7665,-5.6126,-5.7588,-5.7473,-5.5934,-5.7588,-5.8319,-5.828,0.0,-5.7934,-5.828,-5.7896,-5.7973,-5.8242,-5.7473,-5.7126,-5.6896,-5.6165,-5.5818,-5.5703,0.0,0.0,0.0,0.0,0.0,0.0,0.0,0.0,0.0,0.0,0.0,0.0,0.0,0.0,0.0,0.0,0.0,0.0,0.0,0.0,0.0,-1.571,-1.6041,-1.6848,-1.806,-1.8831,-1.9858,-2.1216,-2.2318,-2.2758,-2.2428,-2.184,-2.0556,-1.872,-1.8329,-1.7963,-1.7718,-1.8612,-1.9156,-1.9442,0.0,0.0,0.0,0.0,0.0,0.0,0.0,0.0,0.0,0.0,-1.6078,-1.5637,-1.527,0.0,0.0,0.0,0.0,0.0,-1.5405,-1.7348,-1.976,-2.2022,-2.1913,-2.2009,-2.4685,-2.251,-2.1294,-2.6121,-2.5748,-2.5489,0.0,0.0,-3.2741,-3.5874,0.0,0.0,0.0,0.0,0.0,0.0,0.0,0.0,0.0,0.0,0.0,0.0,0.0,0.0,-5.7627,-5.7588,-5.7396,-5.6896,-5.6896,-5.6896,-5.6896,-5.6896,-5.6472,-5.5703,-5.6511,-5.6242,-5.5088,-5.6319,-5.6896,-5.6857,0.0,-5.6049,-5.6819,-5.5934,-5.6088,-5.6857,-5.6434,-5.628,-5.6242,-5.5857,-5.5703,-5.5703,0.0,0.0,0.0,0.0,0.0,0.0,0.0,0.0,0.0,0.0,0.0,0.0,0.0,0.0,0.0,0.0,0.0,0.0,0.0,0.0,-1.56,-1.5417,-1.56,-1.6555,-1.8353,-1.839,-1.9491,-2.1821,-2.2188,-2.2575,-2.2923,-2.0849,-1.9455,-1.8684,-1.7458,-1.7128,-1.7582,-1.8207,-1.8647,-1.9014,0.0,0.0,0.0,0.0,0.0,0.0,0.0,0.0,0.0,0.0,0.0,0.0,0.0,0.0,0.0,-1.4488,-1.4488,-1.4561,-1.4964,-1.6555,-1.9124,-2.3283,-2.3363,-2.378,-2.8998,-2.5439,-2.2848,-2.9164,-2.8126,-2.7121,0.0,-3.1713,0.0,-4.0924,0.0,0.0,0.0,0.0,0.0,0.0,0.0,0.0,0.0,0.0,0.0,0.0,0.0,0.0,-5.6742,-5.6703,-5.6395,-5.5703,-5.5703,-5.5703,-5.5703,-5.5511,-5.5511,-5.5703,-5.5703,-5.5395,-5.478,-5.5434,-5.5703,-5.5626,-5.4126,-5.4357,-5.5588,-5.4126,-5.4241,-5.5434,-5.5434,-5.5434,-5.5434,-5.5626,-5.5703,-5.5665,0.0,0.0,0.0,0.0,0.0,0.0,0.0,0.0,0.0,0.0,0.0,0.0,0.0,0.0,0.0,0.0,0.0,0.0,0.0,0.0,-1.538,-1.4598,-1.5307,-1.6812,-1.9161,-1.9198,-2.0058,-2.1821,-2.3309,-2.3676,-2.2978,-2.2061,-2.0005,-1.7055,-1.6945,-1.6505,-1.5857,-1.5931,-1.6812,-1.8207,-1.8207,0.0,0.0,0.0,0.0,0.0,0.0,0.0,0.0,0.0,0.0,0.0,0.0,0.0,-1.4488,-1.4488,-1.4488,-1.4818,-1.6321,-1.7385,-1.8794,-2.1606,-2.1495,-2.2959,-3.1669,-2.8056,-2.5094,-3.3096,-3.3151,-3.233,0.0,-3.5837,-3.8529,0.0,0.0,0.0,0.0,0.0,0.0,0.0,0.0,0.0,0.0,0.0,0.0,0.0,0.0,0.0,-5.5818,-5.578,-5.5742,-5.5703,-5.5703,-5.5703,-5.5703,-5.4972,-5.4972,-5.5703,-5.5703,-5.5665,-5.5626,-5.5665,-5.5703,-5.5665,-5.478,-5.4895,-5.5626,-5.4741,-5.4472,-5.4587,-5.4587,-5.4587,-5.4664,-5.5434,-5.5703,-5.5588,0.0,0.0,0.0,0.0,0.0,0.0,0.0,0.0,0.0,0.0,0.0,0.0,0.0,0.0,0.0,0.0,0.0,0.0,0.0,-1.5233,-1.505,-1.5233,-1.5527,-1.6591,-1.85,-1.9051,-2.0131,-2.1821,-2.2905,-2.2758,-2.142,-1.9981,-1.8191,-1.6138,-1.6009,-1.5877,-1.571,-1.6224,-1.6798,-1.7348,-1.7348,-1.7348,0.0,0.0,0.0,0.0,0.0,0.0,0.0,0.0,-1.4488,-1.4488,-1.4488,-1.4488,-1.4488,-1.4488,-1.4488,-1.4634,-1.5221,-1.7105,-1.9664,-2.304,-2.3369,-2.4613,-3.1615,-3.0457,-2.9943,-3.7025,-3.711,-3.6114,0.0,0.0,-4.2428,0.0,0.0,0.0,0.0,0.0,0.0,0.0,0.0,0.0,0.0,0.0,0.0,0.0,0.0,0.0,-5.4203,-5.4164,-5.4164,-5.4164,-5.4164,-5.4164,-5.4164,-5.3857,-5.3857,-5.4164,-5.4164,-5.4164,-5.4164,-5.4703,-5.4934,-5.4972,-5.5164,-5.5126,-5.4934,-5.4626,-5.4164,-5.3703,-5.3703,-5.3519,-5.3383,-5.3651,-5.3766,-5.3728,0.0,0.0,0.0,0.0,0.0,0.0,0.0,0.0,0.0,0.0,0.0,0.0,0.0,0.0,0.0,0.0,0.0,0.0,-1.571,-1.5197,-1.5013,-1.5307,-1.5564,-1.6224,-1.7326,-1.8133,-1.9601,-2.1821,-2.2611,-2.2024,-2.0099,-1.8599,-1.7264,-1.6028,-1.5324,-1.5265,-1.571,-1.594,-1.6245,-1.6505,-1.6505,-1.6505,0.0,0.0,0.0,0.0,0.0,0.0,0.0,0.0,-1.4488,-1.4488,-1.4488,-1.4488,-1.4488,-1.4488,-1.4488,-1.4561,-1.4829,-1.6481,-1.9124,-2.3118,-2.3795,-2.53,-3.2302,-3.2914,-3.3923,-4.0611,-4.1187,-4.0428,-4.0287,0.0,0.0,0.0,0.0,0.0,0.0,0.0,0.0,0.0,0.0,0.0,0.0,0.0,0.0,0.0,0.0,0.0,0.0,-5.3203,-5.3203,-5.3203,-5.3203,-5.3203,-5.3203,-5.2933,-5.2779,-5.2779,-5.2549,-5.2702,-5.3241,-5.3818,-5.4087,-5.4087,-5.4395,-5.4357,-5.4087,-5.378,-5.3318,-5.2779,-5.2779,-5.2532,-5.2234,-5.2501,-5.2527,-5.241,0.0,0.0,0.0,0.0,0.0,0.0,0.0,0.0,0.0,0.0,0.0,0.0,0.0,0.0,0.0,0.0,0.0,0.0,-1.5747,-1.5674,-1.5343,-1.4524,-1.527,-1.5674,-1.5674,-1.6468,-1.85,-2.1784,-2.2575,-2.1694,-1.9234,-1.8463,-1.7642,-1.6821,-1.5057,-1.4792,-1.5637,-1.4658,-1.4792,-1.5674,-1.5674,-1.5674,-1.5857,0.0,0.0,0.0,0.0,0.0,0.0,0.0,-1.4488,-1.4488,-1.4488,-1.4488,-1.4488,-1.4524,-1.4524,-1.4683,-1.549,-1.571,-1.6756,-2.111,-2.203,-2.4442,-3.4241,-3.5439,-3.6562,-4.3764,-4.5419,-4.5532,-4.5243,-4.3805,0.0,0.0,0.0,0.0,0.0,0.0,0.0,0.0,0.0,0.0,0.0,0.0,0.0,0.0,0.0,0.0,0.0,-5.3164,-5.3164,-5.3164,-5.3164,-5.3164,-5.3164,-5.2318,-5.1895,-5.1856,-5.1048,-5.1548,-5.3164,-5.3164,-5.3203,-5.3126,-5.2279,-5.2395,-5.3126,-5.2241,-5.1895,-5.1875,-5.1895,-5.165,-5.137,-5.2234,-5.233,-5.1924,0.0,0.0,0.0,0.0,0.0,0.0,0.0,0.0,0.0,0.0,0.0,0.0,0.0,0.0,0.0,0.0,0.0,0.0,-1.5747,-1.516,-1.4756,-1.4488,-1.4719,-1.4866,-1.4866,-1.6211,-1.7642,-1.9198,-2.0005,-1.9455,-1.7605,-1.7796,-1.7213,-1.6138,-1.7751,-1.7439,-1.5747,-1.6575,-1.6136,-1.4866,-1.4866,-1.5197,-1.5747,0.0,0.0,0.0,0.0,0.0,0.0,0.0,0.0,0.0,-1.4488,-1.4903,-1.5454,-1.6028,-1.5784,-1.5527,-1.6321,-1.7362,-1.8882,-2.1479,0.0,-2.9119,-3.3118,-3.5354,-3.8512,-4.554,-4.6543,-4.591,-4.5019,0.0,0.0,0.0,0.0,0.0,0.0,0.0,0.0,0.0,0.0,0.0,0.0,0.0,0.0,0.0,0.0,0.0,0.0,-4.9625,-4.9894,-5.051,-5.0548,-5.0548,-5.0548,-5.0279,-4.9817,-4.924,-4.9009,-4.9779,-5.1471,-5.2049,-5.2279,-5.2318,-5.2664,-5.2626,-5.2241,-5.1395,-5.0504,-4.9816,-5.0699,-5.0635,-5.0052,-5.0317,-5.0336,-5.0107,0.0,0.0,0.0,0.0,0.0,0.0,0.0,0.0,0.0,0.0,-1.7794,0.0,0.0,0.0,0.0,0.0,0.0,0.0,0.0,-1.56,-1.4976,-1.4976,-1.4683,-1.4488,-1.4488,-1.5771,-1.6505,-1.6665,-1.8133,-1.7986,-1.6431,-1.7103,-1.6972,-1.6248,-1.8042,-1.7839,-1.6211,-1.678,-1.6049,-1.4488,-1.4488,-1.4793,-1.527,0.0,0.0,0.0,0.0,0.0,0.0,0.0,0.0,0.0,-1.4488,-1.527,-1.6151,-1.5991,-1.6065,-1.6408,-1.7546,-1.9132,-2.1384,-2.5205,-2.8688,-3.1948,-3.4967,0.0,0.0,0.0,-4.8924,-4.7886,-4.722,-4.8064,0.0,0.0,0.0,0.0,0.0,0.0,0.0,0.0,0.0,0.0,0.0,0.0,0.0,0.0,0.0,0.0,0.0,-4.8086,-4.8355,-4.8856,-4.8894,-4.8894,-4.8894,-4.8894,-4.8625,-4.8086,-4.8086,-4.8663,-4.9702,-5.0548,-5.0933,-5.0933,-5.1471,-5.1395,-5.0836,-4.9872,-4.9034,-4.8418,-4.9192,-4.8985,-4.8318,-4.8465,-4.8318,-4.8002,0.0,0.0,0.0,0.0,0.0,0.0,0.0,0.0,0.0,0.0,-1.7794,-1.7794,0.0,0.0,0.0,0.0,0.0,0.0,0.0,0.0,-1.56,-1.56,-1.4903,-1.4488,-1.4488,-1.5233,-1.5233,-1.4488,-1.6775,-1.7142,-1.571,-1.6652,-1.7078,-1.6977,-1.7103,-1.7046,-1.6794,-1.5978,-1.5205,-1.4488,-1.4488,-1.4524,-1.4683,-1.5343,0.0,0.0,0.0,0.0,0.0,0.0,0.0,0.0,-1.4488,-1.5551,-1.6505,-1.5111,-1.5808,-1.7399,-1.9096,-2.0871,-2.3813,-3.0309,-3.2127,0.0,-3.9126,-4.3308,-4.7348,-5.1928,0.0,-5.0606,-5.0779,0.0,0.0,0.0,0.0,0.0,0.0,0.0,0.0,0.0,0.0,0.0,0.0,0.0,0.0,0.0,0.0,0.0,0.0,-4.7855,-4.7894,-4.8009,-4.8009,-4.8009,-4.8009,-4.8009,-4.7971,-4.7855,-4.7855,-4.7855,-4.7894,-4.8856,-4.9279,-4.9279,-4.926,-4.9163,-4.9029,-4.7974,-4.7495,-4.7395,-4.7518,-4.7148,-4.652,-4.6902,-4.6576,-4.599,0.0,0.0,0.0,0.0,0.0,0.0,0.0,0.0,0.0,0.0,0.0,0.0,0.0,0.0,0.0,0.0,0.0,0.0,0.0,0.0,-1.4756,-1.4756,-1.4598,-1.4488,-1.4488,-1.4683,-1.4671,-1.4488,-1.5637,-1.6041,-1.5747,-1.7803,-1.8337,-1.7659,-2.0227,-1.9611,-1.6616,-1.708,-1.6223,-1.4488,-1.4488,-1.4866,-1.538,-1.494,-1.505,0.0,0.0,0.0,0.0,0.0,0.0,0.0,-1.4488,-1.516,-1.6004,-1.6285,-1.7092,-1.8374,-2.0914,-2.2179,-2.3839,-2.8035,-3.2451,-3.7431,-4.3886,-4.5854,-4.7073,-4.9682,-4.9716,-4.9767,-5.1355,0.0,0.0,0.0,0.0,0.0,0.0,0.0,0.0,0.0,0.0,0.0,0.0,0.0,0.0,0.0,0.0,0.0,-4.6163,-4.6124,-4.6432,-4.7163,-4.7163,-4.7163,-4.7163,-4.7163,-4.6817,0.0,-4.6124,-4.6124,-4.6201,-4.7702,-4.8394,-4.8337,-4.812,-4.7592,-4.6997,-4.715,-4.6609,-4.5856,-4.7124,-4.7148,-4.6582,-4.7174,-4.6958,-4.6322,0.0,0.0,0.0,0.0,0.0,0.0,0.0,0.0,0.0,0.0,0.0,0.0,0.0,0.0,0.0,0.0,0.0,0.0,0.0,0.0,-1.4903,-1.4524,-1.4488,-1.4488,-1.4488,-1.4488,-1.4488,-1.4488,-1.494,-1.5257,-1.5532,-1.7169,-1.7824,-1.7646,-1.9435,-1.8823,-1.6504,-1.6616,-1.5823,-1.4488,-1.4488,-1.4756,-1.5086,-1.4683,-1.4756,-1.5086,-1.4646,0.0,0.0,0.0,0.0,0.0,0.0,0.0,-1.6224,-1.5845,-1.6578,-1.7904,-1.975,-2.2637,-2.6564,-3.243,0.0,-4.1774,-4.4787,-4.609,-4.7069,-4.8491,-4.8971,-4.9332,0.0,0.0,0.0,0.0,0.0,0.0,0.0,0.0,0.0,0.0,0.0,0.0,0.0,0.0,0.0,0.0,0.0,-4.6086,-4.5624,-4.5586,-4.5817,-4.6278,-4.6278,-4.6278,-4.6278,-4.6278,-4.6047,-4.5586,-4.5586,-4.5532,-4.5419,-4.6684,-4.7489,-4.7813,-4.7067,-4.6467,-4.6025,-4.5725,-4.5215,-4.4699,-4.5546,-4.5565,-4.5148,-4.5651,-4.5506,-4.5012,0.0,0.0,0.0,0.0,0.0,0.0,0.0,0.0,0.0,0.0,0.0,0.0,0.0,0.0,0.0,0.0,0.0,0.0,0.0,0.0,0.0,-1.4489,-1.4476,-1.4488,-1.4488,-1.4488,-1.4488,-1.4488,-1.4488,-1.5049,-1.616,-1.6792,-1.7343,-1.7751,-1.7806,-1.7222,-1.6161,-1.5433,-1.4836,-1.4453,-1.4453,-1.4464,-1.4488,-1.4488,-1.4488,-1.4488,-1.4488,-1.4488,-1.4488,-1.4488,0.0,0.0,0.0,0.0,-1.6211,-1.4891,-1.5625,-1.7105,-1.8093,-2.2994,-2.9734,-3.7697,-4.18,0.0,-4.4075,-4.5074,-4.6262,-4.7376,-4.8375,0.0,0.0,0.0,0.0,0.0,0.0,0.0,0.0,0.0,0.0,0.0,0.0,0.0,0.0,0.0,0.0,0.0,0.0,-4.5586,-4.5586,-4.5586,-4.5586,-4.5586,-4.5586,-4.5586,-4.5586,-4.5586,-4.5586,-4.5586,-4.555,-4.5381,-4.5115,-4.5673,-4.6335,-4.7029,-4.5961,-4.5499,-4.5396,-4.4356,-4.3912,-4.3943,-4.3967,-4.3823,-4.3529,-4.3974,-4.3849,-4.3532,0.0,0.0,0.0,0.0,0.0,0.0,0.0,0.0,0.0,0.0,-1.7794,0.0,0.0,0.0,0.0,0.0,0.0,0.0,0.0,0.0,0.0,-1.4281,-1.4417,-1.4488,-1.4488,-1.4488,-1.4488,-1.4488,-1.4488,-1.6228,-1.9542,-1.9543,-1.9349,-1.9044,-1.9129,-1.7596,-1.4984,-1.4181,-1.4019,-1.4245,-1.4245,-1.4332,-1.4488,-1.4488,-1.4488,-1.4488,-1.4488,-1.4488,-1.4488,-1.4488,-1.4488,0.0,0.0,0.0,-1.4781,-1.4561,-1.5625,-1.7269,-1.9027,-2.4211,-3.0584,0.0,-3.7447,-3.835,0.0,0.0,-4.2757,0.0,0.0,0.0,0.0,0.0,0.0,0.0,0.0,0.0,0.0,0.0,0.0,0.0,0.0,0.0,0.0,0.0,0.0,0.0,-4.5586,-4.5586,-4.5586,-4.5586,-4.5586,-4.5586,-4.5586,-4.5586,-4.5586,-4.5586,-4.5586,-4.5586,-4.5283,-4.5159,-4.5094,-4.4568,-4.4571,-4.4978,-4.4486,-4.4237,-4.4207,-4.373,-4.3563,-4.3597,-4.3881,-4.3823,-4.3563,-4.427,-4.4095,-4.3529,0.0,0.0,0.0,0.0,0.0,0.0,0.0,0.0,0.0,0.0,0.0,0.0,0.0,0.0,0.0,0.0,0.0,0.0,0.0,0.0,0.0,-1.4206,-1.4405,-1.4488,-1.4488,-1.494,-1.494,-1.4488,-1.494,-1.7329,-2.1414,-2.1375,-2.1093,-2.0732,-2.0921,-1.8949,-1.5435,-1.5918,-1.5295,-1.4074,-1.4585,-1.4642,-1.4392,-1.4803,-1.4707,-1.438,-1.4662,-1.4765,-1.4742,-1.4427,-1.4598,-1.4888,-1.4599,0.0,0.0,0.0,-1.5001,-1.6485,-2.0664,-2.3558,-2.7253,0.0,-3.5608,-3.6023,-4.1739,-4.1681,-4.1127,-4.3503,0.0,0.0,0.0,0.0,0.0,0.0,0.0,0.0,0.0,0.0,0.0,0.0,0.0,0.0,0.0,0.0,0.0,0.0,-4.4201,-4.4201,-4.4201,-4.4201,-4.4201,-4.4201,-4.4624,-4.4662,-4.4201,-4.4662,-4.4784,-4.4594,-4.4265,-4.4234,-4.4482,-4.4146,-4.4087,-4.4233,-4.3881,-4.3726,-4.3693,-4.3563,-4.3497,-4.3495,-4.366,-4.3631,-4.3566,-4.3886,-4.3758,-4.3532,0.0,0.0,0.0,0.0,0.0,0.0,0.0,0.0,0.0,0.0,0.0,0.0,0.0,0.0,0.0,0.0,0.0,0.0,0.0,0.0,0.0,-1.4038,-1.4245,-1.4356,-1.4429,-1.5026,-1.505,-1.4488,-1.5086,-1.765,-2.1942,-2.2437,-2.2687,-2.2726,-2.2538,-2.0396,-1.6993,-1.7727,-1.6835,-1.4992,-1.5522,-1.5202,-1.445,-1.501,-1.4866,-1.4472,-1.5081,-1.5302,-1.5243,-1.488,-1.5152,-1.549,-1.4977,-1.4793,0.0,0.0,0.0,-1.5563,-2.0487,0.0,-2.3685,-3.1311,-3.2391,-3.2882,0.0,0.0,-3.8769,0.0,0.0,0.0,0.0,0.0,0.0,0.0,0.0,0.0,0.0,0.0,0.0,0.0,0.0,0.0,0.0,0.0,0.0,0.0,-4.3085,-4.3085,-4.3085,-4.3085,-4.3085,-4.3085,-4.3662,-4.3701,-4.3124,-4.3611,-4.3695,-4.3368,-4.3026,-4.3052,-4.3401,-4.328,-4.3361,-4.3553,-4.3487,-4.3497,-4.3497,-4.3497,-4.3497,-4.3497,-4.3497,-4.3497,-4.3497,-4.3497,-4.3497,-4.3497,0.0,0.0,0.0,0.0,0.0,0.0,0.0,0.0,0.0,0.0,0.0,0.0,-1.7794,-1.6576,-1.6021,-1.6787,0.0,0.0,0.0,0.0,0.0,-1.3667,-1.3827,0.0,-1.4219,-1.4268,-1.4344,-1.4488,-1.4524,-1.6652,-2.0616,-2.2556,-2.41,-2.5252,-2.3603,-2.1719,-1.9688,-1.8369,-1.7825,-1.7831,-1.7181,-1.6115,-1.4945,-1.498,-1.498,-1.5051,-1.5849,-1.6149,-1.6165,-1.632,-1.6396,-1.6333,-1.5793,-1.5637,-1.549,0.0,0.0,0.0,-1.6959,-1.9031,0.0,-2.4737,-2.571,-2.6982,0.0,0.0,0.0,0.0,0.0,0.0,0.0,0.0,0.0,0.0,0.0,0.0,0.0,0.0,0.0,0.0,0.0,0.0,0.0,0.0,0.0,0.0,-4.3085,-4.3085,-4.3085,-4.3085,-4.3085,-4.3085,-4.3124,-4.3124,-4.3085,-4.2833,-4.2514,-4.2181,-4.1863,-4.1707,-4.1716,-4.1409,-4.1658,-4.243,-4.3201,-4.3497,-4.3497,-4.3497,-4.3497,-4.3497,-4.3497,-4.3497,-4.3497,-4.3497,-4.3497,-4.3497,0.0,0.0,0.0,0.0,0.0,0.0,0.0,0.0,0.0,0.0,0.0,0.0,0.0,-1.732,-1.6915,-1.6733,-1.5595,0.0,0.0,0.0,0.0,-1.3601,-1.3798,-1.3997,-1.4206,-1.458,-1.4621,-1.4307,-1.4711,-1.6427,-1.9416,-2.017,-2.1434,-2.3267,-2.6475,-2.4971,-2.0103,-2.1995,-2.0382,-1.67,-1.8949,-1.8128,-1.5732,-1.7155,-1.7379,0.0,0.0,0.0,-1.7769,-1.6534,-1.6098,-1.6025,-1.5584,-1.5129,-1.4696,-1.4538,-1.4866,-1.5502,-1.6694,0.0,0.0,-2.2039,-2.1803,-2.1996,-2.6894,-2.9299,0.0,0.0,0.0,0.0,0.0,0.0,0.0,0.0,0.0,0.0,0.0,0.0,0.0,0.0,0.0,0.0,0.0,0.0,0.0,0.0,0.0,-4.0125,-4.1354,-3.96,-3.9338,-4.1131,-4.0997,-4.1182,-4.1677,-4.0797,-4.0541,-4.0948,-4.0659,-4.0775,-4.1261,-4.114,-4.1258,-4.1552,-4.1846,-4.2543,-4.3461,-4.2947,-4.302,-4.3497,-4.3497,-4.3497,-4.3497,-4.3497,-4.3497,-4.3497,0.0,0.0,0.0,0.0,0.0,0.0,0.0,0.0,0.0,-1.7479,0.0,0.0,0.0,0.0,-1.6407,-1.5649,-1.4682,-1.3904,-1.3447,-1.3477,-1.3542,-1.3542,-1.3648,-1.3813,-1.3997,-1.4394,-1.4423,-1.4092,-1.4766,-1.605,-1.8004,-1.9037,-2.0159,-2.1533,-2.6318,-2.5734,-2.1346,-2.4086,-2.2665,-1.8765,-2.0585,-2.0072,-1.8385,-1.9464,0.0,0.0,0.0,0.0,0.0,0.0,-1.7689,-1.6817,-1.6637,-1.5663,-1.457,-1.4453,-1.5014,-1.5747,-1.6028,-1.5894,0.0,-1.872,-1.8537,-1.8595,-2.2055,0.0,0.0,0.0,0.0,0.0,0.0,0.0,0.0,0.0,0.0,0.0,0.0,0.0,0.0,0.0,0.0,0.0,0.0,0.0,0.0,0.0,0.0,0.0,-3.9912,-3.8232,-3.7898,-3.9485,-3.9094,-3.9203,-3.9876,-3.91,-3.9063,-3.9777,-3.9583,-3.979,-4.0304,-4.0304,-4.0451,-4.0671,-4.0414,-4.1222,-4.2653,-4.2139,-4.2359,-4.3094,-4.3094,-4.324,-4.3497,-4.3497,-4.3497,-4.3497,0.0,0.0,0.0,0.0,0.0,0.0,0.0,0.0,-1.7535,-1.6834,0.0,0.0,0.0,0.0,0.0,-1.3549,-1.3447,-1.3413,-1.3413,-1.3413,-1.3413,-1.3413,0.0,0.0,-1.3601,-1.3601,-1.3693,-1.3899,-1.4647,-1.5423,-1.6304,-1.9388,-2.0617,-2.0338,-2.2807,-2.366,-2.3274,-2.415,-2.4455,-2.4184,0.0,-2.197,-2.2673,0.0,0.0,0.0,-2.3579,-2.2836,0.0,-2.2717,0.0,0.0,0.0,0.0,0.0,0.0,0.0,-1.5564,0.0,0.0,0.0,-1.4719,-1.5698,0.0,-1.6835,0.0,-2.5678,0.0,0.0,0.0,0.0,0.0,0.0,0.0,0.0,0.0,0.0,0.0,0.0,0.0,0.0,0.0,0.0,0.0,0.0,0.0,-3.9267,-3.9337,-3.8956,-3.9342,-3.9165,-3.8335,-3.7565,-3.7393,-3.7851,-3.7851,-3.8109,-3.8615,-3.8615,-3.8615,-3.8615,-3.8615,-3.9056,-3.9753,-3.8982,-3.9533,-4.1001,-4.1075,-4.1552,-4.2286,-4.2286,-4.2763,-4.3461,-4.3497,-4.3461,-4.3461,0.0,0.0,0.0,0.0,0.0,0.0,-1.8612,-1.8367,-1.8004,0.0,0.0,0.0,-1.6766,-1.5866,-1.5223,-1.502,-1.4513,-1.3971,-1.3447,-1.3413,-1.3413,-1.3413,-1.3413,-1.3479,-1.3601,-1.4024,-1.4058,-1.3693,-1.4865,-1.5274,-1.5018,-1.6448,-1.6752,-1.6257,-1.9098,-1.9972,-1.9587,-2.3004,-2.2931,-2.0771,-2.4492,-2.36,0.0,0.0,0.0,0.0,0.0,-2.3345,-2.2489,0.0,-2.2513,-1.8929,0.0,0.0,-1.4994,0.0,0.0,-1.6762,-1.4965,0.0,0.0,0.0,0.0,0.0,-1.5294,-1.817,-2.1123,0.0,0.0,0.0,0.0,0.0,0.0,0.0,0.0,0.0,0.0,0.0,0.0,0.0,0.0,0.0,0.0,0.0,0.0,0.0,-3.7897,-3.8037,-3.9315,-3.8737,-3.7641,-3.6007,-3.634,-3.6619,-3.6731,-3.6731,-3.6822,-3.6964,-3.6964,-3.6964,-3.6964,-3.6964,-3.7074,-3.7294,-3.7074,-3.7551,-3.8579,-3.9753,-4.0708,-4.1515,-4.2066,-4.2433,-4.269,-4.3277,-4.313,-4.2727,0.0,0.0,0.0,0.0,0.0,-1.892,-1.8334,-1.8152,-1.7861,0.0,0.0,0.0,-1.636,-1.5561,-1.5155,-1.5155,-1.4749,-1.4445,-1.4328,-1.4039,-1.387,-1.387,-1.3583,-1.3565,-1.3989,-1.4329,-1.4465,-1.4435,-1.5537,-1.5832,-1.5426,-1.617,-1.6136,-1.5494,-1.7219,-1.7726,-1.7557,-2.0771,0.0,0.0,-2.4492,0.0,0.0,-2.5809,-2.5295,0.0,0.0,0.0,-2.5667,-2.6949,-2.4397,0.0,0.0,0.0,0.0,0.0,0.0,-1.7374,-1.5903,-1.6542,-1.7238,-1.5845,0.0,0.0,-1.5123,-1.7509,-1.9895,0.0,0.0,0.0,0.0,0.0,0.0,0.0,0.0,0.0,0.0,0.0,0.0,0.0,0.0,0.0,0.0,-3.637,-3.6829,-3.7338,-3.6967,-3.7131,-3.8177,-3.6954,-3.5816,-3.5055,-3.5165,-3.5422,-3.5752,-3.5752,-3.5936,-3.6303,-3.6303,-3.6303,-3.6303,-3.6303,-3.6303,-3.6303,-3.6303,-3.656,-3.7074,-3.8358,-3.957,-4.0671,-4.1111,-4.1515,-4.1882,-4.2323,-4.2396,-4.2323,0.0,0.0,-1.7999,-1.7168,-1.8286,-1.8858,-1.7593,-1.7599,-1.7434,0.0,-1.7219,-1.731,-1.5866,-1.5223,-1.4765,-1.4528,-1.4629,-1.4952,-1.546,-1.4915,-1.4525,-1.4458,-1.3835,-1.3734,-1.4323,-1.4461,-1.4817,-1.5494,-1.6292,-1.6699,-1.6733,-1.7456,-1.7422,-1.6699,-1.68,0.0,-1.68,0.0,0.0,-2.4966,-2.3342,-2.5586,0.0,0.0,-2.7947,-2.8273,-3.0838,-3.0582,-2.9126,-2.9395,-2.6585,0.0,0.0,0.0,0.0,0.0,-1.8458,-1.792,-1.7219,-1.7165,-1.7238,-1.6982,-1.6518,0.0,-1.5637,-1.7913,-2.0319,-2.1106,0.0,0.0,0.0,0.0,0.0,0.0,0.0,0.0,0.0,0.0,0.0,0.0,0.0,0.0,-3.3831,-3.4041,-3.4568,-3.5571,-3.6272,-3.6525,-3.6185,-3.4724,-3.4211,-3.4844,-3.4174,-3.41,-3.4734,-3.4734,-3.5092,-3.5752,-3.5752,-3.5789,-3.5899,-3.5899,-3.5936,-3.6009,-3.6009,-3.6083,-3.6193,-3.6927,-3.8175,-3.9643,-3.9827,-4.0341,-4.1001,-4.1075,-4.1515,-4.1956,0.0,-1.7119,-1.7775,-1.8374,-1.854,-1.8515,-1.8219,-1.774,-1.7412,-1.7486,-1.7909,-1.7771,-1.6623,-1.6881,-1.642,-1.4663,-1.5595,-1.5832,-1.4783,-1.4888,-1.4754,-1.4198,-1.3974,-1.3691,-1.3317,-1.41,-1.4562,-1.4697,-1.6035,-1.6699,-1.6733,-1.7456,-1.7422,-1.6733,-1.732,-1.7253,-1.6766,0.0,0.0,-2.2226,-2.4188,0.0,-2.5122,-2.7741,-2.6962,-2.5009,-2.9776,-3.0092,-2.8279,-2.8655,-2.8227,-2.6716,0.0,0.0,0.0,-1.7854,0.0,0.0,0.0,0.0,0.0,0.0,0.0,0.0,-1.5307,-1.6211,-1.7642,0.0,0.0,0.0,0.0,0.0,0.0,0.0,0.0,0.0,0.0,0.0,0.0,0.0,0.0,0.0,-3.2035,-3.3103,-3.3976,-3.4201,-3.556,-3.6029,-3.5312,-3.4917,-3.4541,-3.4064,-3.388,-3.355,-3.3046,-3.3046,-3.2852,-3.2339,-3.2339,-3.2706,-3.333,-3.333,-3.3697,-3.4284,-3.4284,-3.4651,-3.5275,-3.5422,-3.6486,-3.8132,-3.9386,-4.001,-4.0194,-4.0855,-4.0781,-4.0451,-1.565,-1.6353,-1.7058,-1.7515,-1.7909,-1.7837,-1.7004,-1.6952,-1.6926,-1.6596,-1.6825,-1.6946,-1.6731,-1.6394,-1.6032,-1.5627,-1.5517,-1.5517,-1.5649,-1.5036,-1.4722,-1.4886,-1.4498,-1.44,-1.4607,-1.4948,-1.5341,-1.5908,-1.6631,-1.6907,-1.6769,-1.7467,-1.73,-1.6497,-1.7389,-1.73,-1.6497,0.0,-1.8781,-2.0559,-2.2979,0.0,-2.5338,-2.7977,-2.7807,-2.6655,-3.0124,-3.0362,-2.913,-2.9207,-2.8687,0.0,0.0,-2.3789,-2.2255,0.0,-2.0622,-2.0963,0.0,0.0,0.0,-1.9109,0.0,0.0,0.0,-1.6321,-1.7018,-1.7422,0.0,0.0,0.0,0.0,0.0,0.0,0.0,0.0,0.0,0.0,0.0,0.0,0.0,0.0,-3.1626,-3.1982,-3.2366,-3.2773,-3.3471,-3.3844,-3.378,-3.344,-3.322,-3.322,-3.2816,-3.2412,-3.2008,-3.2008,-3.1788,-3.1384,-3.1384,-3.1604,-3.2008,-3.2412,-3.2816,-3.322,-3.3623,-3.4027,-3.4431,-3.4807,-3.5752,-3.7,-3.8212,-3.8689,-3.8799,-3.9606,-3.99,-3.9868,-1.5081,-1.5655,-1.6177,-1.6456,-1.7105,-1.7151,-1.5858,-1.626,-1.6402,-1.5609,-1.5763,-1.6263,-1.6987,-1.5693,-1.5415,-1.7087,-1.5738,-1.5336,-1.6606,-1.5612,-1.5068,-1.5327,-1.4924,-1.5065,-1.5808,-1.5598,-1.6,-1.697,-1.697,-1.6922,-1.6799,-1.7425,-1.7232,-1.645,-1.739,-1.749,-1.6994,0.0,0.0,-2.0223,0.0,-2.4188,-2.6285,-2.8247,-2.8789,-2.8796,-3.0381,-3.07,-3.0271,-2.9823,-2.8757,-2.7719,-2.8141,-2.6021,0.0,0.0,0.0,0.0,0.0,0.0,0.0,0.0,0.0,-1.8669,0.0,0.0,0.0,-1.7619,0.0,0.0,0.0,0.0,0.0,0.0,0.0,0.0,0.0,0.0,0.0,0.0,0.0,0.0,-3.0039,-2.98,-3.0134,-3.1399,-3.1297,-3.1531,-3.2339,-3.1751,-3.1678,-3.2375,-3.1751,-3.1311,-3.1164,-3.1164,-3.1091,-3.0944,-3.0944,-3.1017,-3.1201,-3.2008,-3.2449,-3.2632,-3.344,-3.3807,-3.3844,-3.4504,-3.5145,-3.5813,-3.689,-3.7441,-3.7771,-3.8156,-3.8821,-3.9374,-1.6159,-1.5679,-1.5455,-1.6926,-1.6794,-1.6604,-1.7014,-1.667,-1.6324,-1.6177,-1.6732,-1.7439,-1.83,-1.648,-1.6302,-1.8936,-1.7813,0.0,-1.632,0.0,-1.6622,-1.4135,-1.4744,-1.4906,-1.4451,-1.464,-1.5097,-1.5895,-1.5895,-1.6191,-1.6831,-1.7175,-1.7311,-1.7188,-1.7625,-1.8481,-1.9614,0.0,-2.1278,0.0,-2.4326,-2.4661,0.0,-2.7638,-2.8146,-2.7199,-2.9108,-3.0264,-3.0658,0.0,-2.891,-2.8336,0.0,-2.5542,-2.3432,-2.3976,0.0,0.0,0.0,0.0,0.0,0.0,-2.137,0.0,0.0,0.0,-1.8427,-1.6371,0.0,0.0,0.0,0.0,0.0,0.0,0.0,0.0,0.0,0.0,0.0,0.0,0.0,0.0,0.0,-2.5203,-2.719,-3.0171,-3.0344,-3.0687,-3.1494,-3.1458,-3.1421,-3.1531,-3.1458,-3.1054,-3.0356,-3.0356,-2.9989,-2.9269,-2.9269,-2.9659,-3.0356,-3.1164,-3.1935,-3.2632,-3.344,-3.3807,-3.3807,-3.3917,-3.3761,-3.3719,-3.5674,-3.7294,-3.8407,-3.7334,-3.7455,-3.8072,-1.5441,-1.4872,-1.4686,-1.618,-1.6484,-1.6514,-1.6452,-1.6179,-1.6026,-1.6026,-1.6239,-1.7304,0.0,0.0,0.0,0.0,0.0,-1.9707,0.0,0.0,-1.7439,-1.689,-1.6008,-1.5364,-1.5031,-1.5198,-1.5536,-1.6051,-1.6051,-1.6129,-1.6246,-1.6977,-1.697,-1.641,-1.7365,0.0,-1.9177,0.0,-2.1771,0.0,0.0,0.0,0.0,-2.7402,-2.8049,-2.7602,-2.6884,-2.7757,-2.8762,0.0,-2.7478,0.0,0.0,0.0,0.0,-2.5928,0.0,0.0,0.0,0.0,0.0,0.0,0.0,0.0,-1.9474,0.0,-1.7766,0.0,0.0,0.0,0.0,0.0,0.0,0.0,-1.4417,0.0,0.0,0.0,0.0,0.0,0.0,0.0,0.0,0.0,0.0,0.0,-2.7163,-2.775,-2.8558,-2.9512,-3.021,-3.0687,-3.0246,-2.9843,-2.9512,-2.9989,-2.9806,-2.9012,-2.9475,-2.9622,-2.9549,-3.0356,-3.1127,-3.1935,-3.2742,-3.3366,-3.378,-3.355,-3.3604,-3.3888,-3.4042,-3.5019,-3.6422,-3.6325,-3.6827,-3.7433,-1.4885,-1.4433,-1.4423,-1.5619,-1.6159,-1.6308,-1.5888,-1.6728,-1.7297,0.0,0.0,0.0,-2.0961,-1.953,0.0,0.0,-2.2352,-2.1724,0.0,0.0,-1.876,0.0,0.0,0.0,0.0,-1.601,-1.5919,-1.5966,-1.6264,-1.6235,-1.597,-1.6773,-1.6784,-1.6185,-1.7276,-1.8195,-1.8992,0.0,-2.2517,-2.3744,-2.5173,-2.5913,-2.6319,-2.7199,-2.7675,-2.7702,-2.5771,-2.6247,-2.7344,-2.4733,-2.6337,0.0,-2.7478,0.0,-2.6957,0.0,0.0,0.0,-2.4548,0.0,0.0,0.0,0.0,0.0,0.0,0.0,0.0,0.0,0.0,0.0,0.0,0.0,0.0,-1.4709,0.0,-1.4265,0.0,0.0,0.0,0.0,0.0,0.0,0.0,0.0,0.0,-2.3786,-2.441,-2.5181,-2.6209,-2.7824,-2.8962,-2.9512,-2.9182,-2.8975,-2.8975,-2.9806,-2.9806,-2.9012,-2.9843,-2.9769,-2.9012,-2.9843,-3.0503,-3.1127,-3.2155,-3.2873,-3.3314,-3.3212,-3.3368,-3.3612,-3.268,-3.3038,-3.4228,-3.5148,-3.5995,-3.6622,-1.5061,-1.4918,-1.4989,-1.5679,-1.5829,-1.5829,-1.5799,0.0,0.0,0.0,0.0,0.0,0.0,0.0,0.0,0.0,0.0,-2.2026,-2.404,0.0,-2.1158,0.0,0.0,-1.6016,0.0,-1.6775,-1.5785,-1.512,-1.6186,-1.6547,-1.6301,-1.6675,-1.6977,-1.7263,-1.7658,-1.8582,-2.0103,-2.2361,-2.4188,-2.5711,-2.7943,-2.8383,-2.7637,0.0,-2.6725,-2.6759,-2.6657,0.0,0.0,-2.6721,-2.6199,0.0,0.0,0.0,0.0,0.0,0.0,0.0,0.0,0.0,0.0,-2.3656,0.0,0.0,0.0,0.0,-1.8932,0.0,0.0,0.0,0.0,0.0,-1.526,-1.526,-1.4662,0.0,0.0,0.0,0.0,0.0,0.0,0.0,0.0,-1.8977,-2.0409,-2.2868,-2.3052,-2.3786,-2.5348,-2.6943,-2.786,-2.786,-2.8631,-2.8975,-2.8975,-2.9806,-2.9806,-2.9012,-2.9843,-2.9769,-2.9012,-2.9843,-3.021,-3.032,-3.1935,-3.2383,-3.2119,-3.2877,-3.2699,-3.1878,-3.1842,-3.2029,-3.2496,-3.3727,-3.4649,-3.5371,-1.5894,-1.5918,-1.6129,-1.6338,0.0,0.0,0.0,-1.7861,0.0,0.0,0.0,0.0,0.0,-2.6256,-2.6,0.0,0.0,-2.8414,-2.7794,-2.6404,0.0,0.0,0.0,-1.9777,0.0,0.0,0.0,-1.469,-1.6032,-1.6308,-1.5536,-1.6405,-1.685,-1.6977,-1.7566,-1.8616,0.0,0.0,0.0,0.0,0.0,-2.7469,-2.6488,0.0,-2.7571,-2.6691,-2.6691,-2.6791,0.0,-2.5605,-2.6258,-2.7542,-2.7607,-2.6817,-2.6437,-2.9357,-2.7486,0.0,0.0,0.0,-2.8036,-2.6874,0.0,0.0,0.0,0.0,0.0,0.0,0.0,0.0,0.0,0.0,-1.5269,-1.5806,-1.4717,-1.4064,0.0,0.0,0.0,0.0,0.0,0.0,0.0,0.0,0.0,-1.8852,-1.9439,-2.0005,-2.0556,-2.4153,-2.6229,-2.6229,-2.8044,-2.8975,-2.8975,-2.9806,-2.9806,-2.9012,-2.9843,-2.9769,-2.9012,-2.9292,-2.9539,-2.9813,-3.0358,-3.1,-3.1586,-3.155,-3.1672,-3.1771,-3.1507,-3.1482,-3.1704,-3.2576,-3.3714,-3.4832,-1.6094,-1.6372,-1.6897,0.0,0.0,0.0,0.0,0.0,0.0,0.0,-2.36,0.0,-2.9707,0.0,-2.9451,0.0,-3.0277,-3.0483,-3.0642,-2.7594,0.0,-2.8178,-2.465,0.0,0.0,0.0,0.0,0.0,-1.7004,-1.6873,-1.6542,-1.6721,-1.685,-1.7002,-1.7566,-1.82,-1.9012,-2.182,-2.3985,0.0,0.0,-2.7232,0.0,0.0,-2.7503,-2.7063,0.0,-2.6691,-2.659,-2.5913,-2.6747,-2.7993,-2.7604,-2.7557,-2.8012,-2.9719,-2.8152,-2.6274,-2.8264,-2.879,0.0,-2.8336,-2.7282,0.0,-2.4824,0.0,0.0,0.0,0.0,0.0,0.0,0.0,-1.65,-1.65,-1.5332,-1.4468,0.0,-1.4185,0.0,0.0,0.0,0.0,0.0,-1.6555,-1.6334,-1.6872,-1.7385,-1.7803,0.0,-2.2464,-2.4961,-2.4961,-2.7603,-2.8975,-2.8975,-2.9806,-2.9806,-2.9012,-2.9843,-2.9769,-2.8975,-2.8975,-2.9065,-2.9196,-2.9475,-2.9891,-3.0331,-3.0593,-3.0905,-3.1205,-3.1172,-3.119,-3.1292,-3.2002,-3.3051,-3.4167,-1.5785,-1.6411,0.0,0.0,-1.7963,0.0,0.0,0.0,-2.3615,0.0,-2.7229,-2.7224,-2.958,-2.8455,-2.8398,-3.0426,-2.8397,-2.8541,-3.208,-2.6528,0.0,0.0,-2.4793,-2.2951,-2.5921,0.0,0.0,0.0,0.0,-1.8359,-1.9208,-1.7578,-1.7016,-1.7329,-1.7669,0.0,-1.7004,-2.0771,-2.2767,-2.368,-2.6455,-2.7603,-2.7536,-2.615,-2.6556,-2.7739,-2.6996,-2.6725,-2.686,-2.7537,-2.7537,-2.7514,-2.9036,-2.975,-3.0243,-3.1013,-3.1257,-3.1225,-3.1193,-3.0698,-2.9783,-2.8282,-2.7801,0.0,0.0,0.0,-2.4103,0.0,0.0,0.0,0.0,0.0,0.0,-1.7383,-1.6452,-1.5604,-1.4633,0.0,-1.3636,0.0,0.0,0.0,0.0,-1.6308,-1.6748,-1.6735,-1.6748,-1.7151,0.0,-2.175,-2.3969,-2.419,-2.7105,-2.8792,-2.8975,-2.9672,-2.9672,-2.9012,-2.9769,-2.9732,-2.8975,-2.8975,-2.8749,-2.8448,-2.917,-2.9047,-2.8485,-2.9972,-3.0415,-3.0176,-3.092,-3.119,-3.1292,-3.2002,-3.2747,-3.3355,-1.6449,-1.7023,-1.7853,0.0,-1.9786,-2.0837,0.0,0.0,0.0,0.0,-2.9278,-3.1043,-3.1707,-3.3986,-3.3755,-2.9493,-3.0749,0.0,0.0,0.0,0.0,-3.2647,-3.0678,-2.8409,-2.6038,-2.6426,0.0,-2.204,0.0,-2.0382,-1.9823,-1.8034,-1.7381,-1.7753,-1.812,-1.7966,-1.776,-2.1515,-2.3545,-2.4222,-2.4141,-2.4976,-2.6116,0.0,-2.6894,-2.8518,-2.7165,-2.7063,-2.7469,-2.7097,-2.6928,-2.7028,-2.7947,-2.8322,-2.8527,-2.9032,-2.9164,-2.9228,-2.9571,-2.9699,-2.9789,-3.0317,-2.9097,-2.7706,0.0,0.0,0.0,0.0,0.0,0.0,0.0,0.0,0.0,-1.9185,-1.7679,-1.6047,0.0,0.0,0.0,-1.3671,0.0,-1.4602,-1.4387,-1.4675,-1.4846,-1.4687,-1.4796,-1.5528,0.0,0.0,-2.0914,-2.4116,-2.4215,-2.5783,-2.8975,-2.7812,-2.7812,-2.8975,-2.9195,-2.9195,-2.8975,-2.87,-2.836,-2.8037,-2.793,-2.7924,-2.8015,-2.9002,-2.9678,-3.0176,-3.092,-3.119,-3.1292,-3.2002,-3.2408,-3.2645,-1.6981,0.0,0.0,-1.8688,0.0,0.0,-2.2999,0.0,0.0,-2.9192,-3.1279,0.0,-3.3313,-3.6127,-3.6253,-3.1987,-3.1218,0.0,-3.1161,0.0,0.0,-3.3784,-3.2437,-3.0231,-2.7225,-2.7816,0.0,-2.3762,0.0,-2.1243,-2.1171,-1.8686,-1.7662,-1.7904,-1.8409,-1.8306,-1.8031,-2.1448,-2.3714,-2.4932,-2.4305,-2.4874,0.0,-2.5744,-2.7029,-2.8822,-2.7638,-2.7469,-2.7739,-2.7334,-2.7199,-2.73,-2.8078,-2.8552,-2.8859,-2.9074,-2.8905,-2.8836,-2.9763,-2.9661,-2.9626,-3.0976,-3.0312,-2.9268,-2.9213,-2.8356,-2.7334,0.0,-2.6116,-2.5575,0.0,0.0,0.0,0.0,0.0,0.0,0.0,0.0,0.0,0.0,-1.4658,-1.4742,-1.3787,-1.3913,-1.4167,-1.4403,-1.4189,0.0,0.0,0.0,-2.0136,-2.1733,-2.4295,-2.6103,-2.7006,-2.6982,-2.7317,-2.8044,-2.8044,-2.8225,-2.8525,-2.8281,-2.7974,-2.7636,-2.7396,-2.7291,-2.7402,-2.8518,-2.9228,-2.9702,-3.0784,-3.119,-3.1258,-3.1664,-3.1799,-3.1867,-1.7555,0.0,0.0,0.0,0.0,0.0,0.0,-2.6329,0.0,-3.2733,0.0,-3.3392,-3.4166,-3.6111,-3.6709,-3.5121,0.0,-3.0069,-3.3898,-2.8828,-2.8396,-3.4382,-3.2228,-3.0283,-2.9026,-2.8308,-2.7382,0.0,-2.2838,-2.1812,-2.2928,-1.9561,-1.8087,-1.8194,-1.8826,0.0,0.0,-2.0887,-2.3211,-2.5473,-2.5441,-2.5813,-2.6353,-2.6015,-2.7165,-2.889,-2.8213,-2.7977,-2.7943,-2.7705,-2.7705,-2.7943,-2.8721,-2.9431,-2.9973,-3.0074,-2.9567,-2.9262,-3.0548,-3.004,-2.9431,-3.0717,-3.1123,-3.1021,-3.0412,-3.0176,-3.0108,-3.0108,-2.8958,-2.7774,0.0,0.0,0.0,0.0,0.0,0.0,0.0,0.0,0.0,0.0,0.0,0.0,-1.3616,-1.3698,-1.4153,-1.4839,-1.4259,0.0,0.0,0.0,-2.0155,-1.9178,-2.5052,-2.7154,-2.4908,-2.6543,-2.7295,-2.7157,-2.6925,-2.7181,-2.7897,-2.784,-2.7636,-2.7303,-2.7241,-2.7019,-2.6793,-2.8247,-2.8958,-2.9262,-3.0649,-3.119,-3.119,-3.119,-3.1151,-3.1112,-1.8793,0.0,0.0,0.0,0.0,-2.4333,-2.8925,-3.2377,-3.4031,-3.2859,-3.4949,-3.5577,-3.3152,-3.5548,-3.6008,-3.2566,-3.2431,0.0,0.0,0.0,0.0,-3.522,-3.3814,-3.2347,-3.1004,-3.0342,-2.9867,-2.9649,-2.5799,-2.4307,-2.4991,-2.0984,-1.9279,-1.9642,-2.0106,0.0,-2.3139,-2.0304,0.0,-2.4661,-2.4377,-2.4508,-2.5067,-2.6793,-2.8078,-2.8958,-2.8822,-2.8789,-2.8586,-2.73,-2.73,-2.7943,-2.8721,-2.9059,-2.9296,-2.9939,-2.9567,-2.9062,-2.9296,-2.9634,-2.9973,-3.0243,-3.0751,-3.1157,-3.1021,-3.0548,-3.0108,-3.0108,-2.9397,-2.8721,-2.8619,0.0,0.0,0.0,0.0,0.0,0.0,0.0,0.0,0.0,0.0,-1.5595,-1.3599,-1.3608,-1.3721,-1.3699,0.0,0.0,0.0,0.0,-1.7681,0.0,-2.1206,0.0,0.0,0.0,-2.618,-2.908,-2.7558,-2.7181,-2.7897,-2.7577,-2.7365,-2.7272,-2.6954,-2.6758,-2.6759,-2.7672,-2.8755,-3.0006,-3.0852,-3.119,-3.119,-3.119,-3.0878,-3.0518,0.0,0.0,0.0,0.0,0.0,0.0,0.0,-3.4303,0.0,-3.4794,-3.5919,-3.6164,-3.4297,-3.574,-3.6015,-3.3824,-3.2933,-3.2815,-3.3524,-3.2638,-3.3087,-3.5429,-3.4233,-3.2407,-3.0073,-3.0013,-2.9695,-2.8941,-2.5659,-2.4606,-2.5529,-2.1531,-1.9657,-1.972,-2.0684,-2.2059,0.0,0.0,0.0,-2.5101,-2.5311,-2.5479,-2.5778,-2.7266,-2.8315,-2.9028,-2.9028,-2.9228,-2.9465,-2.8721,-2.845,-2.8619,-2.977,-3.0142,-3.0209,-3.0581,-3.0142,-2.9634,-3.004,-3.0108,-3.0209,-3.0581,-3.0954,-3.119,-3.119,-3.092,-3.0683,-3.0683,-3.0074,-2.9194,-2.801,-2.6015,0.0,0.0,0.0,0.0,0.0,0.0,-1.8674,0.0,0.0,0.0,0.0,0.0,0.0,0.0,0.0,0.0,0.0,0.0,-1.7491,0.0,0.0,0.0,-2.4734,0.0,-2.5725,-2.7502,-2.6596,-2.6576,-2.7272,-2.7083,-2.6987,-2.6987,-2.6791,-2.6691,-2.6793,-2.7943,-2.9093,-3.0176,-3.092,-3.1032,-3.0723,-3.0723,-3.0351,-2.9935,0.0,-2.1303,0.0,0.0,-2.5377,0.0,-3.0984,-3.4744,-3.7172,-3.6909,-3.6776,-3.6447,-3.5789,-3.6058,-3.5872,-3.4937,-3.3343,-3.2985,-3.4307,-3.3166,-3.3258,-3.5011,-3.4053,-3.2228,-2.9505,-2.9535,-2.9042,-2.7934,-2.5561,-2.474,-2.5303,-2.2273,-2.0575,-2.0162,0.0,0.0,0.0,0.0,-2.5,-2.5879,-2.6454,-2.6691,-2.6759,-2.7368,-2.8078,-2.8755,-2.8924,-2.9364,-2.9905,-3.0243,-2.9837,-2.9431,-3.0581,-3.0954,-3.0987,-3.1157,-3.0683,-3.0277,-3.0987,-3.0784,-3.048,-3.1055,-3.119,-3.119,-3.119,-3.1089,-3.1021,-3.1157,-3.0751,-2.9702,-2.7571,-2.6454,0.0,0.0,0.0,0.0,0.0,0.0,0.0,0.0,0.0,0.0,-1.5752,0.0,0.0,0.0,0.0,0.0,-1.5136,0.0,0.0,0.0,0.0,-2.3571,-2.2698,0.0,-2.5503,-2.6211,-2.5776,-2.5981,-2.6691,-2.6691,-2.6691,-2.6691,-2.6691,-2.6691,-2.6793,-2.818,-2.9056,-2.9551,-3.0426,-3.0409,-2.991,-3.0074,-2.9717,-2.9271,0.0,0.0,0.0,0.0,0.0,0.0,-3.3911,-3.5102,-3.619,-3.7993,-3.7704,-3.7075,-3.6447,-3.5908,-3.4812,-3.2844,-3.4209,-3.3947,-3.1093,-3.3587,-3.4678,-3.3724,-3.3574,-3.3066,-3.2168,-3.0462,-2.9516,0.0,-2.7907,-2.6305,-2.4592,-2.4116,-2.3351,-2.2439,0.0,0.0,0.0,-2.4729,-2.5304,-2.659,-2.6657,-2.6691,-2.6691,-2.6759,-2.7266,-2.801,-2.8721,-2.9025,-2.9296,-3.0649,-3.0615,-3.004,-3.0176,-3.0209,-3.0345,-3.0987,-3.0683,-3.0277,-3.0987,-3.1157,-3.1089,-3.119,-3.119,-3.119,-3.119,-3.0683,-3.0412,-3.1055,-3.1157,-3.0615,-2.9059,-2.7571,-2.5579,0.0,0.0,0.0,0.0,0.0,-1.9857,-1.8019,0.0,0.0,-1.5341,-1.3798,-1.3219,0.0,-1.4282,0.0,0.0,0.0,0.0,-1.963,-2.0187,-2.161,-2.3911,-2.371,-2.5149,-2.8204,-2.6413,-2.5981,-2.6691,-2.6691,-2.6691,-2.6691,-2.6691,-2.6691,-2.6759,-2.7604,-2.7693,-2.7524,-2.8841,-2.9083,-2.8683,-2.9239,-2.9088,-2.8606,0.0,0.0,0.0,0.0,0.0,0.0,0.0,-3.5082,-3.6458,-3.7187,-3.7345,-3.7165,-3.6567,-3.5908,-3.515,-3.4327,-3.5061,-3.4912,-3.3587,-3.4763,-3.507,-3.4113,-3.3694,-3.3006,-3.1958,-3.0372,-2.9788,0.0,0.0,-2.5229,-2.5217,-2.3763,-2.3501,0.0,0.0,-2.5647,-2.5914,-2.5848,-2.615,-2.6691,-2.6691,-2.6691,-2.6759,-2.7199,-2.7841,-2.8619,-2.9397,-2.9939,-3.0412,-3.0987,-3.0717,-3.0176,-3.0615,-3.0751,-3.0818,-3.1089,-3.0987,-3.0818,-3.1123,-3.119,-3.1089,-3.0649,-3.0852,-3.1089,-3.0649,-3.0649,-3.0852,-3.1123,-3.0852,-3.048,-3.0345,-2.8687,-2.6825,-2.5278,0.0,0.0,0.0,0.0,0.0,-2.0542,0.0,-1.8143,-1.7741,-1.5418,-1.4208,-1.4883,0.0,0.0,0.0,0.0,0.0,-1.9283,0.0,-2.2099,-2.4966,-2.4377,-2.5399,-2.8049,-2.6859,-2.6657,-2.7368,-2.6894,-2.6691,-2.6691,-2.6691,-2.6691,-2.6759,-2.7186,-2.7267,-2.7212,-2.8306,-2.8361,-2.7929,-2.8606,-2.8463,-2.7959,-3.0859,0.0,-2.8423,0.0,-3.0853,-3.1856,-3.2245,-3.4735,-3.6286,-3.5392,-3.6343,-3.6896,-3.6267,-3.5789,-3.5275,-3.4664,-3.515,-3.5096,-3.4036,-3.4942,-3.51,-3.4233,-3.3933,0.0,-3.2138,-3.0821,-3.0196,-3.0299,-2.7174,0.0,0.0,-2.4634,0.0,0.0,-2.6825,-2.7011,-2.6612,-2.6892,-2.6894,-2.6691,-2.6691,-2.6826,-2.7097,-2.7604,-2.8315,-2.9093,-2.9837,-3.0446,-3.092,-3.1123,-3.0852,-3.0514,-3.1021,-3.119,-3.119,-3.119,-3.119,-3.119,-3.119,-3.119,-3.1089,-3.0548,-3.0649,-3.0784,-3.048,-3.0649,-3.0954,-3.1157,-3.0784,-3.0446,-3.0514,-2.9228,-2.7734,-2.6474,0.0,0.0,0.0,-2.1645,0.0,-2.1479,-1.9756,-1.8638,-1.881,-1.6465,-1.5058,-1.5393,0.0,0.0,0.0,0.0,0.0,0.0,0.0,0.0,-2.4469,-2.4495,-2.5507,-2.7469,-2.7165,-2.7199,-2.7469,-2.6928,-2.6928,-2.7334,-2.6925,-2.6789,-2.6821,-2.7043,-2.6938,-2.6717,-2.7689,-2.7776,-2.7318,-2.7977,-2.7959,-2.761,-3.3621,-3.3822,-3.3796,-3.3822,-3.4263,-3.3832,-3.1611,-3.3935,-3.516,-3.2774,-3.483,-3.6237,-3.5579,-3.5519,-3.4693,-3.2605,-3.4327,-3.4036,-3.0681,-3.3617,-3.4921,0.0,0.0,-3.4143,-3.3484,-3.2168,-3.0881,-2.9619,0.0,0.0,-2.6523,0.0,-2.786,-2.7263,-2.9177,-2.9191,-2.7772,-2.7772,-2.7368,-2.6691,-2.6691,-2.7131,-2.7772,-2.7772,-2.8315,-2.9093,-2.9837,-3.0108,-3.0243,-3.0954,-3.119,-3.119,-3.119,-3.119,-3.119,-3.119,-3.119,-3.119,-3.119,-3.119,-3.119,-3.119,-3.0649,-3.0311,-3.1021,-3.0649,-3.0311,-3.1055,-3.119,-3.0717,-2.9262,-2.9028,-2.7906,-2.458,0.0,0.0,0.0,-2.1301,0.0,-1.969,-1.7717,-1.6686,-1.7374,-1.608,0.0,0.0,0.0,0.0,0.0,0.0,0.0,-1.8925,-1.8614,0.0,-2.1827,-2.3627,-2.5236,-2.6725,-2.7435,-2.7435,-2.6691,-2.6691,-2.7503,-2.889,-2.7495,-2.6977,-2.7114,-2.717,-2.6493,-2.5555,-2.6916,-2.7069,-2.6662,-2.737,-2.761,-2.761,-3.0583,-3.2039,-3.3093,-3.2315,-3.354,-3.4392,-3.3436,-3.4787,-3.5578,-3.4653,-3.527,-3.5729,-3.5519,-3.5519,-3.5245,0.0,-3.3809,-3.3544,0.0,-3.3544,-3.3402,-3.3514,-3.2826,-3.1958,-3.0851,-2.9983,-2.9116,-2.8269,0.0,0.0,0.0,-2.7713,-2.8423,-2.8609,-2.9643,-2.9262,-2.7772,-2.7772,-2.7368,-2.6725,-2.7266,-2.757,-2.7908,-2.8991,-2.9533,-2.9837,-3.0581,-3.0852,-3.0886,-3.1123,-3.119,-3.119,-3.119,-3.119,-3.119,-3.119,-3.119,-3.119,-3.119,-3.119,-3.1089,-3.0581,-3.0649,-3.0784,-3.0514,-3.0649,-3.092,-3.1157,-3.0784,-3.0446,-3.048,-2.9228,-2.7734,-2.6407,-2.6285,0.0,-2.3189,0.0,-2.2192,-2.1201,-1.9358,-1.8324,-1.8718,-1.7099,0.0,0.0,0.0,0.0,0.0,0.0,0.0,0.0,-2.2362,0.0,-2.5849,-2.6455,-2.7503,-2.9025,-2.8755,-2.8484,-2.8247,-2.8247,-2.8303,-2.8367,-2.7904,-2.7238,-2.6494,-2.6619,-2.615,-2.5512,-2.6457,-2.6766,-2.6662,-2.732,-2.761,-2.761,-3.121,-3.234,-3.3093,-3.219,-3.2797,-3.3245,-3.2691,-3.3753,-3.4482,-3.3856,-3.4771,-3.5519,-3.5519,-3.5519,0.0,-3.5519,-3.4327,-3.4115,-3.5459,-3.4061,-3.3495,-3.4233,-3.2976,-3.1898,-3.1061,-3.0163,0.0,-2.8338,-2.7629,-2.73,-2.7255,-2.8233,-2.9034,-2.9617,-2.9715,-2.9345,-2.8653,-2.8043,-2.7565,-2.7255,-2.7387,-2.7677,-2.8125,-2.9287,-2.9934,-3.0275,-3.0943,-3.119,-3.119,-3.119,-3.119,-3.119,-3.119,-3.119,-3.119,-3.119,-3.119,-3.119,-3.119,-3.119,-3.1089,-3.0649,-3.0649,-3.0683,-3.0209,-3.0683,-3.119,-3.119,-3.0818,-3.048,-3.0378,-2.9194,-2.7973,-2.7153,-2.6859,-2.6117,-2.4378,0.0,-2.2491,0.0,0.0,0.0,0.0,-1.9061,-1.8377,0.0,0.0,0.0,0.0,0.0,0.0,-2.2482,-2.3703,-2.511,-2.679,-2.7737,-2.8721,-2.9668,-2.9009,-2.8795,-2.903,-2.8572,-2.8392,-2.8558,-2.78,-2.6997,-2.6346,-2.6425,-2.6062,-2.5604,-2.6567,-2.6961,-2.7021,-2.746,-2.761,-2.761,-3.4198,-3.4048,-3.3646,0.0,-3.2139,0.0,-3.0133,-3.1447,-3.2289,-3.1344,-3.3682,-3.5424,-3.5519,-3.5519,-3.5519,-3.5519,0.0,0.0,0.0,-3.4737,-3.4618,-3.534,-3.4083,-3.3305,-3.3155,-3.1988,-3.0791,-2.9594,-2.8847,-2.8511,-2.8511,-2.9134,-2.9685,-3.0136,-2.951,-2.9423,-2.9724,-2.8376,-2.7848,-2.7886,-2.7191,-2.7502,-2.835,-2.9009,-2.9642,-3.0309,-3.0918,-3.1151,-3.1151,-3.119,-3.119,-3.119,-3.119,-3.119,-3.119,-3.119,-3.119,-3.119,-3.119,-3.119,-3.119,-3.119,-3.0683,-3.0176,-3.0176,-3.0717,-3.119,-3.119,-3.119,-3.0784,-2.9397,-2.9096,-2.8554,-2.7097,-2.6759,-2.6184,-2.4664,-2.3575,-2.2361,0.0,0.0,0.0,-2.0156,-2.161,-2.1672,0.0,0.0,0.0,0.0,0.0,-1.9085,-2.1503,-2.3325,-2.458,-2.5378,-2.7866,-2.909,-2.9016,-2.8456,-2.8549,-2.9173,-2.7911,-2.8072,-2.9157,-2.7311,-2.6421,-2.639,-2.6499,-2.6153,-2.5734,-2.7021,-2.758,-2.761,-2.761,-2.761,-2.761,0.0,0.0,-3.2842,-3.1436,-3.2014,-3.2541,-3.2149,-3.2486,-3.2895,-3.3249,-3.3907,-3.461,-3.5424,-3.5519,-3.5519,-3.5519,-3.4085,-3.378,-3.5365,-3.3844,-3.3254,-3.3963,-3.2706,-3.13,-2.9804,-2.9953,-2.9894,-2.9594,-2.8847,-2.8511,-2.8511,-2.9134,-2.9163,-2.878,-2.9166,-2.8511,-2.7145,-2.734,-2.713,-2.668,-2.7074,-2.7634,-2.8371,-2.909,-2.9468,-2.9673,-3.0309,-3.0518,-3.0559,-3.1038,-3.119,-3.119,-3.119,-3.119,-3.119,-3.119,-3.119,-3.119,-3.119,-3.119,-3.119,-3.119,-3.1055,-3.0954,-3.0954,-3.1055,-3.119,-3.119,-3.119,-3.1089,-3.0717,-2.9736,-2.8892,-2.8484,-2.7469,-2.6084,-2.4314,-2.3883,-2.3027,0.0,-2.2212,-2.2702,-2.1762,-2.2975,-2.2979,0.0,0.0,0.0,-2.2316,-2.2611,-2.3607,-2.5481,-2.6056,-2.6991,-2.8207,-2.9417,-2.9741,-2.9318,-2.9189,-2.9166,-2.9327,-2.9034,-2.8532,-2.7904,-2.7456,-2.6427,-2.5078,-2.5601,-2.5734,-2.5704,-2.6512,-2.7141,-2.761,-2.761,-2.761,-2.761,-3.0884,-3.2014,-3.2717,-3.1562,-3.1888,-3.218,-3.1832,-3.1915,-3.2407,-3.3269,-3.3739,-3.438,-3.5359,-3.5519,-3.5519,-3.5519,-3.448,-3.4297,-3.5459,-3.3888,-3.3232,-3.3933,-3.2407,-3.118,-3.0402,-2.9864,-2.9265,-2.8719,-2.8273,-2.8107,-2.8107,-2.8384,-2.8529,-2.8383,-2.8446,-2.817,-2.7636,-2.738,-2.7243,-2.7237,-2.7343,-2.7574,-2.8047,-2.8732,-2.8996,-2.9042,-2.9673,-2.9892,-2.9978,-3.0559,-3.0601,-3.0477,-3.1032,-3.0838,-3.0435,-3.0716,-3.0958,-3.119,-3.119,-3.119,-3.119,-3.119,-3.119,-3.119,-3.119,-3.119,-3.119,-3.119,-3.119,-3.1089,-3.0751,-2.977,-2.8856,-2.8518,-2.7027,-2.5447,-2.4083,-2.349,-2.2965,-2.2443,-2.3654,-2.4348,-2.3909,-2.5207,-2.5147,-2.294,-2.2909,0.0,-2.373,-2.3928,-2.4823,-2.6555,-2.7283,-2.7997,-2.8777,-2.9534,-2.9717,-2.9406,-2.9134,-2.8996,-2.895,-2.867,-2.8199,-2.7496,-2.7238,-2.6485,-2.5555,-2.5914,-2.6063,-2.6123,-2.6782,-2.726,-2.761,-2.761,-2.7408,-2.71,-3.3545,-3.3194,-3.2667,-3.2164,-3.1712,-3.121,-3.0683,-3.0933,-3.1421,-3.2263,-3.3087,-3.4041,-3.5133,-3.5204,-3.527,-3.5489,-3.54,-3.534,-3.534,-3.4292,-3.3814,-3.4173,-3.2587,-3.1809,-3.2078,-3.0253,-2.8757,-2.7739,-2.767,-2.761,-2.761,-2.761,-2.786,-2.8336,-2.7703,-2.8031,-2.8912,-2.762,-2.7574,-2.8182,-2.755,-2.74,-2.766,-2.8174,-2.8367,-2.8463,-2.9042,-2.9271,-2.9361,-2.9935,-2.9805,-2.9585,-3.0601,-3.0225,-2.9496,-3.0021,-3.0518,-3.0918,-3.0918,-3.0998,-3.1112,-3.119,-3.119,-3.119,-3.119,-3.119,-3.119,-3.119,-3.119,-3.1021,-3.0378,-2.9529,-2.8682,-2.7971,-2.6212,-2.4641,-2.3948,0.0,-2.3025,-2.4016,-2.4972,-2.573,-2.6114,-2.7492,-2.7387,-2.508,-2.4986,-2.5228,-2.5689,-2.4774,-2.4828,-2.6188,-2.7529,-2.8208,-2.8335,-2.8984,-2.9225,-2.9134,-2.8606,-2.8367,-2.8319,-2.781,-2.753,-2.743,-2.6841,-2.6542,-2.6452,-2.6452,-2.6512,-2.6662,-2.7101,-2.7318,-2.7408,-2.7306,-2.6864,-2.6336,-3.2466,-3.2039,-3.1612,-3.1537,-3.1461,-3.121,-3.0683,-3.0691,-3.0881,-3.132,-3.1536,-3.2307,-3.4041,-3.3781,-3.3988,-3.5394,-3.4981,-3.4651,-3.4651,-3.4442,-3.3873,-3.2856,-3.2527,-3.1629,-3.0073,-2.8607,-2.8068,-2.8427,-2.7859,-2.761,-2.761,-2.761,-2.766,-2.771,-2.762,-2.7338,-2.6983,-2.6801,-2.6784,-2.6868,-2.6778,-2.709,-2.761,-2.771,-2.776,-2.781,-2.8415,-2.8654,-2.8748,-2.9316,-2.9496,-2.9451,-2.9629,-2.954,-2.9406,-2.9496,-2.9629,-2.9673,-2.9673,-3.0021,-3.0559,-3.1072,-3.119,-3.119,-3.119,-3.119,-3.119,-3.119,-3.119,-3.1157,-3.1055,-2.9532,-2.8296,-2.8163,-2.5971,-2.4131,-2.3588,0.0,-2.481,-2.5051,-2.6687,-2.7809,-2.7761,-2.8176,-2.8248,-2.7798,-2.7364,-2.716,-2.7259,-2.707,-2.6849,-2.6559,-2.7226,-2.7921,-2.8467,-2.8591,-2.8367,-2.791,-2.776,-2.776,-2.771,-2.761,-2.726,-2.6752,-2.6632,-2.6273,-2.5764,-2.5764,-2.6093,-2.6553,-2.6067,-2.6162,-2.6602,-2.5932,-2.5659,-2.5577,-3.1838,-3.1562,-3.1311,-3.1009,-3.0984,-3.0783,-3.0256,-3.0181,-3.0444,-3.1145,-3.1683,-3.2451,-3.3876,-3.4214,-3.4528,-3.4951,-3.4651,-3.4173,-3.3455,-3.3754,-3.3514,-3.2557,-3.2168,-3.124,-2.9624,-2.8966,-2.8457,-2.8038,-2.7739,-2.761,-2.761,-2.761,-2.761,-2.761,-2.761,-2.746,-2.7111,-2.7111,-2.7111,-2.7111,-2.7111,-2.729,-2.761,-2.761,-2.761,-2.761,-2.791,-2.8008,-2.8076,-2.8717,-2.867,-2.8528,-2.918,-2.895,-2.848,-2.881,-2.9134,-2.9406,-2.9406,-2.9875,-3.0424,-3.0659,-3.1016,-3.1141,-3.0783,-3.0716,-3.0716,-3.0716,-3.0477,-3.0351,-3.0675,-2.905,-2.7835,-2.8224,-2.5719,0.0,-2.443,-2.4623,-2.5075,-2.5873,-2.7349,-2.8423,-2.8825,-2.8951,-2.9027,-2.9073,-2.8463,-2.8128,-2.8128,-2.7769,-2.749,-2.7141,-2.7425,-2.7722,-2.7978,-2.8373,-2.8404,-2.8128,-2.8128,-2.8128,-2.8128,-2.7739,-2.746,-2.7111,-2.7111,-2.6931,-2.6662,-2.6267,-2.6264,-2.6477,-2.5721,-2.5652,-2.5851,-2.5522,-2.5133,-2.4821,-3.1286,-3.111,-3.0884,-3.0507,-3.0432,-3.0281,-2.9854,-3.0011,-3.0419,-3.1119,-3.2019,-3.2947,-3.3876,-3.4559,-3.4847,-3.4532,-3.4352,-3.3754,-3.2587,-3.2976,-3.2976,-3.2317,-3.1659,-3.0761,-2.9594,-2.9445,-2.8757,-2.761,-2.761,-2.761,-2.761,-2.761,-2.761,-2.761,-2.761,-2.761,-2.761,-2.761,-2.761,-2.761,-2.761,-2.761,-2.761,-2.761,-2.761,-2.761,-2.761,-2.761,-2.766,-2.8125,-2.8008,-2.776,-2.867,-2.8367,-2.766,-2.8125,-2.8654,-2.8996,-2.9134,-2.9561,-2.9986,-3.0065,-3.0489,-3.074,-3.0424,-3.0326,-3.0326,-3.0326,-2.9976,-2.9733,-3.0011,-2.8597,-2.7497,-2.8037,0.0,-2.4092,-2.5277,-2.5013,-2.5191,-2.6572,-2.77,-2.8685,-2.9441,-2.9612,-2.9785,-2.9798,-2.9325,-2.9056,-2.9056,-2.8397,-2.8038,-2.8038,-2.7889,-2.7889,-2.809,-2.8577,-2.8816,-2.8816,-2.8667,-2.8607,-2.8577,-2.7889,-2.761,-2.756,-2.7408,-2.7357,-2.7306,-2.6549,-2.6229,-2.6176,-2.5467,-2.5133,-2.5133,-2.4937,-2.4589,-2.4275,-3.0683,-3.0256,-2.9905,-2.9854,-2.9854,-2.9854,-2.9804,-3.057,-3.1093,-3.1167,-3.2019,-3.2947,-3.3876,-3.359,-3.3602,-3.4409,-3.3933,-3.3275,-3.2557,-3.2557,-3.2287,-3.1571,-3.0941,-3.0253,-2.9594,-2.8996,-2.8308,-2.761,-2.761,-2.761,-2.761,-2.761,-2.761,-2.761,-2.761,-2.761,-2.761,-2.761,-2.761,-2.761,-2.761,-2.761,-2.761,-2.761,-2.761,-2.761,-2.761,-2.761,-2.761,-2.766,-2.761,-2.761,-2.771,-2.766,-2.761,-2.766,-2.771,-2.786,-2.8415,-2.859,-2.8763,-2.9316,-2.9483,-2.9675,-3.0238,-3.0366,-3.0366,-3.0366,-3.0366,-3.0128,-2.9579,-2.8365,-2.7487,-2.7518,0.0,0.0,-2.5482,-2.5541,-2.5984,-2.7302,-2.8118,-2.8819,-2.9435,-3.0054,-3.0428,-3.0432,-3.0402,-3.0372,-3.0372,-2.9774,-2.9415,-2.9415,-2.8846,-2.8816,-2.9415,-2.9475,-2.9505,-2.9505,-2.8906,-2.8607,-2.8577,-2.7889,-2.761,-2.756,-2.6893,-2.6549,-2.6496,-2.5797,-2.5467,-2.5412,-2.4681,-2.4394,-2.4279,-2.3543,-2.3599,-2.3991,-3.0181,-2.993,-2.9804,-2.9804,-2.9804,-3.0011,-3.0545,-3.097,-3.1389,-3.1947,-3.2876,-3.3459,-3.3456,-3.3755,-3.3765,-3.3335,-3.3036,-3.2617,-3.1958,-3.1898,-3.1809,-3.1482,-3.0881,-3.0402,-3.0163,-2.9116,-2.8487,-2.8218,-2.7769,-2.761,-2.761,-2.761,-2.761,-2.761,-2.761,-2.761,-2.761,-2.761,-2.761,-2.761,-2.761,-2.761,-2.761,-2.761,-2.761,-2.761,-2.761,-2.761,-2.761,-2.761,-2.761,-2.761,-2.761,-2.761,-2.77,-2.8098,-2.7919,-2.775,-2.8374,-2.8546,-2.8625,-2.8794,-2.9155,-2.9406,-2.9249,-2.9218,-2.9218,-2.9218,-2.9224,-2.9323,-2.9404,-2.875,-2.8323,-2.8748,0.0,-2.6692,-2.738,-2.747,-2.766,-2.8122,-2.8793,-2.9462,-3.0091,-3.0358,-3.0672,-3.112,-3.0731,-3.0342,-2.9953,-2.9325,-2.9175,-2.9564,-2.9714,-2.9714,-2.9594,-2.951,-2.9256,-2.8846,-2.8081,-2.7541,-2.7197,-2.6569,-2.6229,-2.6201,-2.596,-2.5851,-2.5742,-2.5021,-2.4738,-2.465,-2.4287,-2.408,-2.4131,-2.4117,-2.433,-2.4556,-2.9854,-2.9804,-2.9804,-2.9804,-2.9804,-3.0139,-3.1044,-3.1167,-3.1683,-3.2876,-3.3602,-3.3936,-3.3893,-3.4273,-3.4023,-3.2916,-3.2647,-3.2228,-3.1511,-3.133,-3.13,-3.1452,-3.0881,-3.0492,-3.0492,-2.9265,-2.8607,-2.8607,-2.7919,-2.761,-2.761,-2.761,-2.761,-2.761,-2.761,-2.761,-2.761,-2.761,-2.761,-2.761,-2.761,-2.761,-2.761,-2.761,-2.761,-2.761,-2.761,-2.761,-2.761,-2.761,-2.761,-2.761,-2.761,-2.7709,-2.7949,-2.8188,-2.8098,-2.7949,-2.8218,-2.8278,-2.8261,-2.8198,-2.859,-2.8866,-2.8572,-2.8664,-2.8847,-2.8847,-2.904,-2.9275,-2.9501,-2.9191,-2.9056,-2.9505,-2.8816,-2.8368,-2.8846,-2.8727,-2.8607,-2.8607,-2.8996,-2.9535,-3.0163,-3.0402,-3.0791,-3.1422,-3.1091,-3.0642,-3.0223,-2.9525,-2.9356,-2.9829,-2.9985,-2.9813,-2.9404,-2.9522,-2.9258,-2.8566,-2.7806,-2.7152,-2.663,-2.5964,-2.5577,-2.5412,-2.5189,-2.5077,-2.5021,-2.4432,-2.4112,-2.3975,-2.414,-2.4155,-2.4054,-2.4607,-2.4933,-2.5109,-2.9804,-2.9804,-2.9804,-2.9804,-2.9804,-3.0139,-3.1044,-3.1167,-3.1874,-3.3739,-3.4013,-3.438,-3.5329,-3.4861,-3.4203,-3.3544,-3.2886,-3.2228,-3.1511,-3.0881,-3.0821,-3.1452,-3.0881,-3.0492,-3.0492,-2.9265,-2.8607,-2.8607,-2.7919,-2.761,-2.761,-2.761,-2.761,-2.761,-2.761,-2.761,-2.761,-2.761,-2.761,-2.761,-2.761,-2.761,-2.761,-2.761,-2.761,-2.761,-2.761,-2.761,-2.761,-2.761,-2.761,-2.761,-2.761,-2.8038,-2.8457,-2.7769,-2.8068,-2.8457,-2.7769,-2.761,-2.761,-2.761,-2.761,-2.7739,-2.8427,-2.9086,-2.9564,-2.9564,-3.0073,-3.0313,-2.9714,-2.9594,-2.9594,-2.9594,-2.9594,-2.9594,-2.9594,-2.9026,-2.8637,-2.8607,-2.8637,-2.8876,-2.9535,-3.0163,-3.0791,-3.1422,-3.1482,-3.1452,-3.1452,-3.0718,-3.0269,-3.0269,-2.9442,-2.9002,-2.9002,-2.9813,-2.9813,-2.8975,-2.8305,-2.7726,-2.7179,-2.6514,-2.5907,-2.5356,-2.4624,-2.4305,-2.43,-2.406,-2.3678,-2.319,-2.4381,-2.4481,-2.4079,-2.4632,-2.5159,-2.5611,-2.9804,-2.9804,-2.9804,-2.9804,-2.9804,-3.0139,-3.1044,-3.1167,-3.1739,-3.3168,-3.3408,-3.342,-3.3391,-3.3215,-3.2585,-3.1331,-3.1575,-3.1691,-3.1482,-3.133,-3.1091,-3.0821,-3.0193,-2.9864,-2.9864,-2.9026,-2.8607,-2.8607,-2.7919,-2.761,-2.761,-2.761,-2.761,-2.761,-2.761,-2.761,-2.761,-2.761,-2.761,-2.761,-2.761,-2.761,-2.761,-2.761,-2.761,-2.761,-2.761,-2.761,-2.761,-2.761,-2.761,-2.761,-2.761,-2.776,-2.7949,-2.8218,-2.8098,-2.7949,-2.8218,-2.7949,-2.761,-2.761,-2.761,-2.7619,-2.7829,-2.8038,-2.8308,-2.8786,-2.9415,-2.9924,-3.0193,-3.0642,-3.0941,-3.0941,-3.0941,-3.0791,-3.0313,-3.0462,-3.0492,-2.9983,-3.0372,-3.0731,-3.0941,-3.112,-3.1243,-3.1452,-3.0543,-2.9988,-2.9988,-2.916,-2.8675,-2.8675,-2.8907,-2.8684,-2.8103,-2.8363,-2.7958,-2.6961,-2.6112,-2.5495,-2.4926,-2.4331,-2.4374,-2.4942,-2.431,-2.4325,-2.4645,-2.457,-2.4481,-2.4381,-2.5084,-2.5259,-2.5184,-2.5762,-2.6063,-2.6189,-2.9804,-2.9804,-2.9804,-2.9804,-2.9804,-3.0139,-3.1044,-3.0895,-3.1129,-3.2438,-3.2783,-3.2892,-3.2809,-3.2517,-3.2009,-3.1108,-3.0739,-3.051,-3.051,-3.0277,-2.9842,-2.9203,-2.9107,-2.9237,-2.9594,-2.8667,-2.8457,-2.8996,-2.8038,-2.776,-2.7979,-2.7979,-2.7829,-2.764,-2.7859,-2.7829,-2.761,-2.761,-2.761,-2.761,-2.761,-2.761,-2.761,-2.761,-2.761,-2.761,-2.761,-2.761,-2.761,-2.761,-2.761,-2.761,-2.761,-2.7769,-2.8008,-2.8158,-2.8098,-2.8068,-2.8487,-2.8098,-2.7649,-2.7919,-2.7769,-2.761,-2.761,-2.782,-2.8188,-2.8846,-2.9505,-3.0133,-3.0791,-3.124,-3.1482,-3.1482,-3.1482,-3.139,-3.0971,-3.1031,-3.0971,-3.0552,-3.0642,-3.0738,-3.0631,-3.0891,-3.1038,-3.1014,-2.9863,-2.9213,-2.9213,-2.8326,-2.7886,-2.7886,-2.798,-2.7736,-2.7229,-2.7229,-2.6893,-2.6259,-2.5724,-2.5184,-2.4632,-2.428,-2.4381,-2.4808,-2.4481,-2.4506,-2.4833,-2.5034,-2.5008,-2.4908,-2.5636,-2.5787,-2.5661,-2.6239,-2.6533,-2.6533,-2.9804,-2.9804,-2.9804,-2.9804,-2.9804,-3.0062,-3.097,-3.0343,-3.0239,-3.1513,-3.2053,-3.2514,-3.293,-3.2335,-3.1933,-3.1861,-3.0051,-2.8939,-2.9002,-2.8415,-2.7837,-2.7317,-2.7937,-2.8624,-2.9347,-2.8204,-2.8166,-2.9331,-2.8055,-2.7786,-2.8517,-2.8435,-2.8106,-2.764,-2.8218,-2.8158,-2.761,-2.7509,-2.7509,-2.756,-2.7509,-2.756,-2.761,-2.761,-2.756,-2.7509,-2.7509,-2.7458,-2.7408,-2.7408,-2.7408,-2.7408,-2.7408,-2.7824,-2.8211,-2.7586,-2.7854,-2.8278,-2.8278,-2.7914,-2.7616,-2.8181,-2.7943,-2.7556,-2.7488,-2.7935,-2.8591,-2.9361,-2.9958,-3.0642,-3.139,-3.1482,-3.1482,-3.1482,-3.1482,-3.1482,-3.1482,-3.1001,-3.0526,-3.047,-2.9993,-2.9566,-2.9288,-2.9928,-3.0337,-3.0237,-2.9463,-2.8986,-2.9041,-2.8198,-2.7761,-2.7761,-2.702,-2.6609,-2.6609,-2.6559,-2.6508,-2.6458,-2.6458,-2.6113,-2.5586,-2.5536,-2.5335,-2.4958,-2.4908,-2.4908,-2.5008,-2.5485,-2.5385,-2.5084,-2.6063,-2.6138,-2.5737,-2.6332,-2.6533,-2.6533,-2.9804,-2.9804,-2.9804,-2.9804,-2.9804,-2.9856,-3.0062,-2.9934,-3.0012,-3.0474,-3.0317,-3.04,-3.1086,-3.0285,-2.9582,-2.9295,-2.8505,-2.8233,-2.8939,-2.8864,-2.847,-2.7864,-2.7958,-2.7917,-2.7591,-2.7564,-2.7428,-2.7195,-2.629,-2.6553,-2.7799,-2.7202,-2.7195,-2.764,-2.7739,-2.776,-2.756,-2.6997,-2.71,-2.756,-2.6997,-2.71,-2.761,-2.761,-2.7255,-2.6736,-2.6736,-2.639,-2.5877,-2.5877,-2.5877,-2.5877,-2.5877,-2.599,-2.6075,-2.5934,-2.599,-2.6103,-2.6103,-2.6273,-2.6414,-2.6187,-2.6638,-2.7032,-2.678,-2.6823,-2.7258,-2.8417,-2.9241,-3.0133,-3.133,-3.1482,-3.1482,-3.1482,-3.1482,-3.1482,-3.1482,-3.1332,-3.107,-3.0425,-3.0249,-2.9863,-2.9122,-2.9246,-2.9498,-2.9859,-2.9104,-2.8825,-2.9262,-2.8479,-2.8007,-2.8007,-2.746,-2.7092,-2.7092,-2.6735,-2.6239,-2.5787,-2.5787,-2.5711,-2.5586,-2.5184,-2.541,-2.6088,-2.5611,-2.5686,-2.6113,-2.6239,-2.6214,-2.6138,-2.6433,-2.6458,-2.6289,-2.6483,-2.6533,-2.6533,-2.9804,-2.9804,-2.9804,-2.9804,-2.9804,-2.9804,-2.9804,-2.9804,-2.9732,-2.9622,-2.996,-3.0307,-3.0465,-2.9767,-2.8759,-2.7669,-2.7249,-2.7297,-2.7802,-2.7802,-2.7538,-2.6865,-2.722,-2.6818,-2.5598,-2.6299,-2.6803,-2.6835,-2.6133,-2.6217,-2.7035,-2.6603,-2.6515,-2.6549,-2.6891,-2.6862,-2.6549,-2.6122,-2.6229,-2.6549,-2.6122,-2.6229,-2.6549,-2.6549,-2.6336,-2.596,-2.596,-2.5742,-2.5412,-2.5412,-2.5412,-2.5412,-2.5412,-2.5412,-2.5412,-2.5412,-2.5412,-2.5522,-2.6102,-2.621,-2.6235,-2.6569,-2.6576,-2.6375,-2.6049,-2.6383,-2.6947,-2.7682,-2.8368,-2.9117,-3.0156,-3.0329,-3.0329,-3.0329,-3.0329,-3.0329,-3.0329,-3.0329,-3.0147,-2.9752,-2.969,-2.9504,-2.9066,-2.8502,-2.8465,-2.9134,-2.8638,-2.846,-2.8769,-2.8388,-2.8097,-2.8097,-2.7821,-2.7544,-2.7293,-2.6992,-2.6565,-2.6013,-2.6013,-2.6013,-2.6013,-2.5737,-2.5912,-2.6508,-2.6138,-2.6189,-2.6533,-2.6533,-2.6533,-2.6533,-2.6533,-2.6533,-2.6533,-2.6533,-2.6533,-2.6533,-2.9804,-2.9804,-2.9804,-2.9804,-2.9804,-2.9804,-2.9804,-2.9804,-2.9628,-2.9126,-3.0083,-3.0682,-3.0341,-2.9686,-2.8516,-2.6678,-2.6533,-2.6533,-2.6533,-2.6533,-2.6239,-2.5762,-2.6374,-2.5936,-2.4431,-2.5344,-2.6091,-2.6726,-2.6081,-2.5952,-2.6214,-2.61,-2.5825,-2.5412,-2.5965,-2.5938,-2.5412,-2.53,-2.53,-2.5412,-2.5245,-2.53,-2.5412,-2.5412,-2.5356,-2.5245,-2.5245,-2.5106,-2.5021,-2.5021,-2.5021,-2.5021,-2.5021,-2.5021,-2.5021,-2.5021,-2.5021,-2.5238,-2.6326,-2.6294,-2.624,-2.7216,-2.6747,-2.5844,-2.5418,-2.6113,-2.6881,-2.7078,-2.7638,-2.8222,-2.8892,-2.9002,-2.9002,-2.9002,-2.9002,-2.903,-2.914,-2.9058,-2.9022,-2.9086,-2.892,-2.8828,-2.8719,-2.7945,-2.7703,-2.8525,-2.838,-2.8298,-2.8398,-2.8398,-2.8398,-2.8398,-2.8298,-2.8021,-2.757,-2.7469,-2.7193,-2.6741,-2.6741,-2.676,-2.659,-2.6559,-2.6584,-2.6659,-2.6559,-2.6533,-2.6533,-2.6533,-2.6533,-2.6533,-2.6533,-2.6533,-2.6533,-2.6533,-2.6533,-2.6533,-2.9804,-2.9804,-2.9804,-2.9804,-2.9804,-2.9804,-2.9804,-2.9804,-2.9754,-2.9679,-2.9378,-2.9403,-2.9859,-2.8948,-2.7788,-2.6634,-2.6533,-2.6533,-2.6533,-2.6533,-2.6483,-2.6339,-2.6476,-2.64,-2.6206,-2.582,-2.5332,-2.4691,-2.4425,-2.4734,-2.5522,-2.4902,-2.4875,-2.5412,-2.5494,-2.5467,-2.5356,-2.4738,-2.4851,-2.5356,-2.4738,-2.4851,-2.5412,-2.5412,-2.5021,-2.4452,-2.4452,-2.3989,-2.3424,-2.3424,-2.3424,-2.3424,-2.3424,-2.3424,-2.3424,-2.3424,-2.3424,-2.3552,-2.4213,-2.4696,-2.5052,-2.5205,-2.5826,-2.6139,-2.509,-2.5454,-2.625,-2.6844,-2.7507,-2.8222,-2.8892,-2.9002,-2.9002,-2.9002,-2.9002,-2.9168,-2.9628,-2.927,-2.9067,-2.9316,-2.8679,-2.8028,-2.7545,-2.7814,-2.827,-2.8798,-2.8849,-2.9026,-2.9528,-2.9553,-2.9553,-2.9553,-2.9076,-2.8775,-2.8699,-2.8222,-2.7971,-2.7871,-2.7871,-2.7645,-2.7168,-2.6735,-2.6716,-2.7143,-2.6666,-2.6533,-2.6533,-2.6533,-2.6533,-2.6533,-2.6533,-2.6533,-2.6533,-2.6533,-2.6533,-2.6533,-2.9804,-2.9804,-2.9804,-2.9804,-2.9804,-2.9804,-2.9804,-2.9804,-2.9804,-2.9804,-2.9277,-2.9026,-2.9277,-2.8323,-2.7318,-2.6609,-2.6533,-2.6382,-2.6013,-2.6289,-2.6382,-2.5988,-2.6289,-2.6382,-2.5988,-2.5737,-2.5127,-2.415,-2.4064,-2.4045,-2.4105,-2.3754,-2.3813,-2.4105,-2.4105,-2.4105,-2.4105,-2.378,-2.3813,-2.4105,-2.3754,-2.3813,-2.4105,-2.4105,-2.393,-2.3662,-2.3662,-2.3424,-2.3065,-2.3065,-2.3065,-2.3065,-2.3065,-2.3065,-2.3201,-2.3527,-2.3376,-2.3401,-2.4582,-2.4858,-2.4958,-2.5586,-2.6088,-2.6408,-2.5837,-2.5978,-2.6191,-2.618,-2.6674,-2.7249,-2.7551,-2.7866,-2.8009,-2.8009,-2.8297,-2.8585,-2.8847,-2.8664,-2.8552,-2.8646,-2.8315,-2.8021,-2.777,-2.8247,-2.8674,-2.89,-2.9227,-2.9528,-2.9779,-2.9804,-2.9804,-2.9804,-2.9553,-2.9252,-2.8925,-2.8699,-2.8423,-2.8097,-2.8097,-2.7971,-2.772,-2.7168,-2.7218,-2.772,-2.7168,-2.6917,-2.6917,-2.6917,-2.6741,-2.6533,-2.6533,-2.6164,-2.563,-2.5325,-2.5015,-2.4826]}]]